[[{"header":{"parameterUnit":"m.s-1","parameterCategory":1,"la1":30.6,"la2":29.2853,"lo1":-89.7004,"lo2":-87.6739,"dy":0.0162,"dx":0.0183,"nx":112,"ny":82,"refTime":"2024-07-04T06:00:00:Z","depth":0,"parameterNumber":2,"parameterNumberName":"U-component_of_WINDS"},"data":[0.0,0.0,0.0,0.0,0.0,0.0,0.0,0.0,0.0,0.0,0.0,0.0,0.0,0.0,0.0,0.0,0.0,0.0,0.0,0.0,0.0,0.0,0.0,0.0,0.0,0.0,0.0,0.0,0.0,0.0,0.0,0.0,0.0,0.0,0.0,0.0,0.0,0.0,0.0,0.0,0.0,0.0,0.0,0.0,0.0,0.0,0.0,0.0,0.0,0.0,0.0,0.0,0.0,0.0,0.0,0.0,0.0,0.0,0.0,0.0,0.0,0.0,0.0,0.0,0.0,0.0,0.0,0.0,0.0,0.0,0.0,0.0,0.0,0.0,0.0,0.0,0.0,0.0,0.0,0.0,0.0,0.0,0.0,0.0,0.0,0.0,0.0,0.0,0.0,0.0,-2.8839,-3.0753,-3.2908,-3.4197,-3.4185,-3.2653,-3.1006,-2.9373,0.0,0.0,0.0,0.0,0.0,0.0,0.0,0.0,0.0,0.0,0.0,0.0,0.0,0.0,0.0,0.0,0.0,0.0,0.0,0.0,0.0,0.0,0.0,0.0,0.0,0.0,0.0,0.0,0.0,0.0,0.0,0.0,0.0,0.0,0.0,0.0,0.0,0.0,0.0,0.0,0.0,0.0,0.0,0.0,0.0,0.0,0.0,0.0,0.0,0.0,0.0,0.0,0.0,0.0,0.0,0.0,0.0,0.0,0.0,0.0,0.0,0.0,0.0,0.0,0.0,0.0,0.0,0.0,0.0,0.0,0.0,0.0,0.0,0.0,0.0,0.0,0.0,0.0,0.0,0.0,0.0,0.0,0.0,0.0,0.0,0.0,0.0,0.0,0.0,0.0,0.0,0.0,0.0,0.0,0.0,0.0,0.0,0.0,0.0,0.0,0.0,0.0,0.0,0.0,-2.9266,-3.2314,-3.3566,-3.4173,-3.4124,-3.2629,-3.0972,-2.9233,0.0,0.0,0.0,0.0,0.0,0.0,0.0,0.0,0.0,0.0,0.0,0.0,0.0,0.0,0.0,0.0,0.0,0.0,0.0,0.0,0.0,0.0,0.0,0.0,0.0,0.0,0.0,0.0,0.0,0.0,0.0,0.0,0.0,0.0,0.0,0.0,0.0,0.0,0.0,0.0,0.0,0.0,0.0,0.0,0.0,0.0,0.0,0.0,0.0,0.0,0.0,0.0,0.0,0.0,0.0,0.0,0.0,0.0,0.0,0.0,0.0,0.0,0.0,0.0,0.0,0.0,0.0,0.0,0.0,0.0,0.0,0.0,0.0,0.0,0.0,0.0,0.0,0.0,0.0,0.0,0.0,0.0,0.0,0.0,0.0,0.0,0.0,0.0,0.0,0.0,0.0,0.0,0.0,0.0,0.0,0.0,0.0,0.0,0.0,0.0,0.0,0.0,0.0,-2.931,-3.0958,-3.3351,-3.3889,-3.4086,-3.4049,-3.2545,-3.0872,-2.9211,-2.755,0.0,0.0,0.0,0.0,0.0,0.0,0.0,0.0,0.0,0.0,0.0,0.0,0.0,0.0,0.0,0.0,0.0,0.0,0.0,0.0,0.0,0.0,0.0,0.0,0.0,0.0,0.0,0.0,0.0,0.0,0.0,0.0,0.0,0.0,0.0,0.0,0.0,0.0,0.0,0.0,0.0,0.0,0.0,0.0,0.0,0.0,0.0,0.0,0.0,0.0,0.0,0.0,0.0,0.0,0.0,0.0,0.0,0.0,0.0,0.0,0.0,0.0,0.0,0.0,0.0,0.0,0.0,0.0,0.0,0.0,0.0,0.0,0.0,0.0,0.0,0.0,0.0,0.0,0.0,0.0,0.0,0.0,0.0,0.0,0.0,0.0,0.0,0.0,0.0,0.0,0.0,0.0,0.0,0.0,0.0,0.0,0.0,0.0,0.0,0.0,0.0,0.0,-3.0602,-3.2223,-3.363,-3.3925,-3.3924,-3.3714,-3.2348,-3.074,-2.8912,-2.7056,0.0,0.0,0.0,0.0,0.0,0.0,0.0,0.0,0.0,0.0,0.0,0.0,0.0,0.0,0.0,0.0,0.0,0.0,0.0,0.0,0.0,0.0,0.0,0.0,0.0,0.0,0.0,0.0,0.0,0.0,0.0,0.0,0.0,0.0,0.0,0.0,0.0,0.0,0.0,0.0,0.0,0.0,0.0,0.0,0.0,0.0,0.0,0.0,0.0,0.0,0.0,0.0,0.0,0.0,0.0,0.0,0.0,0.0,0.0,0.0,0.0,0.0,0.0,0.0,0.0,0.0,0.0,0.0,0.0,0.0,0.0,0.0,0.0,0.0,0.0,0.0,0.0,0.0,0.0,0.0,0.0,0.0,0.0,0.0,0.0,0.0,0.0,0.0,0.0,0.0,0.0,0.0,0.0,0.0,0.0,0.0,0.0,0.0,0.0,0.0,0.0,0.0,-3.0154,-3.193,-3.2798,-3.3555,-3.3677,-3.2858,-3.2011,-3.0477,-2.8037,-2.5668,0.0,0.0,0.0,0.0,0.0,0.0,0.0,0.0,0.0,0.0,0.0,0.0,0.0,0.0,0.0,0.0,0.0,0.0,0.0,0.0,0.0,0.0,0.0,0.0,0.0,0.0,0.0,0.0,0.0,0.0,0.0,0.0,0.0,0.0,0.0,0.0,0.0,0.0,0.0,0.0,0.0,0.0,0.0,0.0,0.0,0.0,0.0,0.0,0.0,0.0,0.0,0.0,0.0,0.0,0.0,0.0,0.0,0.0,0.0,0.0,0.0,0.0,0.0,0.0,0.0,0.0,0.0,0.0,0.0,0.0,0.0,0.0,0.0,0.0,0.0,0.0,0.0,0.0,0.0,0.0,0.0,0.0,0.0,0.0,0.0,0.0,0.0,0.0,0.0,0.0,0.0,0.0,0.0,0.0,0.0,0.0,0.0,0.0,0.0,0.0,0.0,0.0,-3.0079,-3.1839,-3.2662,-3.3416,-3.3542,-3.2708,-3.144,-2.986,-2.7926,0.0,0.0,0.0,0.0,0.0,0.0,0.0,0.0,0.0,0.0,0.0,0.0,0.0,0.0,0.0,0.0,0.0,0.0,0.0,0.0,0.0,0.0,0.0,0.0,0.0,0.0,0.0,0.0,0.0,0.0,0.0,0.0,0.0,0.0,0.0,0.0,0.0,0.0,0.0,0.0,0.0,0.0,0.0,0.0,0.0,0.0,0.0,0.0,0.0,0.0,0.0,0.0,0.0,0.0,0.0,0.0,0.0,0.0,0.0,0.0,0.0,0.0,0.0,0.0,0.0,0.0,0.0,0.0,0.0,0.0,0.0,0.0,0.0,0.0,0.0,0.0,0.0,0.0,0.0,0.0,0.0,0.0,0.0,0.0,0.0,0.0,0.0,0.0,0.0,0.0,0.0,0.0,0.0,0.0,0.0,0.0,0.0,0.0,0.0,0.0,0.0,0.0,-2.7345,-2.9368,-3.0944,-3.1764,-3.2533,-3.2653,-3.1853,-3.0534,-2.908,-2.7468,0.0,0.0,0.0,0.0,0.0,0.0,0.0,0.0,0.0,0.0,0.0,0.0,0.0,0.0,0.0,0.0,0.0,0.0,0.0,0.0,0.0,0.0,0.0,0.0,0.0,0.0,0.0,0.0,0.0,0.0,0.0,0.0,0.0,0.0,0.0,0.0,0.0,0.0,0.0,0.0,0.0,0.0,0.0,0.0,0.0,0.0,0.0,0.0,0.0,0.0,0.0,0.0,0.0,0.0,0.0,0.0,0.0,0.0,0.0,0.0,0.0,0.0,0.0,0.0,0.0,0.0,0.0,0.0,0.0,0.0,0.0,0.0,0.0,0.0,0.0,0.0,0.0,0.0,0.0,0.0,0.0,0.0,0.0,0.0,0.0,0.0,0.0,0.0,0.0,0.0,0.0,0.0,0.0,0.0,0.0,0.0,0.0,0.0,0.0,0.0,0.0,0.0,-2.6382,-2.7887,-2.9095,-2.9904,-3.0719,-3.0865,-3.005,-2.9259,-2.8092,0.0,0.0,0.0,0.0,0.0,0.0,0.0,0.0,0.0,0.0,0.0,0.0,0.0,0.0,0.0,0.0,0.0,0.0,0.0,0.0,0.0,0.0,0.0,0.0,0.0,0.0,0.0,0.0,0.0,0.0,0.0,0.0,0.0,0.0,0.0,0.0,0.0,0.0,0.0,0.0,0.0,0.0,0.0,0.0,0.0,0.0,0.0,0.0,0.0,0.0,0.0,0.0,0.0,0.0,0.0,0.0,0.0,0.0,0.0,0.0,0.0,0.0,0.0,0.0,0.0,0.0,0.0,0.0,0.0,0.0,0.0,0.0,0.0,0.0,0.0,0.0,0.0,0.0,0.0,0.0,0.0,0.0,0.0,0.0,0.0,0.0,0.0,0.0,0.0,0.0,0.0,0.0,0.0,0.0,0.0,0.0,0.0,0.0,0.0,0.0,0.0,0.0,0.0,-2.5989,-2.7616,-2.8884,-2.9633,-3.0442,-3.0586,-2.9796,-2.8458,-2.723,-2.6182,0.0,0.0,0.0,0.0,0.0,0.0,0.0,0.0,0.0,0.0,0.0,0.0,0.0,0.0,0.0,0.0,0.0,0.0,0.0,0.0,0.0,0.0,0.0,0.0,0.0,0.0,0.0,0.0,0.0,0.0,0.0,0.0,0.0,0.0,0.0,0.0,0.0,0.0,0.0,0.0,0.0,0.0,0.0,0.0,0.0,0.0,0.0,0.0,0.0,0.0,0.0,0.0,0.0,0.0,0.0,0.0,0.0,0.0,0.0,0.0,0.0,0.0,0.0,0.0,0.0,0.0,0.0,0.0,0.0,0.0,0.0,0.0,0.0,0.0,0.0,0.0,0.0,0.0,0.0,0.0,0.0,0.0,0.0,0.0,0.0,0.0,0.0,0.0,0.0,0.0,0.0,0.0,0.0,0.0,0.0,0.0,0.0,0.0,0.0,0.0,0.0,0.0,-2.5691,-2.7087,-2.8125,-2.885,-2.9347,-2.944,-2.8919,-2.7692,-2.6639,-2.5854,0.0,0.0,0.0,0.0,0.0,0.0,0.0,0.0,0.0,0.0,0.0,0.0,0.0,0.0,0.0,0.0,0.0,0.0,0.0,0.0,0.0,0.0,0.0,0.0,0.0,0.0,0.0,0.0,0.0,0.0,0.0,0.0,0.0,0.0,0.0,0.0,0.0,0.0,0.0,0.0,0.0,0.0,0.0,0.0,0.0,0.0,0.0,0.0,0.0,0.0,0.0,0.0,0.0,0.0,0.0,0.0,0.0,0.0,0.0,0.0,0.0,0.0,0.0,0.0,0.0,0.0,0.0,0.0,0.0,0.0,0.0,0.0,0.0,0.0,0.0,0.0,0.0,0.0,0.0,0.0,0.0,0.0,0.0,0.0,0.0,0.0,0.0,0.0,0.0,0.0,0.0,0.0,0.0,0.0,0.0,0.0,0.0,0.0,0.0,0.0,0.0,0.0,-2.5465,-2.6384,-2.7097,-2.7784,-2.784,-2.7797,-2.776,-2.701,-2.6237,-2.5495,0.0,0.0,0.0,0.0,0.0,0.0,0.0,0.0,0.0,0.0,0.0,0.0,0.0,0.0,0.0,0.0,0.0,0.0,0.0,0.0,0.0,0.0,0.0,0.0,0.0,0.0,0.0,0.0,0.0,0.0,0.0,0.0,0.0,0.0,0.0,0.0,0.0,0.0,0.0,0.0,0.0,0.0,0.0,0.0,0.0,0.0,0.0,0.0,0.0,0.0,0.0,0.0,0.0,0.0,0.0,0.0,0.0,0.0,0.0,0.0,-3.1865,0.0,0.0,0.0,0.0,0.0,0.0,0.0,0.0,0.0,0.0,0.0,0.0,0.0,0.0,0.0,0.0,0.0,0.0,0.0,0.0,0.0,0.0,0.0,0.0,0.0,0.0,0.0,0.0,0.0,0.0,0.0,0.0,0.0,0.0,0.0,0.0,0.0,0.0,0.0,0.0,0.0,-2.5187,-2.6002,-2.6699,-2.7422,-2.7415,-2.7336,-2.7338,-2.663,-2.59,-2.5155,-2.3501,0.0,0.0,0.0,0.0,0.0,0.0,0.0,0.0,0.0,0.0,0.0,0.0,0.0,0.0,0.0,0.0,0.0,0.0,0.0,0.0,0.0,0.0,0.0,0.0,0.0,0.0,0.0,0.0,0.0,0.0,0.0,0.0,0.0,0.0,0.0,0.0,0.0,0.0,0.0,0.0,0.0,0.0,0.0,0.0,0.0,0.0,0.0,0.0,0.0,0.0,0.0,0.0,0.0,0.0,0.0,0.0,0.0,0.0,0.0,0.0,-3.2306,0.0,0.0,0.0,0.0,0.0,0.0,0.0,0.0,0.0,0.0,0.0,0.0,0.0,0.0,0.0,0.0,0.0,0.0,0.0,0.0,0.0,0.0,0.0,0.0,0.0,0.0,0.0,0.0,0.0,0.0,0.0,0.0,0.0,0.0,0.0,0.0,0.0,0.0,0.0,0.0,-2.5018,-2.6088,-2.6861,-2.7181,-2.7152,-2.7087,-2.7055,-2.6696,-2.6165,-2.5379,-2.3922,0.0,0.0,0.0,0.0,0.0,0.0,0.0,0.0,0.0,0.0,0.0,0.0,0.0,0.0,0.0,0.0,0.0,0.0,0.0,0.0,0.0,0.0,0.0,0.0,0.0,0.0,0.0,0.0,0.0,0.0,0.0,0.0,0.0,0.0,0.0,0.0,0.0,0.0,0.0,0.0,0.0,0.0,0.0,0.0,0.0,0.0,0.0,0.0,0.0,0.0,0.0,0.0,0.0,-3.7788,-3.8415,-3.9819,-3.9746,-3.9325,-3.8489,-3.5628,-3.4052,-3.3345,0.0,0.0,0.0,0.0,0.0,0.0,0.0,0.0,0.0,0.0,0.0,0.0,0.0,0.0,0.0,0.0,0.0,0.0,0.0,0.0,0.0,0.0,0.0,0.0,0.0,-2.9661,-2.9138,0.0,0.0,0.0,0.0,0.0,0.0,0.0,0.0,0.0,0.0,0.0,0.0,-2.5077,-2.6323,-2.712,-2.6991,-2.6958,-2.6925,-2.6859,-2.6859,-2.6536,-2.5723,-2.4414,-2.3306,0.0,0.0,0.0,0.0,0.0,0.0,0.0,0.0,0.0,0.0,0.0,0.0,0.0,0.0,0.0,0.0,0.0,0.0,0.0,0.0,0.0,0.0,0.0,0.0,0.0,0.0,0.0,0.0,0.0,0.0,0.0,0.0,-2.7167,-2.8099,0.0,0.0,0.0,0.0,0.0,0.0,0.0,0.0,0.0,0.0,0.0,0.0,0.0,-3.7442,-3.7313,-3.8746,-3.9844,-4.0605,-4.0403,-4.0746,-4.1574,-4.1442,-4.1334,-4.1152,-3.9942,0.0,-3.5113,-3.4005,0.0,0.0,0.0,0.0,0.0,0.0,0.0,0.0,0.0,0.0,0.0,0.0,0.0,0.0,0.0,0.0,0.0,0.0,0.0,0.0,0.0,0.0,-2.9999,-3.0105,-3.0079,-2.9947,0.0,-2.7996,-2.6495,-2.6241,-2.4383,0.0,0.0,0.0,0.0,0.0,0.0,0.0,-2.5762,-2.6494,-2.6925,-2.6926,-2.6809,-2.6742,-2.6742,-2.6742,-2.6403,-2.5659,-2.4845,-2.3761,-2.2375,-2.1407,0.0,0.0,0.0,0.0,0.0,0.0,0.0,0.0,0.0,0.0,0.0,0.0,0.0,0.0,0.0,0.0,0.0,0.0,0.0,0.0,0.0,0.0,0.0,0.0,0.0,0.0,0.0,0.0,0.0,-2.8406,-2.9665,-3.0974,-3.1097,-3.0864,0.0,0.0,0.0,0.0,0.0,0.0,0.0,0.0,0.0,-3.8415,-3.955,-4.0053,-3.9886,-4.0919,-4.176,-4.2335,-4.2128,-4.2441,-4.3187,-4.3051,-4.275,-4.2303,-4.1902,-4.068,-3.8762,-3.6519,-3.4915,-3.3726,0.0,0.0,0.0,0.0,-3.1478,-3.2407,-3.1961,-3.1868,0.0,0.0,0.0,0.0,0.0,0.0,0.0,0.0,0.0,0.0,0.0,0.0,0.0,-3.1162,-3.1251,-3.1217,-3.1217,-3.008,-2.8664,0.0,-2.6217,-2.5163,-2.4199,0.0,0.0,0.0,0.0,-2.5611,-2.5908,-2.6498,-2.6859,-2.6792,-2.6742,-2.6691,-2.6691,-2.6691,-2.6556,-2.6234,-2.5134,-2.4203,-2.3562,-2.2037,-2.0886,0.0,0.0,0.0,0.0,0.0,0.0,0.0,0.0,0.0,0.0,0.0,0.0,0.0,0.0,0.0,0.0,0.0,0.0,0.0,0.0,0.0,0.0,0.0,0.0,0.0,0.0,0.0,0.0,-3.0534,-3.1832,-3.3534,-3.3872,-3.3698,0.0,0.0,0.0,0.0,0.0,0.0,-3.905,-3.916,-3.9837,-4.1285,-4.2067,-4.2334,-4.2116,-4.2789,-4.3269,-4.3592,-4.3418,-4.3643,-4.4184,-4.407,-4.367,-4.3113,-4.3113,-4.2649,-4.1683,-3.8804,-3.7164,-3.6272,-3.4587,-3.3949,-3.3856,-3.3039,-3.3262,-3.3875,-3.3262,-3.3447,-3.3819,-3.302,0.0,-3.1046,-3.0755,0.0,0.0,0.0,0.0,-2.9889,-3.0828,-3.1148,-3.1359,-3.1933,-3.2037,-3.2019,-3.2019,-3.1496,-3.0526,0.0,-2.782,-2.6982,-2.5796,0.0,0.0,0.0,0.0,-2.6028,-2.6138,-2.6552,-2.6809,-2.6708,-2.6691,-2.6691,-2.6691,-2.6691,-2.6691,-2.6691,-2.532,-2.4491,-2.4491,-2.2561,-2.1393,-2.119,0.0,0.0,0.0,0.0,0.0,0.0,0.0,0.0,0.0,0.0,0.0,0.0,0.0,0.0,0.0,0.0,0.0,0.0,0.0,0.0,0.0,0.0,0.0,0.0,0.0,0.0,0.0,0.0,0.0,-3.4432,-3.5314,0.0,0.0,0.0,0.0,-3.7812,-3.798,-3.9127,-4.1661,-4.1816,-4.2189,-4.3052,-4.3781,-4.4057,-4.3781,-4.444,-4.4663,-4.4426,-4.4298,-4.4218,-4.4184,-4.407,-4.3986,-4.3949,-4.3949,-4.3485,-4.2612,-4.0903,-3.9695,-3.8767,-3.7132,-3.6513,-3.642,-3.5621,-3.5826,-3.6513,-3.6476,-3.6495,-3.637,-3.5584,-3.4124,-3.249,-3.1466,-3.1033,0.0,0.0,-3.0729,-3.1155,-3.1042,-3.1429,-3.186,-3.1912,-3.1857,-3.1818,-3.1818,-3.1784,-3.1526,0.0,-2.883,-2.728,-2.7195,0.0,-2.5217,-2.5863,-2.5909,-2.6138,-2.6756,-2.6758,-2.6708,-2.6691,-2.6691,-2.6691,-2.6691,-2.6691,-2.6691,-2.6691,-2.532,-2.4491,-2.4491,-2.3054,-2.1921,-2.1207,-2.1123,0.0,0.0,0.0,0.0,0.0,0.0,0.0,0.0,0.0,0.0,0.0,0.0,0.0,0.0,0.0,0.0,0.0,0.0,0.0,0.0,0.0,0.0,0.0,0.0,0.0,0.0,0.0,0.0,-3.6946,-3.7393,0.0,-3.8201,-3.822,-3.89,-4.0526,-4.0655,-4.1525,-4.3556,-4.3672,-4.4025,-4.4782,-4.4968,-4.495,-4.4734,-4.4756,-4.4672,-4.4426,-4.43,-4.418,-4.407,-4.402,-4.4005,-4.4005,-4.4005,-4.3838,-4.3522,-4.2946,-4.1924,-4.0531,-3.8878,-3.8228,-3.8079,-3.6773,-3.6779,-3.7392,-3.6885,-3.7013,-3.7261,-3.6274,-3.5496,-3.4683,-3.3112,-3.2813,-3.2786,-3.1361,-3.1368,-3.176,-3.1567,-3.1667,-3.1838,-3.1838,-3.1837,-3.18,-3.18,-3.18,-3.1732,-3.1492,-3.0386,-2.9317,-2.8799,-2.7836,-2.7202,-2.7444,-2.6955,-2.6619,-2.6875,-2.6792,-2.6691,-2.6691,-2.6691,-2.6691,-2.6691,-2.6691,-2.6488,-2.6031,-2.5049,-2.4288,-2.3814,-2.2835,-2.2192,-2.1904,-2.1444,-2.0936,0.0,0.0,0.0,0.0,0.0,0.0,0.0,0.0,0.0,0.0,0.0,0.0,0.0,0.0,0.0,0.0,0.0,0.0,0.0,0.0,0.0,0.0,0.0,0.0,0.0,0.0,-3.7793,-3.9174,-3.9845,-4.0367,-4.0845,-4.0851,-4.1406,-4.2763,-4.2879,-4.3498,-4.4929,-4.5007,-4.5223,-4.5688,-4.5575,-4.539,-4.517,-4.4865,-4.4592,-4.4354,-4.4259,-4.4135,-4.4005,-4.4005,-4.4005,-4.4005,-4.4005,-4.4005,-4.4005,-4.4005,-4.3373,-4.2277,-4.0884,-4.0011,-3.9398,-3.8339,-3.8098,-3.8228,-3.7635,-3.7752,-3.7954,-3.6876,-3.6512,-3.6167,-3.454,-3.4221,-3.4155,-3.2772,-3.2406,-3.24,-3.2216,-3.199,-3.18,-3.18,-3.18,-3.18,-3.18,-3.18,-3.18,-3.1727,-3.1178,-3.0524,-2.9937,-2.9197,-2.8664,-2.8579,-2.7828,-2.725,-2.7216,-2.6894,-2.6691,-2.6691,-2.6691,-2.6691,-2.6691,-2.6691,-2.6387,-2.5643,-2.4914,-2.4271,-2.3797,-2.3054,-2.2801,-2.3038,-2.2057,-2.1461,-2.119,0.0,0.0,0.0,0.0,0.0,0.0,0.0,0.0,0.0,0.0,0.0,0.0,0.0,0.0,0.0,0.0,0.0,0.0,0.0,0.0,0.0,0.0,0.0,-3.4976,-3.7734,-4.0149,-4.0974,-4.2507,-4.3489,-4.3449,-4.3369,-4.3712,-4.4562,-4.4652,-4.5026,-4.5807,-4.5865,-4.5849,-4.5785,-4.5652,-4.5447,-4.5179,-4.4878,-4.4602,-4.4337,-4.4229,-4.4119,-4.4005,-4.4005,-4.4005,-4.4005,-4.4005,-4.4005,-4.4005,-4.4005,-4.4005,-4.3912,-4.3113,-4.185,-4.0471,-4.0401,-3.9844,-3.9073,-3.8935,-3.8833,-3.86,-3.7551,-3.7137,-3.6794,-3.5674,-3.5136,-3.487,-3.4579,-3.3849,-3.3088,-3.294,-3.2369,-3.1834,-3.18,-3.18,-3.18,-3.18,-3.18,-3.1763,-3.1617,-3.1124,-3.0678,-3.0553,-2.9917,-2.9349,-2.9171,-2.849,0.0,-2.7858,-2.7199,-2.6725,-2.6725,-2.6708,-2.6691,-2.6691,-2.6691,-2.6387,-2.5643,-2.4931,-2.4525,-2.4491,-2.3799,-2.378,-2.4491,-2.3105,-2.2023,-2.1292,0.0,0.0,0.0,0.0,0.0,0.0,0.0,0.0,0.0,0.0,0.0,0.0,0.0,0.0,0.0,0.0,0.0,0.0,0.0,0.0,0.0,-3.7085,-3.8695,-3.8494,-3.9785,-4.1276,-4.2707,-4.3241,-4.3695,-4.4214,-4.4247,-4.4583,-4.542,-4.6051,-4.6515,-4.6728,-4.7347,-4.7639,-4.7579,-4.7366,-4.7129,-4.691,-4.5921,-4.535,-4.5163,-4.4411,-4.4039,-4.4005,-4.4005,-4.4005,-4.4005,-4.4005,-4.4005,-4.4005,-4.4005,-4.4005,-4.3912,-4.3113,-4.2519,-4.1999,-4.0718,-3.9667,-3.8862,-3.8664,-3.8491,-3.8296,-3.7851,-3.7556,-3.7184,-3.6185,-3.5737,-3.5391,-3.4587,-3.4121,-3.3746,-3.3061,-3.2748,-3.2455,-3.1921,-3.18,-3.18,-3.18,-3.1727,-3.1635,-3.1598,-3.1423,-3.1266,-3.123,-3.0523,-2.9957,-2.9901,-2.9235,0.0,-2.8671,-2.7994,-2.7503,-2.7503,-2.7012,-2.6691,-2.6691,-2.6691,-2.6387,-2.5643,-2.5423,-2.5066,-2.4508,-2.4305,-2.4288,-2.4491,-2.4101,-2.3797,0.0,0.0,0.0,0.0,0.0,0.0,0.0,0.0,0.0,0.0,0.0,0.0,0.0,0.0,0.0,0.0,0.0,0.0,0.0,0.0,0.0,0.0,-3.9449,-4.1156,-4.1933,-4.2401,-4.3045,-4.398,-4.4377,-4.469,-4.5073,-4.5099,-4.5453,-4.629,-4.6806,-4.725,-4.7637,-4.8121,-4.8373,-4.8293,-4.8049,-4.7807,-4.7596,-4.6693,-4.6,-4.548,-4.4845,-4.4358,-4.4005,-4.4005,-4.4005,0.0,-4.4005,-4.4005,-4.4005,-4.4005,-4.4005,0.0,0.0,0.0,0.0,0.0,-3.9752,-3.9093,-3.8524,-3.8185,-3.7948,-3.7721,-3.7485,-3.7174,-3.6597,-3.6245,-3.5963,-3.5392,-3.4928,-3.4431,-3.3613,-3.3145,-3.2714,-3.1972,-3.18,-3.18,-3.18,-3.169,-3.1579,-3.1559,0.0,0.0,-3.1366,-3.0972,-3.0647,-3.0626,-2.9959,-2.9448,-2.9448,-2.8483,-2.7807,-2.7807,-2.7148,-2.6691,-2.6691,-2.6691,0.0,0.0,0.0,-2.5423,-2.4982,-2.5269,0.0,0.0,0.0,0.0,0.0,0.0,0.0,0.0,-2.3842,-2.4379,0.0,0.0,0.0,0.0,0.0,0.0,0.0,0.0,0.0,0.0,0.0,0.0,0.0,0.0,0.0,0.0,-4.1557,-4.3226,-4.4785,-4.5036,-4.5028,-4.4943,-4.5561,-4.5953,-4.5821,-4.5884,-4.6271,-4.7038,-4.727,-4.7734,-4.8508,0.0,0.0,0.0,0.0,-4.8105,-4.7905,-4.7404,-4.6652,-4.5645,-4.5419,-4.4841,-4.4005,-4.4005,-4.4005,-4.4005,-4.4005,-4.4005,-4.4005,-4.4005,-4.4005,-4.4005,-4.4005,-4.3488,-4.2566,-4.0858,-3.9997,0.0,0.0,0.0,0.0,-3.7391,-3.7143,-3.6948,-3.6829,-3.6629,-3.6482,-3.6482,-3.5918,-3.5128,-3.43,-3.3559,-3.2835,-3.199,-3.18,-3.18,-3.18,-3.169,-3.1578,-3.1517,-3.1387,-3.1274,-3.121,-3.1252,-3.1274,-3.121,-3.0649,-3.0207,-3.0207,-2.8956,-2.8027,-2.7942,0.0,0.0,-2.6725,-2.6691,-2.642,-2.5778,-2.5711,-2.5711,-2.5711,-2.6353,-2.6387,-2.5744,-2.5728,-2.5358,-2.4655,-2.5277,-2.5531,-2.5462,-2.5376,-2.5638,0.0,0.0,0.0,0.0,0.0,0.0,0.0,0.0,0.0,0.0,0.0,0.0,0.0,0.0,0.0,-4.1596,-4.3352,-4.4612,-4.4941,-4.5544,-4.5929,-4.5862,-4.5935,-4.5953,-4.5821,-4.6445,-4.6922,-4.7096,-4.8392,-4.9262,-4.9436,-5.0047,-5.0418,-5.0408,-5.0135,-4.9904,-4.9694,-4.8605,-4.7582,-4.663,0.0,0.0,-4.4005,-4.4005,-4.4005,-4.4005,-4.4005,-4.4005,-4.4005,-4.4005,-4.4005,-4.4005,-4.4005,-4.3444,-4.2485,-4.1393,-4.0396,-3.9477,-3.8391,-3.7845,-3.7577,-3.7372,-3.7046,-3.6745,-3.6742,-3.6544,0.0,-3.6343,-3.6218,-3.5783,-3.4458,-3.3992,-3.3507,-3.2127,-3.18,-3.18,-3.18,-3.1651,-3.1517,-3.1498,-3.1346,-3.123,-3.121,-3.121,-3.121,-3.121,-3.1072,-3.0987,-3.0987,-3.0209,-2.9431,-2.884,-2.8061,-2.7351,-2.6742,-2.6691,-2.664,-2.6488,-2.6488,-2.6488,-2.6488,-2.6623,-2.6623,-2.6488,-2.6421,-2.632,-2.6169,-2.615,-2.643,-2.696,-2.6851,-2.6788,0.0,0.0,0.0,0.0,0.0,0.0,0.0,0.0,0.0,0.0,0.0,-3.6928,-3.9956,0.0,-4.2181,-4.3489,-4.4797,-4.5647,-4.5644,-4.5973,-4.6177,-4.6115,-4.6032,-4.5953,-4.5821,-4.66,-4.727,-4.7715,-4.8952,-4.9881,-5.0279,-5.0685,-5.0901,-5.0899,-5.0663,-5.0436,-5.0206,-4.9405,-4.829,-4.6889,-4.6243,-4.5279,-4.4005,-4.4005,-4.4005,-4.4005,-4.4005,-4.4005,-4.4005,-4.4005,-4.4005,-4.4005,-4.4005,-4.3685,-4.3093,-4.1738,-4.0848,-4.0092,-3.8536,-3.7792,-3.7467,-3.7222,-3.6908,-3.6602,-3.6602,-3.6444,-3.6301,-3.6301,-3.6301,-3.5956,-3.4473,-3.4113,-3.3716,-3.2162,-3.18,-3.18,-3.18,-3.1632,-3.1498,-3.1498,-3.1344,-3.119,-3.119,-3.119,-3.119,-3.119,-3.119,-3.119,-3.119,-3.0565,-2.9973,-2.9583,-2.8856,-2.8247,-2.7893,-2.7486,-2.7097,-2.6708,-2.6691,-2.6691,-2.6691,-2.6691,-2.6691,-2.6657,-2.6555,-2.6469,-2.6398,-2.6589,-2.6862,-2.7154,-2.7722,-2.7967,0.0,0.0,0.0,0.0,0.0,0.0,0.0,-3.5412,-3.6315,-3.8559,-3.9171,-4.0075,-4.2454,-4.3489,-4.4231,-4.5109,-4.5831,-4.6293,-4.6308,-4.6245,-4.6175,-4.6115,-4.6047,-4.5947,-4.5821,-4.6728,-4.7637,-4.8353,-4.9359,-5.0221,-5.0859,-5.0898,-5.0901,-5.0897,-5.0729,-5.0517,-5.0252,-4.991,-4.8801,-4.6948,-4.6716,-4.5682,-4.4005,-4.4005,-4.4005,-4.4005,-4.4005,-4.4005,-4.4005,-4.4005,-4.4005,-4.4005,-4.4005,-4.3865,-4.3505,-4.1893,-4.1093,-4.0537,-3.8712,-3.7809,-3.7468,-3.7166,-3.6831,-3.6564,-3.6544,-3.6423,-3.6301,-3.6301,-3.6301,-3.599,-3.4645,-3.4217,-3.3751,-3.2352,-3.1903,-3.18,-3.18,-3.1632,-3.1498,-3.1498,-3.1344,-3.119,-3.119,-3.119,-3.119,-3.119,-3.119,-3.119,-3.119,-3.0683,-3.026,-3.0125,-2.9567,-2.9162,-2.901,-2.8264,-2.7553,-2.6945,-2.6776,-2.6691,-2.6691,-2.6691,-2.6657,-2.6555,-2.6568,-2.6476,-2.6294,-2.6888,-2.7185,-2.7235,-2.8218,-2.8731,-2.9807,-3.0689,-3.1792,-3.3617,-3.4846,-3.5839,0.0,-3.8114,-3.9534,-4.0586,-4.1433,-4.2533,-4.4366,-4.4795,-4.5148,-4.6007,-4.6241,-4.6293,-4.6308,-4.6247,-4.6183,-4.6119,-4.6032,-4.5943,-4.5814,-4.7289,-4.8295,-4.8392,-4.9881,-5.0801,-5.0898,-5.0898,-5.0898,-5.089,-5.0808,-5.0692,-5.0476,-5.0068,-4.8948,-4.7066,-4.6744,-4.5682,-4.4005,-4.4005,-4.4005,-4.4005,-4.4005,-4.4005,-4.4005,-4.4005,-4.4005,-4.4005,-4.4005,-4.3559,-4.2786,-4.1706,-4.0806,-3.9929,-3.8715,-3.8121,-3.788,-3.7467,-3.7087,-3.6768,-3.6684,-3.6502,-3.6301,-3.6301,-3.6301,-3.6111,-3.5283,-3.4576,-3.3889,-3.299,-3.2283,-3.18,-3.18,-3.1632,-3.1498,-3.1498,-3.1344,-3.119,-3.119,-3.119,-3.119,-3.119,-3.119,-3.119,-3.119,-3.1123,-3.0835,-3.0176,-3.004,-2.9702,-2.9061,-2.8264,-2.7773,-2.7689,-2.7063,-2.6691,-2.6691,-2.6691,-2.6607,-2.6418,-2.6874,-2.6965,-2.6661,-2.7195,-2.7713,-2.8239,-2.8247,-2.8409,-3.0855,-3.1819,-3.2992,-3.4804,-3.5953,-3.7018,-3.8406,-3.9671,-4.0947,-4.2332,-4.331,-4.4289,-4.5539,-4.5753,-4.587,-4.6241,-4.63,-4.6305,-4.6297,-4.6249,-4.6179,-4.6115,-4.6037,-4.5956,-4.5814,-4.6922,-4.785,-4.8353,-4.9513,-5.0415,-5.0859,-5.0898,-5.0898,-5.0898,-5.0869,-5.0729,-5.0497,-5.0218,-4.9074,-4.7095,-4.6885,-4.5792,-4.4005,-4.4005,-4.4005,-4.4005,-4.4005,-4.4005,-4.4005,-4.4005,-4.4005,-4.4005,-4.4005,-4.3225,-4.2054,-4.1627,-4.0903,-3.9936,-3.8818,-3.8252,-3.8001,-3.7541,-3.7126,-3.6788,-3.6705,-3.6523,-3.6301,-3.6301,-3.6301,-3.6128,-3.5387,-3.4645,-3.3906,-3.3093,-3.2334,-3.18,-3.18,-3.1632,-3.1498,-3.1498,-3.1344,-3.119,-3.119,-3.119,-3.119,-3.119,-3.119,-3.119,-3.119,-3.119,-3.1072,-3.0768,-3.0734,-3.0446,-2.9702,-2.933,-2.8753,-2.7858,-2.7503,-2.713,-2.6657,-2.664,-2.6688,-2.6801,-2.6876,-2.6912,-2.6935,-2.7476,-2.7816,-2.7996,-2.8269,-2.8411,-3.1757,-3.2883,-3.4221,-3.606,-3.7221,-3.8319,-3.9827,-4.0831,-4.181,-4.3079,-4.4036,-4.4914,-4.5773,-4.5948,-4.6027,-4.6261,-4.63,-4.6303,-4.629,-4.6269,-4.6202,-4.6114,-4.6071,-4.5972,-4.5834,-4.66,-4.7463,-4.8333,-4.9204,-5.0055,-5.0859,-5.0898,-5.0898,-5.0898,-5.0893,-5.0793,-5.0567,-5.035,-4.9314,-4.7499,-4.7101,-4.6034,-4.4371,-4.4132,-4.4005,-4.4005,-4.4005,-4.4005,-4.4005,-4.4005,-4.4005,-4.4005,-4.4005,-4.315,-4.1924,-4.1924,-4.1212,-4.0085,-3.8955,-3.8558,-3.8425,-3.7703,-3.7241,-3.6908,-3.6745,-3.6544,-3.636,-3.6322,-3.6301,-3.618,-3.5628,-3.4956,-3.4217,-3.3421,-3.2645,-3.2041,-3.1797,-3.1614,-3.1498,-3.1443,-3.1308,-3.119,-3.119,-3.119,-3.119,-3.119,-3.119,-3.119,-3.119,-3.119,-3.119,-3.119,-3.119,-3.097,-3.0446,-3.0226,-2.9616,-2.85,-2.8229,-2.7856,-2.7228,-2.7159,-2.7196,-2.7298,-2.7225,-2.7201,-2.7217,-2.7778,-2.7945,-2.7783,-2.8191,-2.8317,-3.2622,-3.4177,-3.5963,-3.7844,-3.902,-3.9958,-4.0869,-4.1732,-4.2376,-4.2435,-4.3138,-4.4016,-4.4875,-4.5049,-4.5324,-4.6163,-4.63,-4.6309,-4.6305,-4.6308,-4.6256,-4.6115,-4.6103,-4.6047,-4.5912,-4.664,-4.7463,-4.8333,-4.9204,-5.0055,-5.0859,-5.0898,-5.0898,-5.0898,-5.0898,-5.0833,-5.0692,-5.0436,-4.9709,-4.8547,-4.7433,-4.6364,-4.5339,-4.4408,-4.4005,-4.4005,-4.4005,-4.4005,-4.4005,-4.4005,-4.4005,-4.4005,-4.4005,-4.3485,-4.276,-4.276,-4.1757,-4.0243,-3.9158,-3.9163,-3.9435,-3.8114,-3.7503,-3.7201,-3.6806,-3.6602,-3.6482,-3.6339,-3.6301,-3.6284,-3.6266,-3.5714,-3.4973,-3.4251,-3.3438,-3.2641,-3.179,-3.1557,-3.1462,-3.1332,-3.1252,-3.119,-3.119,-3.119,-3.119,-3.119,-3.119,-3.119,-3.119,-3.119,-3.119,-3.119,-3.119,-3.119,-3.1157,-3.0514,-3.0072,-3.0021,-2.9347,-2.8887,-2.8743,-2.8613,-2.8293,-2.7798,-2.8215,-2.8116,-2.7496,-2.8074,-2.8244,-2.7989,-2.8005,-2.7955,-3.4057,-3.5097,-3.619,-3.8594,-3.9507,-4.002,-4.0896,-4.1763,-4.2409,-4.2394,-4.3099,-4.3782,-4.4075,-4.4133,-4.4426,-4.5304,-4.5441,-4.5646,-4.6228,-4.6308,-4.6263,-4.6184,-4.6134,-4.606,-4.598,-4.6164,0.0,-4.8295,-4.8662,-4.9436,-5.0821,-5.0898,-5.0898,-5.0898,-5.0898,-5.0841,-5.0701,-5.0517,-4.9553,-4.7782,-4.5979,-4.4867,-4.446,-4.415,-4.4005,-4.4005,-4.4005,-4.4005,-4.4005,-4.4005,-4.4005,-4.4005,-4.4005,-4.3503,-4.2797,-4.2755,-4.2387,-4.1708,-4.0139,-3.9638,-3.9504,-3.8288,-3.7667,-3.7318,-3.7048,-3.6751,-3.6502,-3.6444,-3.6381,-3.6301,-3.6301,-3.5749,-3.5128,-3.4887,-3.4192,-3.3355,-3.2561,-3.2271,-3.1998,-3.1397,-3.1252,-3.119,-3.119,-3.119,-3.119,-3.119,-3.119,-3.119,-3.119,-3.119,-3.119,-3.119,-3.119,-3.119,-3.119,-3.097,-3.0615,-3.0123,-2.9781,-2.9297,-2.8622,-2.8381,-2.8203,-2.8068,-2.8053,-2.7967,-2.7841,-2.7932,-2.7915,-2.774,-2.774,-2.77,-3.5018,-3.6215,-3.7378,-3.9183,-3.9937,-4.0373,-4.0962,-4.1283,-4.1462,-4.1468,-4.1665,-4.2038,-4.2664,-4.2763,-4.3251,-4.4756,-4.499,-4.5408,-4.6594,-4.6755,-4.6855,-4.71,-4.7084,-4.7026,-4.6931,-4.6884,0.0,-4.8322,-4.8682,-4.9455,-5.0821,-5.0898,-5.0898,-5.0898,-5.0608,-5.0414,-5.0312,-4.9865,-4.8717,-4.6878,-4.5406,-4.4475,-4.407,-4.402,-4.4005,-4.4005,-4.4005,-4.4005,-4.4005,-4.4005,-4.4005,-4.4005,-4.4005,-4.3674,-4.3197,-4.3135,-4.3072,-4.273,-4.0698,-4.0094,-3.9971,-3.8566,-3.788,-3.7559,-3.73,-3.6992,-3.671,-3.6626,-3.6485,-3.6364,-3.6364,-3.598,-3.5525,-3.5249,-3.4737,-3.4088,-3.3294,-3.2997,-3.272,-3.2153,-3.2009,-3.1901,-3.165,-3.136,-3.119,-3.119,-3.119,-3.119,-3.119,-3.119,-3.119,-3.119,-3.119,-3.119,-3.119,-3.119,-3.1004,-3.0531,-3.0367,-2.9973,-2.9251,-2.8942,-2.8686,-2.8433,-2.8199,-2.7998,-2.793,-2.784,-2.774,-2.76,-2.76,-2.76,-3.5628,-3.7514,-3.9468,-3.9708,-4.0396,-4.1,-4.1025,-4.0391,-3.9787,-3.975,-3.9087,-3.9013,-4.0662,-4.0996,-4.1878,-4.4442,-4.4893,-4.556,-4.7344,-4.7605,-4.7907,-4.8707,-4.8793,-4.8757,-4.8626,-4.8637,-4.8605,-4.8484,0.0,-5.0055,-5.0859,-5.0898,-5.0898,-5.0898,-5.0132,-4.9664,-4.9605,-4.8554,-4.734,-4.6006,-4.5702,-4.5077,-4.4184,-4.407,-4.4005,-4.4005,-4.4005,-4.4005,-4.4005,-4.4005,-4.4005,-4.4005,-4.4005,-4.3958,-4.3897,-4.3899,-4.3767,-4.3267,-4.0875,-4.0496,-4.0802,-3.8915,-3.8189,-3.7949,-3.7559,-3.7281,-3.7069,-3.6871,-3.6667,-3.6523,-3.6502,-3.6402,-3.6128,-3.5421,-3.515,-3.4802,-3.3946,-3.3686,-3.36,-3.3444,-3.3406,-3.3169,-3.2429,-3.1718,-3.1241,-3.1207,-3.119,-3.119,-3.119,-3.119,-3.119,-3.119,-3.119,-3.119,-3.119,-3.119,-3.119,-3.119,-3.1072,-3.0855,-3.0489,-3.0156,-2.9639,-2.8904,-2.8606,-2.8277,-2.779,-2.779,-2.7715,-2.76,-2.76,-2.76,-3.7833,-3.8936,-3.9641,-4.0416,-4.0805,-4.0844,-4.0257,-3.995,-3.9624,-3.8968,-3.8658,-3.864,-3.9072,-3.9685,-4.0764,-4.2739,-4.3603,-4.4878,-4.7266,-4.7601,-4.7902,-4.8691,-4.8802,-4.8775,-4.8672,-4.9177,-4.9483,0.0,-4.9601,-5.0055,-5.0859,-5.0898,-5.0898,-5.0898,-5.0132,-4.9664,-4.9605,-4.7847,-4.668,-4.6064,-4.5208,-4.4579,-4.4184,-4.407,-4.4005,-4.4005,-4.4005,-4.4005,-4.4005,-4.4005,-4.4005,-4.4005,-4.4005,-4.3958,-4.3881,-4.3835,-4.3736,-4.3324,-4.1473,-4.0944,-4.0804,-3.9042,-3.8352,-3.8189,-3.7932,-3.7595,-3.7281,-3.7089,-3.6891,-3.6687,-3.6544,-3.6464,-3.6388,-3.6098,-3.5878,-3.5523,-3.4767,-3.441,-3.4109,-3.3508,-3.3406,-3.3169,-3.2429,-3.2141,-3.1836,-3.1275,-3.119,-3.119,-3.119,-3.119,-3.119,-3.119,-3.119,-3.119,-3.119,-3.119,-3.119,-3.119,-3.1032,-3.0736,-3.0372,-2.9924,-2.9348,-2.8606,-2.8398,-2.8073,-2.765,-2.765,-2.7625,-2.76,-2.76,-2.76,-3.8974,-3.9739,-4.0246,-4.0775,-4.0941,-4.0783,-3.9989,-3.9508,-3.8984,-3.8115,-3.7627,-3.7474,-3.7851,-3.8643,-3.9938,-4.2052,-4.3133,-4.474,-4.7712,-4.8122,-4.8577,-4.98,-4.9941,-4.9912,-4.985,-5.0198,-5.0406,-5.0377,-5.0281,-5.0415,-5.0879,-5.0898,-5.0743,-5.0384,-4.9552,-4.8744,-4.7952,-4.674,-4.6019,-4.5707,-4.4978,-4.451,-4.4285,-4.415,-4.4055,-4.4005,0.0,-4.4005,-4.4005,-4.4005,-4.4005,-4.4005,-4.4005,-4.3945,-4.3851,-4.382,-4.3481,-4.2832,-4.1552,-4.0873,-4.0343,-3.9012,-3.8515,-3.8352,-3.8219,-3.7948,-3.765,-3.7431,-3.7185,-3.6933,-3.669,-3.6564,-3.6482,-3.6322,-3.6148,-3.5895,-3.5467,-3.5171,-3.4861,-3.4455,-3.41,-3.3643,-3.2899,-3.2513,-3.2056,-3.1309,-3.119,-3.119,-3.119,-3.119,-3.119,-3.119,-3.119,-3.119,-3.119,-3.119,-3.119,-3.119,-3.1012,-3.0712,-3.0262,-2.981,-2.9227,-2.8566,-2.8259,-2.7965,-2.7675,-2.7625,-2.76,-2.76,-2.76,-2.76,-3.956,-4.0242,-4.0913,-4.0904,-4.0887,-4.0627,-3.9802,-3.887,-3.7915,-3.7038,-3.6162,-3.5836,-3.6709,-3.7576,-3.9011,-4.1638,-4.2877,-4.468,-4.7998,-4.8662,-4.9407,-5.1036,-5.1322,-5.1386,-5.1324,-5.1249,-5.1176,-5.1114,-5.0981,-5.0906,-5.0898,-5.0801,-5.0306,-4.9385,-4.8631,-4.7448,-4.5827,-4.5671,-4.5466,-4.5211,-4.4948,-4.4667,-4.4411,-4.4274,-4.4135,-4.402,0.0,0.0,-4.4005,-4.4005,-4.4005,-4.4005,-4.4005,-4.3913,-4.3786,-4.3675,-4.3061,-4.2176,-4.1258,-4.0487,-3.9772,-3.8964,-3.8624,-3.851,-3.843,-3.8302,-3.8085,-3.7827,-3.7504,-3.7186,-3.6911,-3.6687,-3.6502,-3.6339,-3.6148,-3.5997,-3.5997,-3.58,-3.56,-3.56,-3.5081,-3.4387,-3.3541,-3.2865,-3.2175,-3.1326,-3.119,-3.119,-3.119,-3.119,-3.119,-3.119,-3.119,-3.119,-3.119,-3.119,-3.119,-3.1171,-3.0992,-3.0651,-3.0189,-2.9716,-2.9175,-2.8573,-2.8177,-2.7905,-2.7765,-2.765,-2.76,-2.76,-2.76,-2.76,-4.0408,-4.0806,-4.0984,-4.0972,-4.0487,-3.9783,-3.8928,-3.7487,-3.6103,-3.5226,-3.4391,-3.4079,-3.49,-3.5768,-3.7206,-3.9833,-4.1579,-4.3599,-4.6358,-4.792,-4.9189,-5.0206,-5.0968,-5.1406,-5.1378,-5.1263,-5.1161,0.0,-5.1023,-5.0956,-5.0898,-5.026,-4.9184,-4.7606,-4.7405,-4.683,-4.5807,-4.5676,-4.5493,-4.5292,-4.5007,-4.4757,-4.4551,-4.43,-4.4184,-4.4169,-4.4055,0.0,-4.4005,-4.4005,-4.4005,-4.4005,-4.4005,-4.3913,-4.373,-4.3063,-4.2599,-4.2084,-4.0616,-4.001,-3.9772,-3.8964,-3.8673,-3.8643,-3.851,-3.843,-3.8302,-3.8018,-3.7739,-3.743,-3.7068,-3.6826,-3.6602,-3.6343,-3.6148,-3.5997,-3.5997,-3.58,-3.56,-3.56,-3.5498,-3.4974,-3.3643,-3.3288,-3.2747,-3.1393,-3.119,-3.119,-3.119,-3.119,-3.119,-3.119,-3.119,-3.119,-3.119,-3.119,-3.1151,-3.1035,-3.0834,-3.0526,-3.0038,-2.9477,-2.8943,-2.8444,-2.8054,-2.7765,-2.7625,-2.7625,-2.76,-2.76,-2.76,-2.76,-4.0777,-4.0952,-4.0995,-4.1006,-4.0396,-3.9454,-3.8129,-3.6824,-3.5538,-3.4235,-3.367,-3.3651,-3.445,-3.5317,-3.6752,-3.9362,-4.0875,-4.2795,-4.587,-4.7373,-4.8642,-4.9948,-5.0867,-5.1405,-5.1403,-5.1303,-5.1219,-5.1161,-5.0662,-5.0354,-5.0275,-4.9037,-4.7954,-4.7134,-4.6651,-4.6218,-4.5798,-4.5739,-4.5616,-4.5448,-4.521,-4.4972,-4.4699,-4.4496,-4.4329,-4.4184,-4.4135,0.0,-4.4005,-4.4005,-4.4005,-4.4005,-4.4005,-4.3669,-4.3137,-4.273,-4.1936,-4.0928,-4.0157,-3.9625,-3.9203,-3.8836,-3.8707,-3.8692,-3.8624,-3.8578,-3.8499,-3.8221,-3.795,-3.7613,-3.7166,-3.6869,-3.6623,-3.6364,-3.6148,-3.5954,-3.5822,-3.5689,-3.56,-3.56,-3.56,-3.5126,-3.366,-3.3406,-3.2899,-3.141,-3.119,-3.119,-3.119,-3.119,-3.119,-3.119,-3.119,-3.119,-3.119,-3.1131,-3.1052,-3.0955,-3.0654,-3.0284,-2.9826,-2.9273,-2.8803,-2.8411,-2.7989,-2.7765,-2.77,-2.7625,-2.76,-2.76,-2.76,-2.76,-4.0637,-4.0832,-4.0974,-4.0799,-4.0127,-3.9065,-3.7311,-3.6103,-3.4937,-3.3436,-3.2969,-3.3086,-3.3904,-3.4789,-3.6146,-3.8578,-4.0012,-4.1915,-4.5028,-4.6532,-4.7938,-4.9616,-5.0589,-5.1188,-5.1386,-5.1336,-5.119,-5.0948,-4.9871,0.0,-4.9161,-4.7833,-4.7001,-4.6832,-4.6155,-4.5807,-4.5807,-4.581,-4.5735,-4.562,-4.5227,-4.49,-4.463,-4.4429,-4.4219,-4.4009,-4.414,0.0,0.0,-4.3835,-4.3745,-4.3726,-4.3559,-4.3002,-4.2306,-4.2121,-4.1143,-3.9879,-3.9698,-3.9239,-3.8707,-3.8707,-3.8707,-3.8707,-3.8707,-3.8707,-3.8661,-3.8387,-3.8069,-3.7703,-3.7243,-3.6911,-3.6623,-3.6318,-3.6088,-3.5888,-3.5644,-3.56,-3.56,-3.56,-3.56,-3.5126,-3.366,-3.3406,-3.2899,-3.141,-3.119,-3.119,-3.119,-3.119,-3.119,-3.119,-3.119,-3.119,-3.119,-3.1092,-3.0955,-3.0871,-3.0472,-3.0032,-2.9566,-2.9044,-2.8653,-2.8339,-2.7955,-2.7765,-2.7765,-2.765,-2.76,-2.76,-2.76,-2.76,-3.9808,-4.0432,-4.0893,-4.0114,-3.9256,-3.8168,-3.6415,-3.4781,-3.3358,-3.2404,-3.1583,-3.1308,-3.217,-3.3047,-3.4201,-3.5968,-3.8324,-4.0578,-4.2481,-4.4871,-4.7042,-4.872,-4.9691,-5.0524,-5.1327,-5.1336,-5.0936,-5.0077,-4.8423,0.0,-4.7335,-4.7194,-4.673,-4.5942,-4.5845,-4.5807,-4.5807,-4.581,-4.5765,-4.5673,-4.4678,-4.4164,-4.4052,-4.3672,-4.3465,-4.3415,-4.3949,0.0,0.0,-4.3255,-4.2909,-4.2835,-4.211,-4.1668,-4.1329,-4.0591,-4.0148,-3.979,-3.9056,-3.8762,-3.8707,-3.8707,-3.8707,-3.8707,-3.8707,-3.8707,-3.8676,-3.8449,-3.8119,-3.7703,-3.7301,-3.695,-3.6582,-3.6127,-3.591,-3.5773,-3.5622,-3.56,-3.56,-3.56,-3.56,-3.5126,-3.366,-3.3406,-3.2899,-3.141,-3.119,-3.119,-3.119,-3.119,-3.119,-3.119,-3.119,-3.119,-3.119,-3.1092,-3.0915,-3.0733,-3.0284,-2.9832,-2.9335,-2.8763,-2.8323,-2.8044,-2.7765,-2.7625,-2.7625,-2.7625,-2.76,-2.76,-2.76,-2.76,-4.0396,-4.0815,-4.0835,-3.9763,-3.9003,-3.7915,-3.5636,-3.4235,-3.3008,-3.1602,-3.1035,-3.1074,-3.1936,-3.2813,-3.3948,-3.5634,-3.7656,-3.9815,-4.2089,-4.4206,-4.6144,-4.7861,-4.9262,-5.0231,-5.0586,-5.1025,-5.0685,-4.9168,-4.7908,0.0,-4.6348,-4.6317,-4.6162,-4.5807,-4.5807,-4.5807,-4.5807,-4.5812,-4.5532,-4.4959,-4.4501,-4.393,-4.3274,-4.3025,-4.2822,-4.2636,-4.2767,0.0,0.0,-4.2251,-4.2073,-4.2054,-4.172,-4.1186,-4.0535,-4.0221,-3.9709,-3.9129,-3.8817,-3.8707,-3.8707,-3.8707,-3.8707,-3.8707,-3.8707,-3.8707,-3.8661,-3.8403,-3.8086,-3.7703,-3.7245,-3.6753,-3.631,-3.5971,-3.5839,-3.5773,-3.5622,-3.56,-3.56,-3.56,-3.56,-3.5261,-3.4235,-3.3694,-3.3051,-3.2022,-3.1478,-3.119,-3.119,-3.1131,-3.1092,-3.1092,-3.1151,-3.1171,-3.1092,-3.0975,-3.0831,-3.0526,-3.0113,-2.97,-2.9328,-2.8811,-2.8396,-2.8128,-2.7865,-2.7675,-2.76,-2.76,-2.76,-2.76,-2.76,-2.76,-3.9708,-4.0136,-4.0075,-3.8964,-3.8383,-3.7506,-3.5148,-3.3982,-3.2988,-3.1486,-3.1171,-3.1369,-3.1995,-3.3008,-3.4238,-3.5668,-3.7359,-3.9418,-4.2026,-4.3675,-4.5359,-4.7352,-4.885,-4.9818,-5.0078,-5.0364,-4.9968,-4.8599,-4.7443,0.0,-4.5845,-4.5807,-4.5807,-4.5807,-4.5807,-4.5807,-4.5807,-4.5548,-4.5148,-4.4513,-4.3944,-4.3253,-4.2492,-4.2335,-4.2153,-4.1917,0.0,0.0,0.0,-4.1403,-4.1266,-4.1219,-4.0958,-4.0407,-3.9741,-3.9741,-3.9304,-3.8707,-3.8707,-3.8707,-3.8707,-3.8707,-3.8707,-3.8707,-3.8707,-3.8707,-3.8627,-3.8372,-3.7949,-3.7504,-3.705,-3.653,-3.6079,-3.5861,-3.5773,-3.5711,-3.5622,-3.56,-3.56,-3.56,-3.56,-3.5363,-3.4624,-3.4066,-3.3406,-3.2446,-3.187,-3.1444,-3.1168,-3.1055,-3.0995,-3.0975,-3.1052,-3.1072,-3.0992,-3.0892,-3.0712,-3.0443,-3.0027,-2.9677,-2.9357,-2.885,-2.8438,-2.821,-2.794,-2.774,-2.76,-2.76,-2.76,-2.76,-2.76,-2.76,-3.6999,-3.7876,-3.8324,-3.7448,-3.7214,-3.6746,-3.4993,-3.3982,-3.3144,-3.2267,-3.2092,-3.2092,-3.2092,-3.3456,-3.4876,-3.5752,-3.7366,-3.9407,-4.2032,-4.3156,-4.4688,-4.7293,-4.8317,-4.9148,-5.0018,-4.927,-4.8655,-4.8513,0.0,0.0,-4.5807,-4.5807,-4.5807,-4.5807,-4.5807,-4.5807,-4.5807,-4.5007,-4.4613,-4.4574,-4.2792,-4.1885,-4.1794,-4.1598,-4.1435,0.0,0.0,0.0,0.0,-4.0887,-4.0472,-4.0327,-3.9454,-3.9054,-3.891,-3.891,-3.8825,-3.8707,-3.8707,-3.8707,-3.8707,-3.8707,-3.8707,-3.8707,-3.8707,-3.8707,-3.8627,-3.8372,-3.7721,-3.6993,-3.6609,-3.6255,-3.5954,-3.5839,-3.5689,-3.56,-3.56,-3.56,-3.56,-3.56,-3.56,-3.5363,-3.4624,-3.4489,-3.3981,-3.2513,-3.2293,-3.1982,-3.1099,-3.0995,-3.0975,-3.0912,-3.0892,-3.0892,-3.0892,-3.0773,-3.0651,-3.0506,-3.007,-2.9722,-2.9515,-2.8858,-2.8422,-2.821,-2.794,-2.774,-2.76,-2.76,-2.76,-2.76,-2.76,-2.76,-3.624,-3.7389,-3.8285,-3.7428,-3.7194,-3.6746,-3.4993,-3.3982,-3.3144,-3.2287,-3.2092,-3.2092,-3.2092,-3.3475,-3.4895,-3.5752,-3.7851,-4.0084,-4.2114,-4.3656,-4.5328,-4.7303,-4.8813,-5.0019,-5.083,0.0,-4.8635,-4.8513,0.0,0.0,-4.5807,-4.5807,-4.5807,-4.5807,-4.5807,-4.5529,-4.4987,-4.4736,-4.4001,-4.2821,-4.2193,-4.1591,-4.0971,-4.0831,0.0,0.0,0.0,0.0,0.0,-3.9808,-3.9593,-3.956,-3.9226,-3.9021,-3.891,-3.891,-3.8825,-3.8707,-3.8707,-3.8707,-3.8707,-3.8707,-3.8707,-3.8707,-3.8707,-3.8707,-3.8596,-3.8086,-3.7522,-3.693,-3.6468,-3.6191,-3.5932,-3.5711,-3.5622,-3.56,-3.56,-3.56,-3.56,-3.56,-3.56,-3.5515,-3.5301,-3.4827,-3.4167,-3.3203,-3.2611,-3.1999,-3.1116,-3.0955,-3.0892,-3.079,-3.0671,-3.0671,-3.077,-3.0712,-3.063,-3.0443,-3.021,-2.9957,-2.9722,-2.9273,-2.8897,-2.8558,-2.822,-2.7965,-2.774,-2.765,-2.76,-2.76,-2.76,-2.76,-3.4878,-3.5752,-3.6454,-3.5908,-3.5772,-3.5558,-3.4781,-3.3729,-3.2852,-3.2638,-3.2599,-3.2599,-3.2599,-3.4235,-3.5869,-3.6746,-3.8801,-4.0894,-4.2616,-4.408,-4.5714,-4.7752,-4.9245,-5.043,0.0,-4.9735,-4.8651,0.0,0.0,0.0,-4.5847,-4.5814,-4.5671,-4.5355,-4.5258,-4.5007,-4.4594,-4.3962,-4.3073,-4.2009,-4.1621,-4.1142,-4.0607,-4.05,0.0,0.0,0.0,0.0,0.0,-3.9439,-3.9304,-3.9197,-3.9156,-3.9031,-3.891,-3.891,-3.8825,-3.8707,-3.8707,-3.8707,-3.8707,-3.8707,-3.8707,-3.8707,-3.8707,-3.863,-3.8451,-3.8001,-3.7468,-3.695,-3.6489,-3.6191,-3.5932,-3.5667,-3.56,-3.56,-3.56,-3.56,-3.56,-3.56,-3.56,-3.56,-3.56,-3.5211,-3.4573,-3.3558,-3.3,-3.23,-3.111,-3.0932,-3.0831,-3.0651,-3.0547,-3.0531,-3.063,-3.063,-3.0568,-3.0443,-3.0274,-3.0124,-2.9979,-2.947,-2.9059,-2.8716,-2.8317,-2.7989,-2.7715,-2.765,-2.76,-2.76,-2.76,-2.76,0.0,-3.3397,-3.3495,-3.3495,-3.3534,-3.3768,-3.445,-3.3358,0.0,-3.3222,-3.3397,-3.3417,-3.3475,-3.5519,-3.7487,-3.8363,-4.0019,-4.176,-4.3376,-4.4504,-4.6082,-4.8504,-4.9614,-5.0487,-5.1223,-4.9731,-4.8656,0.0,0.0,0.0,-4.59,-4.5789,-4.5394,-4.4717,-4.4265,-4.4168,-4.44,-4.2802,-4.197,-4.1893,-4.1081,-4.0661,-4.0607,-4.0534,0.0,0.0,0.0,0.0,0.0,-3.9658,-3.9452,-3.9224,-3.921,-3.9073,-3.891,-3.8892,-3.8825,-3.8707,-3.8707,-3.8707,-3.8707,-3.8707,-3.8707,-3.8707,-3.8707,-3.8517,-3.8256,-3.807,-3.7559,-3.6993,-3.6609,-3.6255,-3.5932,-3.5667,-3.56,-3.56,-3.56,-3.56,-3.56,-3.56,-3.56,-3.56,-3.56,-3.56,-3.5092,-3.3626,-3.3385,-3.2782,-3.1116,-3.0892,-3.079,-3.0526,-3.0506,-3.0506,-3.0506,-3.0506,-3.0506,-3.0489,-3.0316,-3.0189,-3.0167,-2.9509,-2.899,-2.8724,-2.822,-2.7855,-2.76,-2.76,-2.76,-2.76,-2.76,-2.76,-3.217,0.0,-3.4313,-3.4313,-3.482,-3.5187,0.0,-3.3826,-3.3144,-3.3358,-3.3397,-3.3592,-3.4196,-3.5908,-3.7487,-3.8363,-4.0484,-4.2396,-4.3452,-4.6075,-4.8113,-4.8727,-5.0168,-5.0918,-5.0457,-4.9367,0.0,0.0,0.0,-4.5893,-4.59,-4.524,-4.5084,-4.5504,-4.3576,-4.255,-4.2609,-4.2202,-4.168,-4.1087,-4.081,-4.0661,-4.0588,-4.0576,0.0,0.0,0.0,0.0,-4.0087,-3.9804,-3.9611,-3.9477,-3.929,-3.912,-3.8964,-3.8925,-3.8825,-3.8707,-3.8707,-3.8707,-3.8707,-3.8707,-3.8707,-3.8707,-3.8707,-3.8546,-3.8318,-3.8069,-3.7596,-3.7054,-3.6629,-3.6255,-3.5932,-3.5667,-3.56,-3.56,-3.56,-3.56,-3.56,-3.56,-3.56,-3.56,-3.56,-3.56,-3.5092,-3.3626,-3.3377,-3.2732,-3.1113,-3.0794,-3.0692,-3.0526,-3.0506,-3.0506,-3.0506,-3.0506,-3.0485,-3.0438,-3.0396,-3.0194,-2.9897,-2.9582,-2.9175,-2.8693,-2.8146,-2.7765,-2.76,-2.76,-2.76,-2.76,-2.76,-2.76,-3.1388,-3.246,-3.3553,-3.3943,-3.4391,-3.4722,-3.4625,-3.3768,-3.3164,-3.3826,-3.3651,-3.3612,-3.4289,-3.6042,-3.7893,-3.9435,-4.1497,-4.3338,-4.461,-4.6757,-4.8207,-4.8251,-4.9413,-5.0018,0.0,0.0,0.0,0.0,0.0,-4.5744,-4.5376,-4.4879,-4.4427,-4.4072,-4.2731,-4.2067,-4.2228,-4.1699,-4.1235,-4.0797,-4.0752,-4.07,-4.0595,-4.0605,-4.0554,0.0,0.0,0.0,-4.0234,-3.9977,-3.9792,-3.9623,-3.9376,-3.917,-3.8979,-3.8921,-3.8825,-3.8707,-3.8707,-3.8707,-3.8707,-3.8707,-3.8707,-3.8707,-3.8707,-3.8627,-3.8465,-3.8204,-3.7756,-3.7245,-3.6774,-3.636,-3.6014,-3.5689,-3.56,-3.56,-3.56,-3.56,-3.56,-3.56,-3.56,-3.56,-3.56,-3.56,-3.5188,-3.398,-3.3515,-3.2824,-3.1483,-3.0949,-3.0651,-3.051,-3.0506,-3.0506,-3.0506,-3.0506,-3.0464,-3.0401,-3.0354,-3.0167,-2.9815,-2.9493,-2.9013,-2.8389,-2.7925,-2.7675,-2.76,-2.76,-2.76,-2.76,-2.76,-2.76,-3.0938,-3.1622,-3.254,-3.3534,-3.3787,-3.3963,-3.4645,-3.3768,-3.3166,-3.4352,-3.406,-3.3804,-3.4539,-3.6448,-3.8633,-4.0757,-4.2614,-4.4367,-4.5967,-4.6942,-4.7524,-4.7596,-4.8319,0.0,-4.8606,0.0,0.0,0.0,0.0,-4.5562,-4.4742,-4.4525,-4.3698,-4.2125,-4.1912,-4.1957,-4.2228,-4.128,-4.0797,-4.0797,-4.0797,-4.072,-4.0595,-4.0595,-4.0552,0.0,0.0,0.0,-4.0316,-4.0167,-3.9975,-3.9717,-3.9502,-3.9264,-3.9007,-3.8921,-3.8825,-3.8707,-3.8707,-3.8707,-3.8707,-3.8707,-3.8707,-3.8707,-3.8707,-3.8707,-3.8661,-3.8389,-3.7931,-3.7432,-3.6937,-3.6509,-3.6122,-3.5711,-3.5622,-3.56,-3.56,-3.56,-3.56,-3.56,-3.56,-3.56,-3.56,-3.5577,-3.5301,-3.4437,-3.3787,-3.3029,-3.1945,-3.1237,-3.0746,-3.0526,-3.0506,-3.0506,-3.0506,-3.0605,-3.065,-3.0582,-3.034,-3.0081,-2.9766,-2.9289,-2.8724,-2.8054,-2.779,-2.7625,-2.76,-2.76,-2.76,-2.76,-2.76,-2.76,-3.1507,-3.254,-3.3573,-3.5129,-3.5519,-3.5558,-3.5675,-3.4956,-3.4333,-3.4567,-3.4508,-3.4895,-3.6454,-3.8227,-3.9821,-4.0912,-4.3122,-4.5058,-4.6067,-4.6958,-4.7518,-4.7597,0.0,-4.8513,0.0,0.0,0.0,0.0,0.0,-4.5605,-4.4742,-4.3988,-4.3221,-4.2441,-4.1493,-4.1009,-4.1067,-4.0893,-4.0797,-4.0797,-4.0797,-4.072,-4.0595,-4.0595,-4.0552,0.0,0.0,-4.0495,-4.0449,-4.0261,-4.008,-3.9914,-3.9611,-3.9324,-3.9073,-3.895,-3.8825,-3.8707,-3.8707,-3.8707,-3.8707,-3.8707,-3.8707,-3.8707,-3.8707,-3.8707,-3.8676,-3.8433,-3.8085,-3.7614,-3.7036,-3.6594,-3.6212,-3.5861,-3.5667,-3.56,-3.56,-3.56,-3.56,-3.56,-3.56,-3.56,-3.56,-3.5549,-3.5245,-3.4415,-3.4075,-3.3384,-3.1974,-3.1601,-3.1205,-3.0572,-3.0506,-3.0506,-3.0506,-3.1068,-3.1389,-3.1341,-3.0619,-3.0017,-2.956,-2.9036,-2.8629,-2.8323,-2.7965,-2.77,-2.76,-2.76,-2.76,-2.76,-2.76,-2.76,-3.0472,-3.2014,-3.3807,-3.548,-3.6259,-3.659,-3.659,-3.6395,-3.632,-3.6649,-3.671,-3.6846,-3.7325,-3.912,-4.1036,-4.2662,-4.4445,-4.5759,-4.6189,-4.6561,-4.6814,0.0,0.0,-4.718,0.0,0.0,0.0,0.0,0.0,0.0,-4.405,-4.3181,-4.2356,-4.1609,-4.1067,-4.0797,-4.0797,-4.0797,-4.0797,-4.0797,-4.0797,-4.0746,-4.0654,-4.0621,-4.0579,-4.0546,0.0,-4.05,-4.0495,-4.0314,-4.0148,-3.996,-3.9663,-3.9389,-3.9129,-3.8921,-3.8777,-3.8707,-3.8707,-3.8707,-3.8707,-3.8707,-3.8707,-3.8707,-3.8707,-3.8707,-3.8658,-3.8465,-3.8152,-3.7774,-3.7208,-3.6759,-3.6385,-3.5997,-3.5817,-3.5706,-3.5622,-3.56,-3.56,-3.56,-3.56,-3.5577,-3.5549,-3.5537,-3.5328,-3.4806,-3.4313,-3.3739,-3.2984,-3.2492,-3.2067,-3.1719,-3.1686,-3.1686,-3.1686,-3.2,-3.2155,-3.2045,-3.1554,-3.1128,-3.0762,-2.9958,-2.935,-2.9051,-2.8295,-2.784,-2.77,-2.765,-2.76,-2.76,-2.76,-2.76,-2.9399,-3.1252,-3.3495,-3.5187,-3.6395,-3.7253,-3.7467,-3.7818,-3.8246,-3.8714,-3.8795,-3.8736,-3.8471,-4.0214,-4.2389,-4.4549,-4.5636,-4.6246,-4.6264,-4.6229,-4.6209,-4.6201,-4.6135,0.0,0.0,0.0,0.0,0.0,0.0,0.0,-4.3158,-4.2451,-4.1704,-4.0835,-4.0797,-4.0797,-4.0797,-4.0797,-4.0797,-4.0797,-4.0797,-4.0759,-4.0694,-4.0628,-4.0605,-4.0607,-4.0531,-4.0496,-4.0489,-4.0377,-4.0196,-4.0002,-3.9762,-3.9439,-3.9115,-3.8877,-3.8765,-3.8707,-3.8707,-3.8707,-3.8707,-3.8707,-3.8707,-3.8707,-3.8707,-3.8673,-3.8609,-3.8449,-3.8219,-3.7897,-3.7431,-3.7013,-3.6594,-3.6174,-3.5971,-3.5817,-3.5644,-3.56,-3.56,-3.56,-3.5577,-3.5549,-3.5514,-3.5446,-3.5354,-3.5111,-3.4582,-3.4103,-3.3846,-3.3292,-3.2901,-3.2718,-3.2702,-3.2768,-3.295,-3.2967,-3.3005,-3.3057,-3.2554,-3.2062,-3.165,-3.0775,-3.0054,-2.9496,-2.8602,-2.8063,-2.789,-2.7775,-2.7725,-2.7675,-2.7675,-2.7675,-2.9067,-3.0823,-3.2599,-3.4274,-3.5967,-3.7409,-3.8227,-3.9045,-3.9649,-3.9708,-3.9708,-3.9941,-4.0718,-4.2256,-4.4005,-4.5794,-4.6204,-4.6264,-4.6211,0.0,-4.6206,-4.6189,0.0,0.0,0.0,0.0,0.0,0.0,0.0,0.0,-4.2291,-4.2131,-4.1695,-4.0835,-4.0797,-4.0797,-4.0797,-4.0797,-4.0797,-4.0797,-4.0797,-4.0759,-4.0694,-4.0628,-4.0605,-4.0607,-4.0531,-4.0496,-4.0489,-4.043,-4.0261,-4.0071,-3.9862,-3.9464,-3.8993,-3.8848,-3.8765,-3.8707,-3.8707,-3.8707,-3.8707,-3.8707,-3.8707,-3.8707,-3.8707,-3.8609,-3.8494,-3.8415,-3.8252,-3.8,-3.7667,-3.7318,-3.6915,-3.6388,-3.6148,-3.591,-3.5667,-3.56,-3.56,-3.56,-3.5566,-3.5514,-3.5492,-3.5291,-3.5128,-3.5088,-3.4944,-3.4591,-3.3895,-3.374,-3.3464,-3.2785,-3.2702,-3.2984,-3.3657,-3.3707,-3.4005,-3.4684,-3.3244,-3.2004,-3.1183,-3.0836,-3.0167,-2.9169,-2.8818,-2.8486,-2.8162,-2.8162,-2.8088,-2.7955,-2.7955,-2.7955,-2.9188,-3.1178,-3.305,-3.3694,-3.5955,-3.8093,-3.8425,-4.0009,-4.1418,-4.1418,-4.1808,-4.1941,-4.1221,-4.2476,-4.3946,-4.4979,-4.5751,-4.623,-4.6265,-4.6189,-4.6135,-4.6134,0.0,0.0,0.0,0.0,0.0,0.0,0.0,0.0,0.0,-4.1618,-4.1139,-4.0802,-4.0803,-4.0797,-4.0797,-4.0797,-4.0797,-4.0797,-4.0797,-4.079,-4.0752,-4.0661,-4.06,-4.0605,-4.0527,-4.0496,-4.0489,-4.0463,-4.0342,-4.0139,-3.9755,-3.9363,-3.8979,-3.891,-3.8792,-3.8707,-3.8707,-3.8707,-3.8707,-3.8707,-3.8707,-3.8707,-3.8707,-3.8609,-3.8494,-3.8415,-3.832,-3.8138,-3.7775,-3.743,-3.7106,-3.6594,-3.6297,-3.6058,-3.5778,-3.5667,-3.56,-3.56,-3.5543,-3.5469,-3.54,-3.5222,-3.5065,-3.4994,-3.4923,-3.48,-3.4518,-3.4485,-3.4369,-3.4087,-3.4054,-3.417,-3.4452,-3.4485,-3.4601,-3.4883,-3.4315,-3.3745,-3.3214,-3.2192,-3.132,-3.0664,-2.9532,-2.8787,-2.851,-2.8381,-2.825,-2.8128,-2.8029,-2.7995,-2.9613,-3.1412,-3.3189,-3.4014,-3.6375,-3.8635,-3.9208,-4.1128,-4.2877,-4.3131,-4.3638,-4.3677,-4.2532,-4.3261,-4.4264,-4.4927,-4.5683,-4.6223,-4.6261,-4.617,-4.6096,0.0,0.0,0.0,0.0,0.0,0.0,0.0,0.0,0.0,0.0,-4.1153,-4.079,0.0,-4.0809,-4.0797,-4.0797,-4.0797,-4.0797,-4.0797,-4.0797,-4.0797,-4.079,-4.0668,-4.0595,-4.0607,-4.0534,-4.0496,-4.0489,-4.0507,-4.037,-4.0139,-3.9732,-3.9376,-3.905,-3.8964,-3.8822,-3.8707,-3.8707,-3.8707,-3.8707,-3.8707,-3.8707,-3.8707,-3.8707,-3.8593,-3.8462,-3.8415,-3.8338,-3.8191,-3.7845,-3.7577,-3.726,-3.6776,-3.6426,-3.6165,-3.5861,-3.5689,-3.56,-3.56,-3.5503,-3.5423,-3.5331,-3.5152,-3.4994,-3.4923,-3.4899,-3.4899,-3.4899,-3.4899,-3.4899,-3.4899,-3.4899,-3.4899,-3.4899,-3.4899,-3.4899,-3.4899,-3.4899,-3.4688,-3.4242,-3.3203,-3.2378,-3.1798,-3.0398,-2.9561,-2.9297,-2.8833,-2.8549,-2.8414,-2.8259,-2.8177,-3.0363,-3.1464,-3.2759,-3.5342,-3.7278,-3.8978,-4.0718,-4.2454,-4.3924,-4.4746,-4.4902,-4.4926,-4.4998,-4.4997,-4.5266,-4.6054,-4.6182,-4.6191,-4.6192,-4.6138,0.0,0.0,0.0,0.0,0.0,0.0,0.0,0.0,0.0,0.0,0.0,-4.0842,0.0,0.0,-4.079,-4.0797,-4.0797,-4.0797,-4.0797,-4.0797,-4.0797,-4.0797,-4.079,-4.0668,-4.0595,-4.0607,-4.0534,-4.0496,-4.0489,-4.0507,-4.0345,-4.0077,-3.987,-3.957,-3.9183,-3.905,-3.8866,-3.8707,-3.8707,-3.8707,-3.8707,-3.8707,-3.8707,-3.8707,-3.8707,-3.8562,-3.8399,-3.8399,-3.8305,-3.8158,-3.7951,-3.7739,-3.7466,-3.6933,-3.6533,-3.6216,-3.5883,-3.5689,-3.56,-3.56,-3.5435,-3.5291,-3.5291,-3.5065,-3.4899,-3.4899,-3.4899,-3.4899,-3.4899,-3.4899,-3.4899,-3.4899,-3.4899,-3.4899,-3.4899,-3.4899,-3.4899,-3.4899,-3.4899,-3.4521,-3.3637,-3.3604,-3.3165,-3.2213,-3.1359,-3.0803,-3.0612,-2.9609,-2.9029,-2.8881,-2.8677,-2.8541,-3.1401,-3.3241,-3.5039,-3.5801,-3.8182,-4.0619,-4.1755,-4.2889,-4.411,-4.5576,-4.54,-4.4951,-4.493,-4.4978,-4.5058,-4.5246,-4.5804,-4.6173,-4.6134,0.0,0.0,0.0,0.0,0.0,0.0,0.0,0.0,0.0,0.0,0.0,0.0,-4.0888,0.0,0.0,-4.08,-4.0796,-4.0797,-4.0797,-4.0797,-4.0797,-4.0797,-4.0797,-4.079,-4.0668,-4.0595,-4.0607,-4.0534,-4.0496,-4.0489,-4.0507,-4.037,-4.0158,-3.9956,-3.9647,-3.9298,-3.9092,-3.891,-3.8747,-3.8723,-3.8707,-3.8707,-3.8707,-3.8707,-3.8707,-3.8707,-3.8562,-3.8399,-3.8399,-3.8305,-3.8158,-3.7951,-3.7685,-3.7338,-3.6895,-3.6533,-3.6216,-3.5883,-3.5689,-3.56,-3.56,-3.5435,-3.5291,-3.5291,-3.5065,-3.4899,-3.4899,-3.4899,-3.4899,-3.4899,-3.4899,-3.4899,-3.4899,-3.4899,-3.4899,-3.4899,-3.4899,-3.4899,-3.4899,-3.4899,-3.4752,-3.4378,-3.3884,-3.3418,-3.3041,-3.2239,-3.1482,-3.0826,-3.0272,-2.9642,-2.8881,-2.8597,-2.8323,-3.2793,-3.4549,-3.6164,-3.6822,-3.9055,-4.1505,-4.3035,-4.4096,-4.5039,-4.6074,-4.5879,-4.5507,-4.5469,-4.5486,0.0,-4.5434,-4.5825,-4.6033,-4.5643,0.0,0.0,0.0,0.0,0.0,0.0,0.0,0.0,0.0,0.0,0.0,0.0,0.0,0.0,0.0,-4.0792,-4.0802,-4.0797,-4.0797,-4.0797,-4.0797,-4.0797,-4.0797,-4.079,-4.07,-4.0621,-4.0607,-4.0534,-4.0496,-4.0496,-4.0503,-4.0411,-4.0261,-4.006,-3.9766,-3.9439,-3.917,-3.8964,-3.8792,-3.8719,-3.8707,-3.8707,-3.8707,-3.8707,-3.8707,-3.8707,-3.8562,-3.8399,-3.8399,-3.8305,-3.8158,-3.7951,-3.7685,-3.7356,-3.6915,-3.653,-3.617,-3.5861,-3.5689,-3.56,-3.56,-3.5435,-3.5291,-3.5291,-3.5065,-3.4899,-3.4899,-3.4899,-3.4899,-3.4899,-3.4899,-3.4899,-3.4899,-3.4899,-3.4899,-3.4899,-3.4899,-3.4899,-3.4899,-3.4899,-3.4859,-3.478,-3.435,-3.4079,-3.3985,-3.313,-3.2294,-3.1492,-3.0803,-2.9965,-2.8974,-2.8645,-2.8275,-3.4256,-3.5459,-3.6615,-3.8229,-3.9986,-4.1964,-4.4458,-4.567,-4.6285,-4.6305,-4.6307,-4.6307,-4.6301,-4.6295,-4.6278,-4.6212,-4.6075,-4.5702,-4.4919,0.0,0.0,0.0,0.0,0.0,0.0,0.0,0.0,0.0,0.0,0.0,0.0,0.0,0.0,-4.0812,-4.0798,-4.0808,-4.0797,-4.0797,-4.0797,0.0,-4.0797,-4.0797,-4.0797,-4.0733,-4.0661,-4.06,-4.0527,-4.0496,-4.0496,-4.0496,-4.0468,-4.0396,-4.0186,-3.9908,-3.9587,-3.9298,-3.9031,-3.8807,-3.8719,-3.8707,-3.8707,-3.8707,-3.8707,-3.8707,-3.8707,-3.8562,-3.8399,-3.8399,-3.8305,-3.8158,-3.7951,-3.7739,-3.7466,-3.6935,-3.6506,-3.6122,-3.5839,-3.5706,-3.56,-3.56,-3.5435,-3.5291,-3.5291,-3.5065,-3.4899,-3.4899,-3.4899,-3.4899,-3.4899,-3.4899,-3.4899,-3.4899,-3.4899,-3.4899,-3.4899,-3.4899,-3.4899,-3.4899,-3.4899,-3.4875,-3.4875,-3.4875,-3.4875,-3.4875,-3.3895,-3.3048,-3.2361,-3.1184,-3.0074,-2.9074,-2.8748,-2.8308,-3.4407,-3.6298,-3.8217,-3.9252,-4.1302,-4.3545,-4.5418,-4.6037,-4.6238,-4.6294,-4.6305,-4.6308,-4.6298,-4.6267,-4.6228,-4.619,-4.5566,-4.5004,0.0,0.0,0.0,0.0,0.0,0.0,0.0,0.0,0.0,0.0,0.0,0.0,0.0,0.0,0.0,-4.0877,-4.0832,-4.0804,-4.0808,-4.0803,-4.0797,0.0,-4.0797,-4.0797,-4.0797,-4.0733,-4.0666,-4.0595,-4.0531,-4.0496,-4.0496,-4.0496,-4.0484,-4.0458,-4.0261,-4.004,-3.9785,-3.9427,-3.9142,-3.8921,-3.875,-3.8707,-3.8707,-3.8707,-3.8707,-3.8707,-3.8707,-3.8562,-3.8399,-3.8399,-3.8305,-3.8158,-3.7951,-3.7739,-3.7485,-3.7068,-3.6609,-3.6152,-3.5734,-3.5622,-3.56,-3.56,-3.5435,-3.5291,-3.5291,-3.5065,-3.4899,-3.4899,-3.4899,-3.4899,-3.4899,-3.4899,-3.4899,-3.4899,-3.4899,-3.4899,-3.4899,-3.4899,-3.4899,-3.4899,-3.4804,-3.4739,-3.4739,-3.4739,-3.4739,-3.4739,-3.3752,-3.2867,-3.208,-3.1074,-3.0028,-2.8928,-2.8597,-2.8226,-3.4349,-3.6259,-3.8488,-4.0993,-4.2615,-4.4047,-4.5728,-4.5834,-4.5585,-4.5621,-4.5965,-4.6128,-4.5711,-4.5604,-4.5445,-4.502,-4.4546,-4.4074,0.0,0.0,0.0,0.0,0.0,0.0,0.0,0.0,0.0,0.0,0.0,0.0,0.0,-4.0907,-4.0893,-4.0902,-4.0872,-4.0826,-4.0794,-4.0802,-4.0809,-4.0797,-4.0797,-4.0797,-4.0797,-4.0733,-4.0666,-4.0598,-4.0561,-4.0531,-4.0496,-4.0496,-4.05,-4.0487,-4.0314,-4.0129,-3.9908,-3.9532,-3.9245,-3.9021,-3.8807,-3.8719,-3.8707,-3.8707,-3.8707,-3.8707,-3.8707,-3.8562,-3.8399,-3.8399,-3.8305,-3.8157,-3.7985,-3.7792,-3.7541,-3.7185,-3.6733,-3.6297,-3.5954,-3.5822,-3.5778,-3.5711,-3.5526,-3.5344,-3.5314,-3.5065,-3.4899,-3.4899,-3.4899,-3.4899,-3.4899,-3.4899,-3.4899,-3.4899,-3.4899,-3.4899,-3.4899,-3.4899,-3.4899,-3.4899,-3.4763,-3.4691,-3.4691,-3.457,-3.4382,-3.4069,-3.35,-3.264,-3.1468,-3.089,-3.0005,-2.8881,-2.8653,-2.8308,-3.4196,-3.613,-3.8529,-4.2229,-4.3264,-4.3754,-4.5315,-4.5149,-4.4679,-4.4685,-4.5262,-4.5543,-4.4802,-4.4674,-4.4439,-4.372,-4.3475,0.0,0.0,0.0,0.0,0.0,0.0,0.0,0.0,0.0,0.0,0.0,0.0,0.0,-4.0907,-4.0907,-4.0898,-4.0893,-4.0752,-4.0648,-4.0593,-4.0432,-4.0357,-4.0352,-4.0507,-4.0584,-4.0565,-4.0514,-4.0532,-4.0607,-4.0603,-4.0565,-4.0496,-4.0496,-4.0496,-4.0481,-4.0386,-4.0205,-3.9982,-3.9644,-3.9363,-3.9087,-3.8862,-3.8765,-3.8707,-3.8707,-3.8707,-3.8707,-3.8707,-3.8562,-3.8415,-3.8399,-3.8322,-3.8191,-3.8036,-3.788,-3.7667,-3.7357,-3.6974,-3.6609,-3.6335,-3.6148,-3.6019,-3.5866,-3.56,-3.535,-3.5245,-3.5041,-3.4899,-3.4899,-3.4899,-3.4899,-3.4899,-3.4899,-3.4899,-3.4899,-3.4899,-3.4899,-3.4899,-3.4899,-3.4899,-3.4875,-3.4739,-3.4659,-3.4618,-3.4374,-3.3933,-3.3297,-3.3071,-3.2237,-3.081,-3.0523,-2.987,-2.8904,-2.8756,-2.847,-3.4041,-3.6978,-3.9695,-4.1019,-4.1861,-4.2667,-4.3696,-4.3841,-4.3773,-4.3763,-4.3919,-4.3983,-4.3813,-4.3772,-4.3743,-4.362,-4.2964,0.0,0.0,0.0,0.0,0.0,0.0,0.0,0.0,0.0,0.0,0.0,-4.0907,0.0,-4.0907,-4.0907,-4.0907,-4.0903,-4.016,-3.9772,-3.976,-3.8952,-3.8551,-3.856,-3.9307,-3.9675,-3.9675,-3.9649,-3.9998,-4.0607,-4.0603,-4.0565,-4.0496,-4.0496,-4.0496,-4.0508,-4.0491,-4.0316,-4.0061,-3.9777,-3.9477,-3.9142,-3.8892,-3.8765,-3.8707,-3.8707,-3.8707,-3.8707,-3.8707,-3.8609,-3.8478,-3.8415,-3.8354,-3.8239,-3.8053,-3.7984,-3.7897,-3.7685,-3.7541,-3.7298,-3.6693,-3.6406,-3.6216,-3.6092,-3.5667,-3.5245,-3.4994,-3.4923,-3.4899,-3.4899,-3.4899,-3.4899,-3.4899,-3.4899,-3.4899,-3.4899,-3.4899,-3.4899,-3.4899,-3.4899,-3.4851,-3.4715,-3.4594,-3.4472,-3.4349,-3.4101,-3.3611,-3.2885,-3.2297,-3.1485,-3.0472,-2.9796,-2.927,-2.8904,-2.8756,-2.8558,-3.3142,-3.5731,-3.8116,-4.0423,-4.126,-4.1878,-4.3236,-4.3194,-4.2864,-4.2863,-4.2503,-4.2341,-4.2847,-4.2902,-4.2718,-4.2279,-4.1883,0.0,0.0,0.0,0.0,0.0,0.0,0.0,0.0,0.0,0.0,0.0,-4.0907,-4.0907,-4.0907,-4.048,-4.0228,-4.0228,-3.9383,-3.8918,-3.8874,-3.8456,-3.8244,-3.8193,-3.8586,-3.876,-3.876,-3.876,-3.9187,-3.9939,-3.993,-3.9887,-3.9861,-4.0304,-4.0496,-4.0489,-4.0499,-4.037,-4.0129,-3.9851,-3.9551,-3.9224,-3.895,-3.8795,-3.8707,-3.8707,-3.8707,-3.8707,-3.8707,-3.8609,-3.8494,-3.8415,-3.8336,-3.8274,-3.8139,-3.8053,-3.7984,-3.7897,-3.7757,-3.7577,-3.7281,-3.6935,-3.655,-3.6028,-3.56,-3.5222,-3.4947,-3.4899,-3.4899,-3.4899,-3.4899,-3.4899,-3.4899,-3.4899,-3.4899,-3.4899,-3.4899,-3.4899,-3.4899,-3.4899,-3.4851,-3.4707,-3.457,-3.4448,-3.43,-3.4126,-3.3652,-3.2884,-3.2096,-3.1246,-3.041,-2.9655,-2.9198,-2.9013,-2.8873,-2.8685,-3.2047,-3.4138,-3.6252,-3.9017,-3.9863,-4.0443,-4.2157,-4.2069,-4.1712,-4.193,-4.1443,-4.1202,-4.1929,-4.2,-4.1776,-4.1172,-4.1075,0.0,0.0,0.0,0.0,0.0,0.0,0.0,0.0,0.0,0.0,0.0,0.0,-4.0597,-4.0597,-3.982,-3.9373,-3.9373,-3.8518,-3.8043,-3.7996,-3.7749,-3.761,-3.758,-3.7767,-3.7864,-3.7864,-3.7864,-3.8208,-3.8775,-3.8987,-3.9157,-3.935,-3.9938,-4.0323,-4.0489,-4.0495,-4.0388,-4.0177,-3.9916,-3.9592,-3.9259,-3.9021,-3.884,-3.8707,-3.8707,-3.8707,-3.8707,-3.8707,-3.8624,-3.8544,-3.843,-3.8368,-3.8323,-3.8207,-3.814,-3.8053,-3.8053,-3.7897,-3.7739,-3.7559,-3.7185,-3.6673,-3.5893,-3.5503,-3.5222,-3.4947,-3.4899,-3.4899,-3.4899,-3.4899,-3.4899,-3.4899,-3.4899,-3.4899,-3.4899,-3.4899,-3.4899,-3.4899,-3.4899,-3.4828,-3.4667,-3.4546,-3.4423,-3.425,-3.4126,-3.3758,-3.3158,-3.2111,-3.1166,-3.0386,-2.9632,-2.919,-2.9098,-2.8967,-2.8779,-3.0897,-3.2801,-3.4988,-3.5929,-3.6742,-3.7755,-3.9494,-3.9871,-4.0077,-4.0894,-4.1035,-4.1015,-4.1058,-4.1077,-4.1058,-4.1019,-4.1019,0.0,0.0,0.0,0.0,0.0,0.0,0.0,0.0,0.0,0.0,0.0,0.0,-3.9757,-3.9757,-3.8946,-3.8464,-3.8464,-3.7625,-3.7169,-3.7166,-3.628,-3.5833,-3.5839,-3.6593,-3.698,-3.698,-3.698,-3.6982,-3.7069,-3.7849,-3.86,-3.9309,-3.935,-3.9804,-4.0496,-4.0496,-4.0383,-4.0187,-3.9972,-3.9637,-3.9272,-3.9064,-3.8885,-3.8707,-3.8707,-3.8707,-3.8707,-3.8707,-3.8692,-3.8643,-3.8465,-3.8399,-3.8368,-3.8224,-3.8192,-3.8192,-3.8192,-3.8088,-3.781,-3.7184,-3.6814,-3.6409,-3.5739,-3.5435,-3.5222,-3.4947,-3.4899,-3.4899,-3.4899,-3.4899,-3.4899,-3.4899,-3.4899,-3.4899,-3.4899,-3.4899,-3.4899,-3.4899,-3.4899,-3.4804,-3.4521,-3.4497,-3.4374,-3.4126,-3.3975,-3.3882,-3.385,-3.2237,-3.1078,-3.0402,-2.9539,-2.9098,-2.9098,-2.8967,-2.8779,-2.9726,-3.109,-3.2679,-3.4644,-3.5727,-3.6634,-3.7822,-3.8498,-3.9116,-3.9995,-4.0161,-4.0328,-4.0837,-4.0975,-4.0996,-4.0996,-4.0996,0.0,0.0,0.0,0.0,0.0,0.0,0.0,0.0,0.0,0.0,0.0,0.0,0.0,-3.8907,-3.8033,-3.7566,-3.7566,-3.6712,-3.6272,-3.6269,-3.5888,-3.5698,-3.5692,-3.5985,-3.6129,-3.6129,-3.6129,-3.6124,-3.6132,-3.6393,-3.6942,-3.7788,-3.8849,-3.9477,-3.9785,-4.0304,-4.04,-4.0243,-4.0032,-3.9747,-3.9383,-3.9156,-3.8935,-3.8765,-3.8704,-3.8707,-3.8707,-3.8707,-3.8707,-3.8658,-3.8465,-3.8399,-3.8368,-3.8224,-3.8209,-3.8175,-3.8056,-3.7916,-3.7667,-3.7126,-3.6751,-3.636,-3.5734,-3.5435,-3.5222,-3.4947,-3.4899,-3.4899,-3.4899,-3.4899,-3.4899,-3.4899,-3.4899,-3.4899,-3.4899,-3.4899,-3.4899,-3.4899,-3.4899,-3.4828,-3.4643,-3.4546,-3.4423,-3.4226,-3.4101,-3.4025,-3.4025,-3.2866,-3.1836,-3.1046,-2.9737,-2.9098,-2.9114,-2.8928,-2.874,-2.9219,-3.0194,-3.1321,-3.3338,-3.4236,-3.4915,-3.6061,-3.6962,-3.7809,-3.8653,-3.9064,-3.944,-3.9956,-4.0332,-4.0641,-4.0913,-4.0971,0.0,0.0,0.0,0.0,0.0,0.0,0.0,0.0,0.0,0.0,0.0,0.0,0.0,-3.8425,-3.7294,-3.6653,-3.6653,-3.6105,-3.5806,-3.5803,-3.5766,-3.5723,-3.5707,-3.5711,-3.5695,-3.5704,-3.5704,-3.5704,-3.5704,-3.5637,-3.6054,-3.6896,-3.7998,-3.8792,-3.9361,-3.99,-4.0186,-4.027,-4.0101,-3.9824,-3.9502,-3.9245,-3.9017,-3.8822,-3.8765,-3.8723,-3.8707,-3.8707,-3.8707,-3.8658,-3.8465,-3.8399,-3.8368,-3.8224,-3.8209,-3.8158,-3.7934,-3.781,-3.7577,-3.7145,-3.6771,-3.636,-3.5778,-3.5503,-3.5251,-3.5018,-3.4923,-3.4899,-3.4899,-3.4899,-3.4899,-3.4899,-3.4899,-3.4899,-3.4899,-3.4899,-3.4899,-3.4899,-3.4899,-3.4851,-3.4707,-3.4635,-3.4497,-3.4374,-3.425,-3.4176,-3.4176,-3.3206,-3.2302,-3.1461,-3.0109,-2.9335,-2.9114,-2.8928,-2.8755,0.0,0.0,0.0,-3.1851,-3.2074,-3.2521,-3.4166,-3.5226,-3.6086,-3.6903,-3.7763,-3.8369,-3.841,-3.9082,-3.9917,-4.0694,-4.0869,0.0,0.0,0.0,0.0,0.0,0.0,0.0,0.0,0.0,0.0,0.0,0.0,-3.8387,-3.8367,-3.6731,-3.5795,-3.5795,-3.5795,-3.5806,-3.5803,-3.5803,-3.5776,-3.5707,-3.5707,-3.5692,-3.5704,-3.5704,-3.5704,-3.5704,-3.5637,-3.6046,-3.6775,-3.678,-3.7767,-3.9265,-3.9284,-3.9698,-4.0298,-4.0139,-3.9897,-3.9575,-3.9376,-3.9129,-3.8896,-3.8822,-3.8747,-3.8707,-3.8707,-3.8707,-3.8658,-3.8465,-3.8399,-3.8368,-3.8224,-3.8209,-3.8158,-3.7951,-3.7792,-3.7595,-3.7204,-3.6856,-3.6468,-3.591,-3.56,-3.5333,-3.5135,-3.4994,-3.4899,-3.4899,-3.4899,-3.4899,-3.4899,-3.4899,-3.4899,-3.4899,-3.4899,-3.4899,-3.4899,-3.4899,-3.4835,-3.4715,-3.4691,-3.4643,-3.4521,-3.4374,-3.43,-3.43,-3.3272,-3.2383,-3.1638,-3.0672,-2.9817,-2.9098,-2.8967,-2.8779,-2.9355,0.0,0.0,0.0,0.0,0.0,0.0,-3.393,-3.521,-3.6067,-3.6888,-3.7653,-3.8289,-3.86,-3.8829,-3.9067,-4.0111,0.0,0.0,0.0,0.0,0.0,0.0,0.0,0.0,0.0,0.0,0.0,-3.9023,-3.8115,-3.7489,-3.6397,-3.5795,-3.5795,-3.5795,-3.5791,-3.5806,-3.5808,-3.5766,-3.5694,-3.5698,-3.5692,-3.5704,-3.5704,-3.5704,-3.5704,-3.5679,-3.578,-3.5977,-3.6549,-3.742,-3.8411,-3.9053,-3.9733,-4.0362,-4.0289,-4.003,-3.9724,-3.9495,-3.9251,-3.895,-3.8837,-3.8747,-3.8707,-3.8707,-3.8707,-3.8658,-3.8465,-3.8399,-3.8368,-3.8224,-3.8209,-3.8157,-3.802,-3.7916,-3.7775,-3.7522,-3.7279,-3.6893,-3.6156,-3.5827,-3.5577,-3.5291,-3.5111,-3.5018,-3.4923,-3.4899,-3.4899,-3.4899,-3.4899,-3.4899,-3.4899,-3.4899,-3.4899,-3.4899,-3.4899,-3.4899,-3.4851,-3.4739,-3.4691,-3.4643,-3.4423,-3.43,-3.43,-3.3831,-3.3221,-3.253,-3.0959,-2.9817,-2.9098,-2.8967,-2.8842,-3.0351,-3.043,-3.0254,-3.0762,0.0,0.0,-3.1594,-3.2606,-3.3702,0.0,-3.4951,-3.5678,-3.6173,-3.6845,-3.7327,-3.7327,-3.876,0.0,0.0,0.0,0.0,0.0,0.0,0.0,0.0,-4.0907,0.0,-3.9757,-3.8887,-3.7858,-3.6615,-3.6086,-3.5795,-3.5795,-3.5795,-3.5795,-3.5795,-3.5801,-3.578,-3.5708,-3.5694,-3.5702,-3.5704,-3.5704,-3.5704,-3.5704,-3.5704,-3.5662,-3.5635,-3.6119,-3.6767,-3.7546,-3.8411,-3.9238,-3.9925,-4.02,-4.0119,-3.9848,-3.9623,-3.9324,-3.9021,-3.8896,-3.878,-3.8707,-3.8707,-3.8707,-3.8658,-3.8496,-3.8401,-3.832,-3.8242,-3.8209,-3.8157,-3.8036,-3.7967,-3.7898,-3.7757,-3.7594,-3.7261,-3.6577,-3.6199,-3.591,-3.5605,-3.5344,-3.5152,-3.4994,-3.4947,-3.4899,-3.4899,-3.4899,-3.4899,-3.4899,-3.4899,-3.4899,-3.4899,-3.4899,-3.4899,-3.4899,-3.4828,-3.4787,-3.4787,-3.457,-3.4448,-3.4374,-3.4126,-3.3561,-3.2736,-3.138,-3.0149,-2.9098,-2.9013,-2.8959,-3.1914,-3.1699,-3.1035,-3.1035,-3.0976,0.0,-3.0895,-3.1529,-3.2093,0.0,-3.2732,-3.3293,-3.3291,-3.4519,-3.5515,-3.5515,-3.6977,0.0,0.0,0.0,0.0,0.0,0.0,0.0,-4.0771,-4.0771,-4.0422,-3.9625,-3.8751,-3.7547,-3.5892,-3.5795,-3.5795,-3.5795,-3.5795,-3.5795,-3.5795,-3.5795,-3.5773,-3.5708,-3.5708,-3.5703,-3.569,-3.5709,-3.5704,-3.5704,-3.5704,-3.5648,-3.5601,-3.559,-3.6036,-3.6796,-3.7661,-3.8497,-3.9287,-4.0027,-4.0158,-3.9943,-3.967,-3.9363,-3.9059,-3.8935,-3.8792,-3.8707,-3.8707,-3.8707,-3.8658,-3.8525,-3.8401,-3.829,-3.8225,-3.8209,-3.8157,-3.8053,-3.8018,-3.8002,-3.7951,-3.7828,-3.7595,-3.7111,-3.6658,-3.6284,-3.5972,-3.5605,-3.5291,-3.5111,-3.4994,-3.4899,-3.4899,-3.4899,-3.4899,-3.4899,-3.4899,-3.4899,-3.4899,-3.4899,-3.4899,-3.4899,-3.4899,-3.4899,-3.4899,-3.4763,-3.4643,-3.4521,-3.425,-3.3595,-3.2529,-3.1778,-3.0648,-2.9225,-2.9225,-2.9177,-3.3066,-3.2578,-3.1934,-3.1874,-3.1386,0.0,-3.0897,-3.1513,-3.2101,0.0,-3.2744,-3.3304,-3.3306,-3.3563,-3.378,-3.3789,-3.5212,0.0,0.0,0.0,0.0,0.0,0.0,0.0,-3.9994,-3.9932,-3.9587,-3.8717,-3.7858,-3.6906,-3.5853,-3.5795,-3.5795,-3.5795,-3.5795,-3.5795,-3.5795,-3.5795,-3.5782,-3.5775,-3.5737,-3.5689,-3.5697,-3.5695,-3.5704,-3.5704,-3.5704,-3.5648,-3.5601,-3.559,-3.6068,-3.685,-3.7668,-3.8462,-3.9216,-3.9999,-4.0109,-3.9815,-3.9599,-3.9298,-3.8993,-3.8848,-3.8765,-3.8707,-3.8707,-3.8707,-3.8658,-3.8481,-3.8352,-3.829,-3.8225,-3.8209,-3.8192,-3.8157,-3.8157,-3.8157,-3.814,-3.8037,-3.7897,-3.7739,-3.7206,-3.662,-3.6139,-3.5783,-3.5458,-3.5135,-3.4994,-3.4899,-3.4899,-3.4899,-3.4899,-3.4899,-3.4899,-3.4899,-3.4899,-3.4899,-3.4899,-3.4899,-3.4899,-3.4899,-3.4899,-3.4763,-3.4691,-3.4667,-3.4399,-3.3785,-3.281,-3.1852,-3.0902,-2.9998,-2.9998,-2.9674,-3.3926,-3.3437,-3.2793,-3.2754,-3.2148,0.0,0.0,-3.1479,-3.1451,-3.1442,-3.176,-3.2058,-3.2049,-3.2401,-3.2692,-3.2668,-3.3697,0.0,0.0,0.0,0.0,0.0,0.0,0.0,-3.9082,-3.9043,-3.8693,-3.7819,-3.6945,-3.6261,-3.5814,-3.5795,-3.5795,-3.5795,-3.5795,-3.5795,-3.5795,-3.5795,-3.5801,-3.5799,-3.577,-3.5723,-3.5707,-3.5692,-3.5701,-3.5704,-3.5704,-3.5679,-3.5643,-3.5616,-3.5836,-3.6273,-3.7048,-3.7809,-3.8591,-3.9367,-3.9747,-3.9826,-3.9587,-3.9272,-3.8983,-3.8833,-3.8747,-3.8707,-3.8707,-3.8707,-3.8658,-3.8465,-3.8385,-3.8322,-3.8242,-3.8209,-3.8209,-3.8209,-3.8209,-3.8209,-3.8209,-3.8157,-3.8054,-3.7916,-3.7558,-3.7054,-3.6454,-3.5985,-3.56,-3.5251,-3.5018,-3.4899,-3.4899,-3.4899,-3.4899,-3.4899,-3.4899,-3.4899,-3.4899,-3.4899,-3.4899,-3.4899,-3.4899,-3.4899,-3.4899,-3.4851,-3.478,-3.4691,-3.4423,-3.4038,-3.3499,-3.293,-3.1845,-3.0299,-3.0228,-2.9801,-3.4766,-3.4316,-3.3652,-3.3652,-3.293,-3.2187,0.0,0.0,0.0,-3.0812,-3.0827,0.0,0.0,0.0,0.0,0.0,0.0,0.0,0.0,0.0,0.0,0.0,0.0,0.0,0.0,-3.7892,-3.7601,-3.6906,-3.6203,-3.5795,-3.5795,-3.5795,-3.5795,-3.5795,-3.5795,-3.5795,-3.5795,-3.5795,-3.5806,-3.5808,-3.5803,-3.5761,-3.5723,-3.5713,-3.5697,-3.5695,-3.5709,-3.5704,-3.5684,-3.5622,-3.5598,-3.5669,-3.6419,-3.7079,-3.7747,-3.8625,-3.9232,-3.9577,-3.947,-3.9219,-3.8935,-3.8822,-3.875,-3.8707,-3.8707,-3.8707,-3.8658,-3.8465,-3.8399,-3.8368,-3.8224,-3.8209,-3.8209,-3.8209,-3.8209,-3.8209,-3.8209,-3.8209,-3.8141,-3.7934,-3.7739,-3.7411,-3.6756,-3.6199,-3.5739,-3.5412,-3.5135,-3.497,-3.4947,-3.4947,-3.4923,-3.4899,-3.4899,-3.4899,-3.4899,-3.4899,-3.4899,-3.4899,-3.4899,-3.4899,-3.4899,-3.4899,-3.4851,-3.4691,-3.4497,-3.43,-3.4151,-3.4,-3.285,-3.0816,-3.0553,-3.003,-3.582,-3.5215,-3.4551,-3.4551,-3.3379,-3.2187,-3.2128,0.0,-3.0896,-3.0894,0.0,0.0,0.0,0.0,0.0,0.0,0.0,0.0,0.0,0.0,0.0,0.0,0.0,0.0,0.0,0.0,-3.6045,-3.5969,-3.5853,-3.5795,-3.5795,-3.5795,-3.5795,-3.5795,-3.5795,-3.5795,-3.5795,-3.5795,-3.5795,-3.5791,-3.5793,-3.5799,-3.579,-3.5728,-3.5707,-3.5702,-3.5695,-3.5704,-3.5684,-3.5622,-3.5598,-3.5669,-3.6419,-3.6692,-3.6824,-3.828,-3.8677,-3.8556,-3.899,-3.9003,-3.8807,-3.8735,-3.8707,-3.8707,-3.8707,-3.8707,-3.8658,-3.8465,-3.8399,-3.8368,-3.8224,-3.8209,-3.8209,-3.8209,-3.8209,-3.8209,-3.8209,-3.8209,-3.8141,-3.7934,-3.7793,-3.7486,-3.6876,-3.6371,-3.5963,-3.5622,-3.5389,-3.5222,-3.5088,-3.5065,-3.5018,-3.4923,-3.4899,-3.4899,-3.4899,-3.4899,-3.4899,-3.4899,-3.4899,-3.4899,-3.4899,-3.4899,-3.4851,-3.4691,-3.4667,-3.4521,-3.4275,-3.4151,-3.3448,-3.2265,-3.1579,-3.0839,-3.5996,0.0,0.0,0.0,0.0,0.0,-3.2851,0.0,-3.0898,0.0,0.0,0.0,0.0,0.0,0.0,0.0,-3.0598,0.0,0.0,0.0,0.0,0.0,0.0,0.0,0.0,0.0,0.0,0.0,0.0,-3.5048,-3.5041,-3.5523,-3.5795,-3.5795,-3.5795,-3.5795,-3.5795,-3.5795,-3.5795,-3.5795,-3.5806,-3.5793,-3.5799,-3.5728,-3.5703,-3.5707,-3.5701,-3.5704,-3.5684,-3.5622,-3.5598,-3.5624,-3.5853,-3.6148,-3.6506,-3.7081,-3.7411,-3.7634,-3.821,-3.8275,-3.8184,-3.8573,-3.8707,-3.8707,-3.8707,-3.8707,-3.8658,-3.8465,-3.8399,-3.8368,-3.8224,-3.8209,-3.8209,-3.8209,-3.8209,-3.8209,-3.8209,-3.8209,-3.814,-3.7985,-3.7881,-3.7685,-3.7318,-3.6776,-3.6262,-3.5888,-3.5689,-3.5509,-3.5304,-3.5281,-3.5234,-3.5135,-3.5065,-3.5018,-3.5018,-3.4947,-3.4899,-3.4899,-3.4899,-3.4899,-3.4899,-3.4899,-3.4875,-3.4828,-3.4739,-3.4594,-3.4423,-3.4275,-3.3864,-3.317,-3.2392,-3.1371,-3.5996,0.0,0.0,0.0,0.0,0.0,0.0,0.0,0.0,0.0,0.0,0.0,0.0,0.0,-3.0807,-3.0806,0.0,-2.966,0.0,0.0,0.0,0.0,0.0,0.0,0.0,0.0,0.0,0.0,0.0,0.0,-3.4501,-3.534,-3.5806,-3.5806,-3.5791,-3.5795,-3.5795,-3.5795,-3.5795,-3.5795,-3.5795,-3.5801,-3.5799,-3.5737,-3.5694,-3.5707,-3.5701,-3.5704,-3.5684,-3.5622,-3.5598,-3.5585,-3.5422,-3.5641,-3.6018,-3.6093,-3.6333,-3.6695,-3.7541,-3.7853,-3.7993,-3.8521,-3.8707,-3.8707,-3.8707,-3.8707,-3.8658,-3.8481,-3.8415,-3.8385,-3.8257,-3.8225,-3.8209,-3.8209,-3.8209,-3.8209,-3.8209,-3.8209,-3.8157,-3.8036,-3.795,-3.7863,-3.7649,-3.7129,-3.6615,-3.6284,-3.611,-3.5915,-3.5694,-3.5605,-3.5532,-3.5406,-3.5251,-3.5158,-3.5088,-3.5018,-3.4947,-3.4899,-3.4899,-3.4899,-3.4899,-3.4899,-3.4899,-3.4899,-3.4787,-3.4667,-3.4497,-3.4399,-3.4126,-3.3678,-3.2914,-3.1913,0.0,0.0,0.0,-3.5996,0.0,0.0,0.0,0.0,-3.1133,0.0,0.0,0.0,0.0,-3.1405,-3.0793,-3.0796,-3.0722,0.0,0.0,0.0,0.0,0.0,0.0,0.0,0.0,0.0,0.0,0.0,0.0,0.0,-3.4492,-3.5324,-3.5803,-3.5803,-3.5801,-3.5795,-3.5795,-3.5795,-3.5795,-3.5795,-3.5795,-3.5801,-3.5799,-3.5737,-3.5694,-3.5707,-3.5701,-3.5704,-3.5684,-3.5622,-3.5598,-3.5585,-3.5374,-3.5195,-3.5123,-3.5709,-3.5751,-3.5739,-3.7123,-3.8066,-3.867,-3.8689,-3.8707,-3.8707,-3.8707,-3.8707,-3.8673,-3.8544,-3.8446,-3.8366,-3.8305,-3.8241,-3.8209,-3.8209,-3.8209,-3.8209,-3.8209,-3.8209,-3.8157,-3.8036,-3.8001,-3.7932,-3.7739,-3.7374,-3.7032,-3.688,-3.6652,-3.6423,-3.6301,-3.6088,-3.5888,-3.5622,-3.547,-3.5327,-3.5128,-3.5105,-3.5041,-3.4899,-3.4899,-3.4899,-3.4899,-3.4899,-3.4899,-3.4899,-3.4899,-3.4763,-3.4497,-3.4497,-3.4226,-3.3678,-3.3015,-3.2538,0.0,0.0,-3.6719,-3.6133,0.0,0.0,0.0,0.0,0.0,0.0,0.0,0.0,0.0,-3.2265,-3.1656,-3.1667,-3.0669,-2.9795,0.0,0.0,0.0,0.0,0.0,0.0,0.0,0.0,0.0,0.0,-3.2298,0.0,0.0,-3.4477,-3.5208,-3.578,-3.5808,-3.5801,-3.5795,-3.5795,-3.5795,-3.5795,-3.5801,-3.5808,-3.5799,-3.5723,-3.5698,-3.5707,-3.5701,-3.5704,-3.5684,-3.5622,-3.5598,-3.5585,-3.5374,-3.5203,-3.5063,-3.5046,-3.4862,-3.4835,-3.6242,-3.725,-3.7991,-3.8524,-3.8707,-3.8707,-3.8707,-3.8707,-3.8673,-3.8525,-3.8462,-3.8366,-3.8323,-3.8241,-3.8209,-3.8209,-3.8209,-3.8209,-3.8209,-3.8209,-3.8192,-3.814,-3.8122,-3.8105,-3.8037,-3.7827,-3.7559,-3.7204,-3.7087,-3.693,-3.6673,-3.6492,-3.6322,-3.6088,-3.5822,-3.5554,-3.5327,-3.5111,-3.4947,-3.4899,-3.4899,-3.4899,-3.4899,-3.4899,-3.4899,-3.4899,-3.4899,-3.478,-3.4497,-3.4497,-3.4226,-3.3694,-3.3454,-3.2975,-3.791,-3.7539,0.0,-3.6601,-3.5156,0.0,-3.457,0.0,0.0,0.0,0.0,0.0,0.0,-3.3144,-3.2459,-3.2142,-3.1154,-3.0306,0.0,-2.9592,0.0,0.0,0.0,-3.0598,0.0,0.0,-3.0607,-3.0601,-3.1395,0.0,0.0,0.0,-3.4715,-3.5272,-3.5639,-3.5808,-3.5801,-3.5801,-3.5801,-3.5801,-3.578,-3.5766,-3.5757,-3.5723,-3.5702,-3.5692,-3.5695,-3.5704,-3.5684,-3.5633,-3.561,-3.5585,-3.5422,-3.527,-3.5088,-3.4734,-3.4588,-3.4727,-3.5878,-3.6831,-3.7639,-3.8432,-3.8707,-3.8707,-3.8707,-3.8707,-3.8673,-3.8609,-3.8512,-3.8415,-3.8336,-3.829,-3.8242,-3.8209,-3.8209,-3.8209,-3.8209,-3.8209,-3.8209,-3.8209,-3.8209,-3.8209,-3.8209,-3.814,-3.795,-3.7595,-3.7484,-3.7317,-3.7108,-3.6893,-3.6652,-3.6447,-3.6127,-3.5795,-3.5396,-3.5071,-3.4899,-3.4899,-3.4899,-3.4899,-3.4899,-3.4899,-3.4899,-3.4899,-3.4899,-3.478,-3.4497,-3.4497,-3.425,-3.3771,-3.372,-3.3367]},{"header":{"parameterUnit":"m.s-1","parameterCategory":1,"la1":30.6,"la2":29.2853,"lo1":-89.7004,"lo2":-87.6739,"dy":0.0162,"dx":0.0183,"nx":112,"ny":82,"refTime":"2024-07-04T06:00:00:Z","depth":0,"parameterNumber":3,"parameterNumberName":"V-component_of_WINDS"},"data":[0.0,0.0,0.0,0.0,0.0,0.0,0.0,0.0,0.0,0.0,0.0,0.0,0.0,0.0,0.0,0.0,0.0,0.0,0.0,0.0,0.0,0.0,0.0,0.0,0.0,0.0,0.0,0.0,0.0,0.0,0.0,0.0,0.0,0.0,0.0,0.0,0.0,0.0,0.0,0.0,0.0,0.0,0.0,0.0,0.0,0.0,0.0,0.0,0.0,0.0,0.0,0.0,0.0,0.0,0.0,0.0,0.0,0.0,0.0,0.0,0.0,0.0,0.0,0.0,0.0,0.0,0.0,0.0,0.0,0.0,0.0,0.0,0.0,0.0,0.0,0.0,0.0,0.0,0.0,0.0,0.0,0.0,0.0,0.0,0.0,0.0,0.0,0.0,0.0,0.0,-0.9336,-0.9955,-1.0653,-1.1111,-1.1149,-1.0807,-1.0374,-0.9899,0.0,0.0,0.0,0.0,0.0,0.0,0.0,0.0,0.0,0.0,0.0,0.0,0.0,0.0,0.0,0.0,0.0,0.0,0.0,0.0,0.0,0.0,0.0,0.0,0.0,0.0,0.0,0.0,0.0,0.0,0.0,0.0,0.0,0.0,0.0,0.0,0.0,0.0,0.0,0.0,0.0,0.0,0.0,0.0,0.0,0.0,0.0,0.0,0.0,0.0,0.0,0.0,0.0,0.0,0.0,0.0,0.0,0.0,0.0,0.0,0.0,0.0,0.0,0.0,0.0,0.0,0.0,0.0,0.0,0.0,0.0,0.0,0.0,0.0,0.0,0.0,0.0,0.0,0.0,0.0,0.0,0.0,0.0,0.0,0.0,0.0,0.0,0.0,0.0,0.0,0.0,0.0,0.0,0.0,0.0,0.0,0.0,0.0,0.0,0.0,0.0,0.0,0.0,0.0,-0.9474,-1.046,-1.0906,-1.1186,-1.1335,-1.0878,-1.0476,-1.0245,0.0,0.0,0.0,0.0,0.0,0.0,0.0,0.0,0.0,0.0,0.0,0.0,0.0,0.0,0.0,0.0,0.0,0.0,0.0,0.0,0.0,0.0,0.0,0.0,0.0,0.0,0.0,0.0,0.0,0.0,0.0,0.0,0.0,0.0,0.0,0.0,0.0,0.0,0.0,0.0,0.0,0.0,0.0,0.0,0.0,0.0,0.0,0.0,0.0,0.0,0.0,0.0,0.0,0.0,0.0,0.0,0.0,0.0,0.0,0.0,0.0,0.0,0.0,0.0,0.0,0.0,0.0,0.0,0.0,0.0,0.0,0.0,0.0,0.0,0.0,0.0,0.0,0.0,0.0,0.0,0.0,0.0,0.0,0.0,0.0,0.0,0.0,0.0,0.0,0.0,0.0,0.0,0.0,0.0,0.0,0.0,0.0,0.0,0.0,0.0,0.0,0.0,0.0,-0.9594,-1.0208,-1.0997,-1.1298,-1.1446,-1.1558,-1.1127,-1.0706,-1.0308,-0.979,0.0,0.0,0.0,0.0,0.0,0.0,0.0,0.0,0.0,0.0,0.0,0.0,0.0,0.0,0.0,0.0,0.0,0.0,0.0,0.0,0.0,0.0,0.0,0.0,0.0,0.0,0.0,0.0,0.0,0.0,0.0,0.0,0.0,0.0,0.0,0.0,0.0,0.0,0.0,0.0,0.0,0.0,0.0,0.0,0.0,0.0,0.0,0.0,0.0,0.0,0.0,0.0,0.0,0.0,0.0,0.0,0.0,0.0,0.0,0.0,0.0,0.0,0.0,0.0,0.0,0.0,0.0,0.0,0.0,0.0,0.0,0.0,0.0,0.0,0.0,0.0,0.0,0.0,0.0,0.0,0.0,0.0,0.0,0.0,0.0,0.0,0.0,0.0,0.0,0.0,0.0,0.0,0.0,0.0,0.0,0.0,0.0,0.0,0.0,0.0,0.0,0.0,-1.0165,-1.086,-1.1334,-1.1557,-1.1681,-1.1691,-1.1336,-1.0848,-1.0274,-0.9781,0.0,0.0,0.0,0.0,0.0,0.0,0.0,0.0,0.0,0.0,0.0,0.0,0.0,0.0,0.0,0.0,0.0,0.0,0.0,0.0,0.0,0.0,0.0,0.0,0.0,0.0,0.0,0.0,0.0,0.0,0.0,0.0,0.0,0.0,0.0,0.0,0.0,0.0,0.0,0.0,0.0,0.0,0.0,0.0,0.0,0.0,0.0,0.0,0.0,0.0,0.0,0.0,0.0,0.0,0.0,0.0,0.0,0.0,0.0,0.0,0.0,0.0,0.0,0.0,0.0,0.0,0.0,0.0,0.0,0.0,0.0,0.0,0.0,0.0,0.0,0.0,0.0,0.0,0.0,0.0,0.0,0.0,0.0,0.0,0.0,0.0,0.0,0.0,0.0,0.0,0.0,0.0,0.0,0.0,0.0,0.0,0.0,0.0,0.0,0.0,0.0,0.0,-1.0272,-1.0994,-1.1293,-1.1554,-1.1678,-1.1595,-1.1296,-1.083,-1.017,-0.9311,0.0,0.0,0.0,0.0,0.0,0.0,0.0,0.0,0.0,0.0,0.0,0.0,0.0,0.0,0.0,0.0,0.0,0.0,0.0,0.0,0.0,0.0,0.0,0.0,0.0,0.0,0.0,0.0,0.0,0.0,0.0,0.0,0.0,0.0,0.0,0.0,0.0,0.0,0.0,0.0,0.0,0.0,0.0,0.0,0.0,0.0,0.0,0.0,0.0,0.0,0.0,0.0,0.0,0.0,0.0,0.0,0.0,0.0,0.0,0.0,0.0,0.0,0.0,0.0,0.0,0.0,0.0,0.0,0.0,0.0,0.0,0.0,0.0,0.0,0.0,0.0,0.0,0.0,0.0,0.0,0.0,0.0,0.0,0.0,0.0,0.0,0.0,0.0,0.0,0.0,0.0,0.0,0.0,0.0,0.0,0.0,0.0,0.0,0.0,0.0,0.0,0.0,-1.043,-1.1197,-1.1446,-1.1833,-1.2002,-1.1784,-1.1327,-1.0757,-1.013,0.0,0.0,0.0,0.0,0.0,0.0,0.0,0.0,0.0,0.0,0.0,0.0,0.0,0.0,0.0,0.0,0.0,0.0,0.0,0.0,0.0,0.0,0.0,0.0,0.0,0.0,0.0,0.0,0.0,0.0,0.0,0.0,0.0,0.0,0.0,0.0,0.0,0.0,0.0,0.0,0.0,0.0,0.0,0.0,0.0,0.0,0.0,0.0,0.0,0.0,0.0,0.0,0.0,0.0,0.0,0.0,0.0,0.0,0.0,0.0,0.0,0.0,0.0,0.0,0.0,0.0,0.0,0.0,0.0,0.0,0.0,0.0,0.0,0.0,0.0,0.0,0.0,0.0,0.0,0.0,0.0,0.0,0.0,0.0,0.0,0.0,0.0,0.0,0.0,0.0,0.0,0.0,0.0,0.0,0.0,0.0,0.0,0.0,0.0,0.0,0.0,0.0,-0.9549,-1.0508,-1.1263,-1.1522,-1.1921,-1.2046,-1.1791,-1.1302,-1.0728,-1.0133,0.0,0.0,0.0,0.0,0.0,0.0,0.0,0.0,0.0,0.0,0.0,0.0,0.0,0.0,0.0,0.0,0.0,0.0,0.0,0.0,0.0,0.0,0.0,0.0,0.0,0.0,0.0,0.0,0.0,0.0,0.0,0.0,0.0,0.0,0.0,0.0,0.0,0.0,0.0,0.0,0.0,0.0,0.0,0.0,0.0,0.0,0.0,0.0,0.0,0.0,0.0,0.0,0.0,0.0,0.0,0.0,0.0,0.0,0.0,0.0,0.0,0.0,0.0,0.0,0.0,0.0,0.0,0.0,0.0,0.0,0.0,0.0,0.0,0.0,0.0,0.0,0.0,0.0,0.0,0.0,0.0,0.0,0.0,0.0,0.0,0.0,0.0,0.0,0.0,0.0,0.0,0.0,0.0,0.0,0.0,0.0,0.0,0.0,0.0,0.0,0.0,0.0,-0.9635,-1.0461,-1.1132,-1.1479,-1.1753,-1.1809,-1.1535,-1.1195,-1.0748,0.0,0.0,0.0,0.0,0.0,0.0,0.0,0.0,0.0,0.0,0.0,0.0,0.0,0.0,0.0,0.0,0.0,0.0,0.0,0.0,0.0,0.0,0.0,0.0,0.0,0.0,0.0,0.0,0.0,0.0,0.0,0.0,0.0,0.0,0.0,0.0,0.0,0.0,0.0,0.0,0.0,0.0,0.0,0.0,0.0,0.0,0.0,0.0,0.0,0.0,0.0,0.0,0.0,0.0,0.0,0.0,0.0,0.0,0.0,0.0,0.0,0.0,0.0,0.0,0.0,0.0,0.0,0.0,0.0,0.0,0.0,0.0,0.0,0.0,0.0,0.0,0.0,0.0,0.0,0.0,0.0,0.0,0.0,0.0,0.0,0.0,0.0,0.0,0.0,0.0,0.0,0.0,0.0,0.0,0.0,0.0,0.0,0.0,0.0,0.0,0.0,0.0,0.0,-1.0336,-1.1053,-1.167,-1.2161,-1.2454,-1.2513,-1.2228,-1.1679,-1.1175,-1.0745,0.0,0.0,0.0,0.0,0.0,0.0,0.0,0.0,0.0,0.0,0.0,0.0,0.0,0.0,0.0,0.0,0.0,0.0,0.0,0.0,0.0,0.0,0.0,0.0,0.0,0.0,0.0,0.0,0.0,0.0,0.0,0.0,0.0,0.0,0.0,0.0,0.0,0.0,0.0,0.0,0.0,0.0,0.0,0.0,0.0,0.0,0.0,0.0,0.0,0.0,0.0,0.0,0.0,0.0,0.0,0.0,0.0,0.0,0.0,0.0,0.0,0.0,0.0,0.0,0.0,0.0,0.0,0.0,0.0,0.0,0.0,0.0,0.0,0.0,0.0,0.0,0.0,0.0,0.0,0.0,0.0,0.0,0.0,0.0,0.0,0.0,0.0,0.0,0.0,0.0,0.0,0.0,0.0,0.0,0.0,0.0,0.0,0.0,0.0,0.0,0.0,0.0,-1.0905,-1.1567,-1.212,-1.2657,-1.2836,-1.2916,-1.2838,-1.2329,-1.186,-1.1511,0.0,0.0,0.0,0.0,0.0,0.0,0.0,0.0,0.0,0.0,0.0,0.0,0.0,0.0,0.0,0.0,0.0,0.0,0.0,0.0,0.0,0.0,0.0,0.0,0.0,0.0,0.0,0.0,0.0,0.0,0.0,0.0,0.0,0.0,0.0,0.0,0.0,0.0,0.0,0.0,0.0,0.0,0.0,0.0,0.0,0.0,0.0,0.0,0.0,0.0,0.0,0.0,0.0,0.0,0.0,0.0,0.0,0.0,0.0,0.0,0.0,0.0,0.0,0.0,0.0,0.0,0.0,0.0,0.0,0.0,0.0,0.0,0.0,0.0,0.0,0.0,0.0,0.0,0.0,0.0,0.0,0.0,0.0,0.0,0.0,0.0,0.0,0.0,0.0,0.0,0.0,0.0,0.0,0.0,0.0,0.0,0.0,0.0,0.0,0.0,0.0,0.0,-1.1471,-1.2093,-1.2599,-1.3067,-1.313,-1.3221,-1.339,-1.3101,-1.2726,-1.2331,0.0,0.0,0.0,0.0,0.0,0.0,0.0,0.0,0.0,0.0,0.0,0.0,0.0,0.0,0.0,0.0,0.0,0.0,0.0,0.0,0.0,0.0,0.0,0.0,0.0,0.0,0.0,0.0,0.0,0.0,0.0,0.0,0.0,0.0,0.0,0.0,0.0,0.0,0.0,0.0,0.0,0.0,0.0,0.0,0.0,0.0,0.0,0.0,0.0,0.0,0.0,0.0,0.0,0.0,0.0,0.0,0.0,0.0,0.0,0.0,-0.9401,0.0,0.0,0.0,0.0,0.0,0.0,0.0,0.0,0.0,0.0,0.0,0.0,0.0,0.0,0.0,0.0,0.0,0.0,0.0,0.0,0.0,0.0,0.0,0.0,0.0,0.0,0.0,0.0,0.0,0.0,0.0,0.0,0.0,0.0,0.0,0.0,0.0,0.0,0.0,0.0,0.0,-1.225,-1.2893,-1.3421,-1.3897,-1.4082,-1.4192,-1.4231,-1.39,-1.3483,-1.3095,-1.2169,0.0,0.0,0.0,0.0,0.0,0.0,0.0,0.0,0.0,0.0,0.0,0.0,0.0,0.0,0.0,0.0,0.0,0.0,0.0,0.0,0.0,0.0,0.0,0.0,0.0,0.0,0.0,0.0,0.0,0.0,0.0,0.0,0.0,0.0,0.0,0.0,0.0,0.0,0.0,0.0,0.0,0.0,0.0,0.0,0.0,0.0,0.0,0.0,0.0,0.0,0.0,0.0,0.0,0.0,0.0,0.0,0.0,0.0,0.0,0.0,-1.0031,0.0,0.0,0.0,0.0,0.0,0.0,0.0,0.0,0.0,0.0,0.0,0.0,0.0,0.0,0.0,0.0,0.0,0.0,0.0,0.0,0.0,0.0,0.0,0.0,0.0,0.0,0.0,0.0,0.0,0.0,0.0,0.0,0.0,0.0,0.0,0.0,0.0,0.0,0.0,0.0,-1.285,-1.3544,-1.4132,-1.4529,-1.4666,-1.4784,-1.4843,-1.4646,-1.4354,-1.3959,-1.3124,0.0,0.0,0.0,0.0,0.0,0.0,0.0,0.0,0.0,0.0,0.0,0.0,0.0,0.0,0.0,0.0,0.0,0.0,0.0,0.0,0.0,0.0,0.0,0.0,0.0,0.0,0.0,0.0,0.0,0.0,0.0,0.0,0.0,0.0,0.0,0.0,0.0,0.0,0.0,0.0,0.0,0.0,0.0,0.0,0.0,0.0,0.0,0.0,0.0,0.0,0.0,0.0,0.0,-1.0568,-1.1288,-1.1842,-1.2152,-1.2258,-1.2182,-1.1319,-1.0859,-1.0634,0.0,0.0,0.0,0.0,0.0,0.0,0.0,0.0,0.0,0.0,0.0,0.0,0.0,0.0,0.0,0.0,0.0,0.0,0.0,0.0,0.0,0.0,0.0,0.0,0.0,-1.2897,-1.2632,0.0,0.0,0.0,0.0,0.0,0.0,0.0,0.0,0.0,0.0,0.0,0.0,-1.3369,-1.4144,-1.4725,-1.5,-1.5059,-1.5117,-1.5235,-1.5235,-1.5052,-1.4665,-1.3883,-1.3186,0.0,0.0,0.0,0.0,0.0,0.0,0.0,0.0,0.0,0.0,0.0,0.0,0.0,0.0,0.0,0.0,0.0,0.0,0.0,0.0,0.0,0.0,0.0,0.0,0.0,0.0,0.0,0.0,0.0,0.0,0.0,0.0,0.0207,-0.0613,0.0,0.0,0.0,0.0,0.0,0.0,0.0,0.0,0.0,0.0,0.0,0.0,0.0,-0.6644,-0.7337,-0.8501,-0.9566,-1.0548,-1.13,-1.1876,-1.2315,-1.2818,-1.3033,-1.3025,-1.2834,0.0,-1.1324,-1.1008,0.0,0.0,0.0,0.0,0.0,0.0,0.0,0.0,0.0,0.0,0.0,0.0,0.0,0.0,0.0,0.0,0.0,0.0,0.0,0.0,0.0,0.0,-1.3909,-1.3958,-1.4106,-1.4204,0.0,-1.2981,-1.2179,-1.2446,-1.1893,0.0,0.0,0.0,0.0,0.0,0.0,0.0,-1.3951,-1.4648,-1.5117,-1.5156,-1.5284,-1.5362,-1.5362,-1.5362,-1.5206,-1.4814,-1.4272,-1.3649,-1.2886,-1.2297,0.0,0.0,0.0,0.0,0.0,0.0,0.0,0.0,0.0,0.0,0.0,0.0,0.0,0.0,0.0,0.0,0.0,0.0,0.0,0.0,0.0,0.0,0.0,0.0,0.0,0.0,0.0,0.0,0.0,0.0806,0.0388,-0.0372,-0.1018,-0.182,0.0,0.0,0.0,0.0,0.0,0.0,0.0,0.0,0.0,-0.5784,-0.6485,-0.7243,-0.8115,-0.9259,-1.0364,-1.1492,-1.2229,-1.2824,-1.3255,-1.3626,-1.3736,-1.3592,-1.3564,-1.3218,-1.2548,-1.1866,-1.1303,-1.0918,0.0,0.0,0.0,0.0,-1.019,-1.0491,-1.0346,-1.0316,0.0,0.0,0.0,0.0,0.0,0.0,0.0,0.0,0.0,0.0,0.0,0.0,0.0,-1.5325,-1.5454,-1.5522,-1.5522,-1.4957,-1.4252,0.0,-1.325,-1.2995,-1.2732,0.0,0.0,0.0,0.0,-1.3942,-1.4214,-1.4801,-1.5235,-1.5313,-1.5362,-1.541,-1.541,-1.541,-1.5332,-1.5146,-1.4475,-1.3938,-1.3603,-1.2691,-1.2028,0.0,0.0,0.0,0.0,0.0,0.0,0.0,0.0,0.0,0.0,0.0,0.0,0.0,0.0,0.0,0.0,0.0,0.0,0.0,0.0,0.0,0.0,0.0,0.0,0.0,0.0,0.0,0.0,0.09,0.0521,-0.0219,-0.0998,-0.1877,0.0,0.0,0.0,0.0,0.0,0.0,-0.5488,-0.5547,-0.5776,-0.6262,-0.6945,-0.7798,-0.8904,-0.9928,-1.109,-1.2294,-1.2964,-1.3499,-1.3931,-1.416,-1.4189,-1.4008,-1.4008,-1.3857,-1.3544,-1.2608,-1.203,-1.1742,-1.1238,-1.099,-1.096,-1.0695,-1.0767,-1.0966,-1.0767,-1.0827,-1.0948,-1.0689,0.0,-1.0501,-1.0627,0.0,0.0,0.0,0.0,-1.4097,-1.5119,-1.5572,-1.5892,-1.6271,-1.6412,-1.6447,-1.6447,-1.6352,-1.5891,0.0,-1.4405,-1.4196,-1.368,0.0,0.0,0.0,0.0,-1.4279,-1.4563,-1.4984,-1.5284,-1.5381,-1.541,-1.541,-1.541,-1.541,-1.541,-1.541,-1.4582,-1.4104,-1.4104,-1.2993,-1.232,-1.2203,0.0,0.0,0.0,0.0,0.0,0.0,0.0,0.0,0.0,0.0,0.0,0.0,0.0,0.0,0.0,0.0,0.0,0.0,0.0,0.0,0.0,0.0,0.0,0.0,0.0,0.0,0.0,0.0,0.0,-0.03,-0.1118,0.0,0.0,0.0,0.0,-0.5314,-0.538,-0.5499,-0.5855,-0.5877,-0.6164,-0.6723,-0.7474,-0.8464,-0.9706,-1.0669,-1.1707,-1.2791,-1.3227,-1.3624,-1.3931,-1.416,-1.4292,-1.428,-1.428,-1.4129,-1.3845,-1.329,-1.2898,-1.2596,-1.2065,-1.182,-1.179,-1.1531,-1.1597,-1.182,-1.1808,-1.1814,-1.1817,-1.1519,-1.1335,-1.1346,-1.1765,-1.2185,0.0,0.0,-1.4329,-1.5027,-1.5392,-1.6014,-1.6541,-1.6568,-1.6716,-1.6874,-1.6874,-1.6855,-1.6674,0.0,-1.5128,-1.4467,-1.446,0.0,-1.3479,-1.3969,-1.4251,-1.4563,-1.5099,-1.5294,-1.5381,-1.541,-1.541,-1.541,-1.541,-1.541,-1.541,-1.541,-1.4582,-1.4104,-1.4104,-1.3311,-1.2656,-1.2213,-1.2164,0.0,0.0,0.0,0.0,0.0,0.0,0.0,0.0,0.0,0.0,0.0,0.0,0.0,0.0,0.0,0.0,0.0,0.0,0.0,0.0,0.0,0.0,0.0,0.0,0.0,0.0,0.0,0.0,-0.0726,-0.1469,0.0,-0.3889,-0.4439,-0.4992,-0.565,-0.5714,-0.5836,-0.6121,-0.6138,-0.6432,-0.7043,-0.7828,-0.8788,-0.9917,-1.1107,-1.2127,-1.3001,-1.3491,-1.3877,-1.416,-1.425,-1.4298,-1.4298,-1.4298,-1.4244,-1.4141,-1.3954,-1.3622,-1.3169,-1.2632,-1.2421,-1.2373,-1.1904,-1.195,-1.2149,-1.194,-1.2116,-1.2422,-1.2534,-1.257,-1.2581,-1.2876,-1.3466,-1.4086,-1.4499,-1.5215,-1.5922,-1.6301,-1.6617,-1.6795,-1.6795,-1.6839,-1.6908,-1.6908,-1.6908,-1.6828,-1.6613,-1.6072,-1.5588,-1.5313,-1.4878,-1.4654,-1.4823,-1.4903,-1.4984,-1.5167,-1.5313,-1.541,-1.541,-1.541,-1.541,-1.541,-1.541,-1.5293,-1.5029,-1.4426,-1.3987,-1.3714,-1.3184,-1.2812,-1.2646,-1.235,-1.2057,0.0,0.0,0.0,0.0,0.0,0.0,0.0,0.0,0.0,0.0,0.0,0.0,0.0,0.0,0.0,0.0,0.0,0.0,0.0,0.0,0.0,0.0,0.0,0.0,0.0,0.0,-0.0165,-0.1411,-0.2132,-0.3133,-0.4518,-0.4971,-0.5405,-0.601,-0.6026,-0.6113,-0.6314,-0.6325,-0.6607,-0.7185,-0.7985,-0.8977,-1.0117,-1.1394,-1.2419,-1.3244,-1.369,-1.4022,-1.4298,-1.4298,-1.4298,-1.4298,-1.4298,-1.4298,-1.4298,-1.4298,-1.4093,-1.3737,-1.3284,-1.3,-1.2801,-1.2457,-1.2379,-1.2421,-1.241,-1.2678,-1.3115,-1.3467,-1.3606,-1.3747,-1.4043,-1.4703,-1.5386,-1.5675,-1.6157,-1.6687,-1.704,-1.7009,-1.6908,-1.6908,-1.6908,-1.6908,-1.6908,-1.6908,-1.6908,-1.7003,-1.6621,-1.623,-1.6044,-1.5729,-1.5564,-1.5679,-1.5544,-1.5417,-1.5476,-1.5449,-1.541,-1.541,-1.541,-1.541,-1.541,-1.541,-1.5234,-1.4842,-1.4348,-1.3977,-1.3704,-1.3311,-1.3164,-1.3301,-1.2734,-1.2359,-1.2203,0.0,0.0,0.0,0.0,0.0,0.0,0.0,0.0,0.0,0.0,0.0,0.0,0.0,0.0,0.0,0.0,0.0,0.0,0.0,0.0,0.0,0.0,0.0,0.0572,0.0082,-0.0745,-0.2237,-0.3066,-0.3996,-0.5287,-0.5613,-0.5852,-0.6263,-0.6325,-0.6328,-0.6387,-0.6395,-0.6648,-0.72,-0.7998,-0.9092,-1.043,-1.1502,-1.2527,-1.3502,-1.3786,-1.407,-1.4298,-1.4298,-1.4298,-1.4298,-1.4298,-1.4298,-1.4298,-1.4298,-1.4298,-1.4268,-1.4008,-1.3598,-1.3101,-1.3127,-1.2946,-1.279,-1.3264,-1.3561,-1.3811,-1.4227,-1.4488,-1.4772,-1.5281,-1.592,-1.6539,-1.7052,-1.72,-1.727,-1.7468,-1.7211,-1.6927,-1.6908,-1.6908,-1.6908,-1.6908,-1.6908,-1.6978,-1.7166,-1.6723,-1.6398,-1.6589,-1.6286,-1.6143,-1.6462,-1.6119,0.0,-1.6084,-1.5703,-1.543,-1.543,-1.542,-1.541,-1.541,-1.541,-1.5234,-1.4842,-1.4358,-1.4124,-1.4104,-1.374,-1.3695,-1.4104,-1.334,-1.2715,-1.2262,0.0,0.0,0.0,0.0,0.0,0.0,0.0,0.0,0.0,0.0,0.0,0.0,0.0,0.0,0.0,0.0,0.0,0.0,0.0,0.0,0.0,0.1336,0.1098,0.0378,-0.013,-0.1036,-0.2706,-0.3451,-0.4304,-0.5625,-0.5825,-0.5968,-0.6333,-0.6472,-0.6537,-0.6567,-0.6654,-0.696,-0.7483,-0.8512,-0.9642,-1.083,-1.2144,-1.3111,-1.3808,-1.4056,-1.4256,-1.4298,-1.4298,-1.4298,-1.4298,-1.4298,-1.4298,-1.4298,-1.4298,-1.4298,-1.4268,-1.4008,-1.3815,-1.3646,-1.3476,-1.3417,-1.3476,-1.3977,-1.4391,-1.4796,-1.5389,-1.5845,-1.6168,-1.6395,-1.6807,-1.7214,-1.7386,-1.7527,-1.7614,-1.7532,-1.7413,-1.7257,-1.6972,-1.6908,-1.6908,-1.6908,-1.7003,-1.7132,-1.7201,-1.7195,-1.7197,-1.7222,-1.7007,-1.6819,-1.6917,-1.6667,0.0,-1.6512,-1.6162,-1.5919,-1.5919,-1.5596,-1.541,-1.541,-1.541,-1.5234,-1.4842,-1.4678,-1.4436,-1.4114,-1.3997,-1.3987,-1.4104,-1.388,-1.3704,0.0,0.0,0.0,0.0,0.0,0.0,0.0,0.0,0.0,0.0,0.0,0.0,0.0,0.0,0.0,0.0,0.0,0.0,0.0,0.0,0.0,0.0,0.1378,0.1123,0.0229,-0.0324,-0.1362,-0.3268,-0.3931,-0.4746,-0.5984,-0.6088,-0.6236,-0.6454,-0.6578,-0.6641,-0.6695,-0.6763,-0.7068,-0.7595,-0.8689,-0.9835,-1.0988,-1.2511,-1.3462,-1.3905,-1.4301,-1.4413,-1.4298,-1.4298,-1.4298,0.0,-1.4298,-1.4298,-1.4298,-1.4298,-1.4298,0.0,0.0,0.0,0.0,0.0,-1.3833,-1.4229,-1.4692,-1.5186,-1.5767,-1.6451,-1.6935,-1.7285,-1.7456,-1.7825,-1.8127,-1.813,-1.8134,-1.8115,-1.7825,-1.7623,-1.7394,-1.7,-1.6908,-1.6908,-1.6908,-1.7072,-1.7235,-1.7314,0.0,0.0,-1.7701,-1.7523,-1.7384,-1.746,-1.721,-1.7002,-1.7002,-1.6486,-1.6095,-1.6095,-1.5674,-1.541,-1.541,-1.541,0.0,0.0,0.0,-1.4678,-1.4387,-1.4552,0.0,0.0,0.0,0.0,0.0,0.0,0.0,0.0,-1.4397,-1.4867,0.0,0.0,0.0,0.0,0.0,0.0,0.0,0.0,0.0,0.0,0.0,0.0,0.0,0.0,0.0,0.0,0.1451,0.1179,0.0147,-0.0491,-0.1671,-0.3734,-0.4487,-0.5236,-0.6287,-0.6398,-0.6452,-0.6611,-0.6643,-0.6709,-0.6817,0.0,0.0,0.0,0.0,-0.9842,-1.095,-1.2647,-1.3598,-1.3901,-1.443,-1.457,-1.4298,-1.4298,-1.4298,-1.4298,-1.4298,-1.4298,-1.4298,-1.4298,-1.4298,-1.4298,-1.4298,-1.4183,-1.3985,-1.3919,-1.4311,0.0,0.0,0.0,0.0,-1.7188,-1.7716,-1.8121,-1.8362,-1.8714,-1.9042,-1.9042,-1.8897,-1.8678,-1.8238,-1.7844,-1.7458,-1.7009,-1.6908,-1.6908,-1.6908,-1.7072,-1.7279,-1.747,-1.7623,-1.7784,-1.7974,-1.7862,-1.7784,-1.7974,-1.7695,-1.7484,-1.7484,-1.676,-1.6222,-1.6173,0.0,0.0,-1.5391,-1.541,-1.5254,-1.4883,-1.4882,-1.4882,-1.4882,-1.5215,-1.5234,-1.4863,-1.4891,-1.4788,-1.4559,-1.4927,-1.5303,-1.5641,-1.578,-1.6098,0.0,0.0,0.0,0.0,0.0,0.0,0.0,0.0,0.0,0.0,0.0,0.0,0.0,0.0,0.0,0.1453,0.1514,0.1217,0.0147,-0.0497,-0.1604,-0.376,-0.4474,-0.5236,-0.6287,-0.6476,-0.6594,-0.6619,-0.6801,-0.6923,-0.6948,-0.7089,-0.7254,-0.759,-0.8784,-0.9813,-1.0733,-1.2457,-1.3475,-1.3812,0.0,0.0,-1.4298,-1.4298,-1.4298,-1.4298,-1.4298,-1.4298,-1.4298,-1.4298,-1.4298,-1.4298,-1.4298,-1.4378,-1.4473,-1.4405,-1.4703,-1.5154,-1.5511,-1.6064,-1.673,-1.7229,-1.7919,-1.8571,-1.862,-1.8922,0.0,-1.9222,-1.9207,-1.9026,-1.8274,-1.8027,-1.7816,-1.7082,-1.6908,-1.6908,-1.6908,-1.7185,-1.747,-1.7505,-1.7735,-1.794,-1.7974,-1.7974,-1.7974,-1.7974,-1.7939,-1.7891,-1.7891,-1.7441,-1.6992,-1.6609,-1.6201,-1.5791,-1.5439,-1.541,-1.5381,-1.5293,-1.5293,-1.5293,-1.5293,-1.5371,-1.5371,-1.5293,-1.5447,-1.5504,-1.5453,-1.5751,-1.6117,-1.6562,-1.6738,-1.6984,0.0,0.0,0.0,0.0,0.0,0.0,0.0,0.0,0.0,0.0,0.0,0.137,0.1395,0.0,0.1473,0.1519,0.1564,0.1245,0.0149,-0.0602,-0.1764,-0.3781,-0.4483,-0.5236,-0.6287,-0.6497,-0.6643,-0.6706,-0.688,-0.701,-0.7122,-0.718,-0.7324,-0.7607,-0.8592,-0.9633,-1.0672,-1.2318,-1.3335,-1.3833,-1.4414,-1.4548,-1.4298,-1.4298,-1.4298,-1.4298,-1.4298,-1.4298,-1.4298,-1.4298,-1.4298,-1.4298,-1.4298,-1.4458,-1.4628,-1.4423,-1.4716,-1.5239,-1.557,-1.6188,-1.6927,-1.7505,-1.8201,-1.8851,-1.8851,-1.9073,-1.9301,-1.9301,-1.9301,-1.9118,-1.833,-1.8091,-1.788,-1.7101,-1.6908,-1.6908,-1.6908,-1.722,-1.7505,-1.7505,-1.7779,-1.8008,-1.8008,-1.8008,-1.8008,-1.8008,-1.8008,-1.8008,-1.8008,-1.7646,-1.7305,-1.708,-1.666,-1.6309,-1.6063,-1.5869,-1.5644,-1.542,-1.541,-1.541,-1.541,-1.541,-1.5449,-1.5546,-1.572,-1.5865,-1.6058,-1.6494,-1.6867,-1.7174,-1.7917,-1.8292,0.0,0.0,0.0,0.0,0.0,0.0,0.0,0.2011,0.1546,0.1641,0.1496,0.1356,0.1483,0.1519,0.1545,0.1575,0.16,0.1212,0.0152,-0.0656,-0.1814,-0.3781,-0.4535,-0.5286,-0.6287,-0.6567,-0.6695,-0.6796,-0.6937,-0.7114,-0.7204,-0.721,-0.7324,-0.7493,-0.8318,-0.9306,-1.0453,-1.1982,-1.3019,-1.3629,-1.4338,-1.4568,-1.4298,-1.4298,-1.4298,-1.4298,-1.4298,-1.4298,-1.4298,-1.4298,-1.4298,-1.4298,-1.4298,-1.4411,-1.4504,-1.4272,-1.4552,-1.5055,-1.5445,-1.6098,-1.6878,-1.7578,-1.8313,-1.8882,-1.8922,-1.9112,-1.9301,-1.9301,-1.9301,-1.9136,-1.8421,-1.8145,-1.7898,-1.7202,-1.6963,-1.6908,-1.6908,-1.722,-1.7505,-1.7505,-1.7779,-1.8008,-1.8008,-1.8008,-1.8008,-1.8008,-1.8008,-1.8008,-1.8008,-1.7715,-1.7471,-1.7393,-1.707,-1.6794,-1.6707,-1.6318,-1.5948,-1.5557,-1.5459,-1.541,-1.541,-1.541,-1.5507,-1.572,-1.6003,-1.6304,-1.667,-1.7336,-1.7739,-1.7984,-1.9078,-1.9471,0.5828,0.5239,0.4503,0.3942,0.3279,0.2663,0.0,0.1956,0.1683,0.1772,0.1628,0.1485,0.1598,0.1613,0.1577,0.1607,0.1615,0.1212,0.0152,-0.0504,-0.1613,-0.3731,-0.4686,-0.5489,-0.6337,-0.6646,-0.6787,-0.6801,-0.701,-0.7196,-0.721,-0.721,-0.721,-0.7265,-0.782,-0.854,-0.9526,-1.1214,-1.2374,-1.2997,-1.418,-1.4568,-1.4298,-1.4298,-1.4298,-1.4298,-1.4298,-1.4298,-1.4298,-1.4298,-1.4298,-1.4298,-1.4298,-1.4153,-1.4005,-1.4157,-1.425,-1.4385,-1.4958,-1.545,-1.5982,-1.6927,-1.7789,-1.8482,-1.8692,-1.9002,-1.9301,-1.9301,-1.9301,-1.9201,-1.876,-1.8385,-1.7972,-1.7541,-1.7165,-1.6908,-1.6908,-1.722,-1.7505,-1.7505,-1.7779,-1.8008,-1.8008,-1.8008,-1.8008,-1.8008,-1.8008,-1.8008,-1.8008,-1.7969,-1.7803,-1.7422,-1.7344,-1.7148,-1.6736,-1.6318,-1.6075,-1.6026,-1.5625,-1.541,-1.541,-1.541,-1.5555,-1.5874,-1.659,-1.7179,-1.7647,-1.843,-1.9091,-1.9636,-1.9963,-1.9938,0.5753,0.5111,0.438,0.3696,0.2948,0.2305,0.1971,0.1689,0.1564,0.1617,0.1607,0.1547,0.159,0.1598,0.1602,0.1615,0.1617,0.1465,0.101,-0.0202,-0.1713,-0.3528,-0.4636,-0.5541,-0.6337,-0.6594,-0.6725,-0.6796,-0.6959,-0.7141,-0.7204,-0.721,-0.721,-0.721,-0.7546,-0.8318,-0.9416,-1.0617,-1.1782,-1.2895,-1.3777,-1.4219,-1.4298,-1.4298,-1.4298,-1.4298,-1.4298,-1.4298,-1.4298,-1.4298,-1.4298,-1.4298,-1.4298,-1.4045,-1.3664,-1.3777,-1.3785,-1.3897,-1.4465,-1.5068,-1.5692,-1.6763,-1.7708,-1.8442,-1.8652,-1.8962,-1.9301,-1.9301,-1.9301,-1.921,-1.8815,-1.8421,-1.7981,-1.7596,-1.7193,-1.6908,-1.6908,-1.722,-1.7505,-1.7505,-1.7779,-1.8008,-1.8008,-1.8008,-1.8008,-1.8008,-1.8008,-1.8008,-1.8008,-1.8008,-1.7939,-1.7764,-1.7744,-1.7578,-1.7148,-1.6934,-1.6643,-1.6124,-1.5919,-1.5743,-1.5585,-1.5575,-1.5917,-1.6707,-1.7246,-1.794,-1.8773,-1.9599,-2.0163,-2.048,-2.0966,-2.1167,0.5707,0.5135,0.4467,0.3512,0.2766,0.2134,0.1695,0.1515,0.146,0.1504,0.1538,0.1568,0.1598,0.1605,0.1607,0.1615,0.1617,0.1516,0.1313,-0.005,-0.1613,-0.3275,-0.4284,-0.5238,-0.6187,-0.6497,-0.6671,-0.6793,-0.6915,-0.7035,-0.7204,-0.721,-0.721,-0.721,-0.7379,-0.8045,-0.9144,-1.0072,-1.1272,-1.2672,-1.3451,-1.3964,-1.431,-1.4286,-1.4298,-1.4298,-1.4298,-1.4298,-1.4298,-1.4298,-1.4298,-1.4298,-1.4298,-1.402,-1.3622,-1.3622,-1.354,-1.3461,-1.4034,-1.4657,-1.5427,-1.6541,-1.7465,-1.8201,-1.8571,-1.8922,-1.9231,-1.9262,-1.9301,-1.9237,-1.8944,-1.8586,-1.8145,-1.777,-1.7358,-1.7037,-1.6996,-1.7254,-1.7505,-1.7564,-1.7803,-1.8008,-1.8008,-1.8008,-1.8008,-1.8008,-1.8008,-1.8008,-1.8008,-1.8008,-1.8008,-1.8008,-1.8008,-1.7881,-1.7578,-1.7451,-1.7142,-1.6496,-1.6339,-1.6204,-1.6079,-1.6118,-1.6625,-1.7601,-1.8105,-1.887,-1.9957,-2.0743,-2.1202,-2.1415,-2.1877,-2.2223,0.5862,0.5451,0.4854,0.3519,0.2814,0.2225,0.1561,0.1457,0.148,0.1482,0.1506,0.1537,0.1567,0.1622,0.1583,0.1612,0.1617,0.1314,0.0556,-0.0051,-0.111,-0.2972,-0.3679,-0.4535,-0.5892,-0.6347,-0.6671,-0.6793,-0.6915,-0.7035,-0.7204,-0.721,-0.721,-0.721,-0.721,-0.7654,-0.854,-0.9633,-1.085,-1.2048,-1.321,-1.3954,-1.4295,-1.4322,-1.4298,-1.4298,-1.4298,-1.4298,-1.4298,-1.4298,-1.4298,-1.4298,-1.4298,-1.4129,-1.3894,-1.3894,-1.3568,-1.3173,-1.3579,-1.4206,-1.499,-1.608,-1.6894,-1.7595,-1.8451,-1.8851,-1.9042,-1.9271,-1.9301,-1.9292,-1.9283,-1.899,-1.8595,-1.8164,-1.7779,-1.7447,-1.7216,-1.7358,-1.7529,-1.7681,-1.7862,-1.8008,-1.8008,-1.8008,-1.8008,-1.8008,-1.8008,-1.8008,-1.8008,-1.8008,-1.8008,-1.8008,-1.8008,-1.8008,-1.7988,-1.7617,-1.7406,-1.7376,-1.6943,-1.6762,-1.6931,-1.715,-1.7637,-1.8443,-1.9256,-2.0148,-2.1146,-2.1836,-2.2316,-2.2665,-2.2678,-2.2739,0.6159,0.5637,0.4925,0.3886,0.3109,0.2492,0.183,0.1686,0.1666,0.1527,0.1505,0.1529,0.1539,0.1541,0.1551,0.1582,0.1587,0.1295,0.0504,0.0101,-0.0757,-0.2471,-0.3277,-0.4182,-0.534,-0.5924,0.0,-0.6787,-0.6839,-0.6948,-0.7199,-0.721,-0.721,-0.721,-0.721,-0.7598,-0.8484,-0.9306,-1.0363,-1.1803,-1.3184,-1.4039,-1.4285,-1.4292,-1.4298,-1.4298,-1.4298,-1.4298,-1.4298,-1.4298,-1.4298,-1.4298,-1.4298,-1.4135,-1.3906,-1.4098,-1.4028,-1.3905,-1.3968,-1.4329,-1.4917,-1.5713,-1.6476,-1.7253,-1.787,-1.8474,-1.9002,-1.9073,-1.9192,-1.9301,-1.9301,-1.9008,-1.8678,-1.855,-1.8276,-1.8016,-1.7679,-1.7842,-1.8011,-1.7764,-1.7862,-1.8008,-1.8008,-1.8008,-1.8008,-1.8008,-1.8008,-1.8008,-1.8008,-1.8008,-1.8008,-1.8008,-1.8008,-1.8008,-1.8008,-1.7881,-1.7676,-1.7435,-1.7324,-1.73,-1.7325,-1.7606,-1.8359,-1.9608,-2.0102,-2.0979,-2.2195,-2.2518,-2.2757,-2.2969,-2.2969,-2.2987,0.6332,0.5817,0.517,0.4075,0.3362,0.2779,0.2102,0.1938,0.1856,0.172,0.1683,0.1652,0.163,0.1587,0.1605,0.1612,0.162,0.1387,0.0813,0.051,-0.0204,-0.1645,-0.2468,-0.3392,-0.4726,-0.5342,0.0,-0.6737,-0.6842,-0.695,-0.7199,-0.721,-0.721,-0.721,-0.7169,-0.7422,-0.8081,-0.8737,-0.9967,-1.1797,-1.3127,-1.3916,-1.416,-1.425,-1.4298,-1.4298,-1.4298,-1.4298,-1.4298,-1.4298,-1.4298,-1.4298,-1.4298,-1.4243,-1.4192,-1.438,-1.4568,-1.4661,-1.4262,-1.4445,-1.4895,-1.5337,-1.5982,-1.6673,-1.7245,-1.7942,-1.8554,-1.8763,-1.8993,-1.9183,-1.9183,-1.903,-1.8889,-1.8742,-1.8665,-1.8508,-1.8171,-1.8385,-1.8559,-1.8331,-1.8387,-1.8418,-1.8227,-1.8105,-1.8008,-1.8008,-1.8008,-1.8008,-1.8008,-1.8008,-1.8008,-1.8008,-1.8008,-1.8008,-1.8008,-1.8008,-1.79,-1.7627,-1.7754,-1.7921,-1.8057,-1.8438,-1.9258,-2.061,-2.0962,-2.1679,-2.2769,-2.2848,-2.2969,-2.3108,-2.3108,-2.3108,0.6362,0.5984,0.5459,0.413,0.349,0.3047,0.2374,0.2161,0.2129,0.2083,0.2048,0.1959,0.182,0.179,0.1737,0.1649,0.1617,0.1541,0.1343,0.1091,0.0523,-0.0638,-0.1224,-0.2235,-0.3987,-0.4737,-0.5592,-0.6706,0.0,-0.7035,-0.7204,-0.721,-0.721,-0.721,-0.7046,-0.7146,-0.7414,-0.818,-0.9685,-1.1898,-1.2943,-1.362,-1.3931,-1.416,-1.4298,-1.4298,-1.4298,-1.4298,-1.4298,-1.4298,-1.4298,-1.4298,-1.4298,-1.4442,-1.4688,-1.4742,-1.507,-1.5375,-1.4525,-1.454,-1.4901,-1.5036,-1.5333,-1.5816,-1.6673,-1.7286,-1.7781,-1.8233,-1.8683,-1.8962,-1.9002,-1.9152,-1.921,-1.8834,-1.8887,-1.8995,-1.8768,-1.8914,-1.9107,-1.926,-1.9287,-1.915,-1.8676,-1.8266,-1.8037,-1.8018,-1.8008,-1.8008,-1.8008,-1.8008,-1.8008,-1.8008,-1.8008,-1.8008,-1.8008,-1.8008,-1.8008,-1.8008,-1.8212,-1.8539,-1.9098,-1.9584,-2.0323,-2.1388,-2.1753,-2.2242,-2.2909,-2.2909,-2.3,-2.3108,-2.3108,-2.3108,0.6331,0.5732,0.5043,0.4114,0.3525,0.3035,0.2462,0.2356,0.225,0.2085,0.2026,0.1983,0.1962,0.1819,0.1735,0.1726,0.1618,0.1469,0.1341,0.1246,0.0888,0.0,-0.0799,-0.181,-0.3083,-0.4411,-0.5474,0.0,-0.675,-0.7035,-0.7204,-0.721,-0.721,-0.721,-0.7046,-0.7146,-0.7414,-0.8598,-0.9975,-1.1592,-1.2537,-1.3311,-1.3931,-1.416,-1.4298,-1.4298,-1.4298,-1.4298,-1.4298,-1.4298,-1.4298,-1.4298,-1.4298,-1.4442,-1.4736,-1.4933,-1.522,-1.5448,-1.4941,-1.4852,-1.4952,-1.4646,-1.4866,-1.5333,-1.5858,-1.6591,-1.7286,-1.774,-1.8193,-1.8643,-1.8922,-1.9033,-1.9094,-1.9143,-1.9429,-1.9589,-1.9222,-1.9419,-1.9594,-1.9346,-1.9287,-1.915,-1.8676,-1.851,-1.8334,-1.8057,-1.8008,-1.8008,-1.8008,-1.8008,-1.8008,-1.8008,-1.8008,-1.8008,-1.8008,-1.8008,-1.8008,-1.8008,-1.8279,-1.8697,-1.921,-1.9901,-2.0741,-2.1753,-2.2087,-2.2531,-2.3047,-2.3047,-2.3078,-2.3108,-2.3108,-2.3108,0.6129,0.5497,0.4763,0.4061,0.3537,0.3075,0.2665,0.2546,0.247,0.2289,0.226,0.221,0.2108,0.1941,0.1831,0.179,0.1648,0.1513,0.1458,0.147,0.1272,0.0706,-0.0054,-0.098,-0.2285,-0.3675,-0.4909,-0.5907,-0.6675,-0.7141,-0.7207,-0.721,-0.7188,-0.7081,-0.6964,-0.6959,-0.7113,-0.8241,-0.9415,-1.0657,-1.1737,-1.271,-1.3539,-1.3973,-1.4208,-1.4298,0.0,-1.4298,-1.4298,-1.4298,-1.4298,-1.4298,-1.4298,-1.4544,-1.4885,-1.5035,-1.5238,-1.5431,-1.5124,-1.4877,-1.4733,-1.4392,-1.4496,-1.4866,-1.5151,-1.5767,-1.6419,-1.696,-1.7538,-1.8063,-1.8594,-1.8882,-1.9042,-1.9262,-1.9627,-1.9846,-1.9609,-1.9899,-2.0127,-1.9893,-1.9687,-1.9424,-1.8994,-1.8724,-1.8461,-1.8076,-1.8008,-1.8008,-1.8008,-1.8008,-1.8008,-1.8008,-1.8008,-1.8008,-1.8008,-1.8008,-1.8008,-1.8008,-1.8313,-1.8774,-1.9419,-2.0107,-2.0944,-2.187,-2.2328,-2.2696,-2.3017,-2.3078,-2.3108,-2.3108,-2.3108,-2.3108,0.578,0.5119,0.4435,0.3939,0.3487,0.3064,0.2827,0.2718,0.2651,0.259,0.2529,0.2427,0.2245,0.2134,0.2002,0.1863,0.1685,0.156,0.1676,0.1699,0.1617,0.1392,0.0784,-0.0168,-0.1568,-0.2854,-0.4196,-0.5654,-0.6599,-0.7154,-0.721,-0.7196,-0.707,-0.6886,-0.6781,-0.6774,-0.6798,-0.754,-0.8478,-0.9558,-1.0895,-1.2073,-1.305,-1.3642,-1.4022,-1.425,0.0,0.0,-1.4298,-1.4298,-1.4298,-1.4298,-1.4298,-1.464,-1.5077,-1.5038,-1.5196,-1.5351,-1.5017,-1.4736,-1.4476,-1.4182,-1.4201,-1.4398,-1.4608,-1.4943,-1.5436,-1.6105,-1.6796,-1.7489,-1.8152,-1.8643,-1.9002,-1.9271,-1.9627,-1.9902,-1.9902,-2.0255,-2.0605,-2.0605,-2.0254,-1.9853,-1.9365,-1.8975,-1.8529,-1.8086,-1.8008,-1.8008,-1.8008,-1.8008,-1.8008,-1.8008,-1.8008,-1.8008,-1.8008,-1.8008,-1.8008,-1.8042,-1.8347,-1.8875,-1.9605,-2.028,-2.1051,-2.1925,-2.2463,-2.28,-2.2939,-2.3047,-2.3108,-2.3108,-2.3108,-2.3108,0.5051,0.4334,0.3721,0.3405,0.3098,0.2825,0.2722,0.2621,0.2525,0.2463,0.2367,0.2346,0.2364,0.2266,0.2113,0.2,0.1861,0.1713,0.1619,0.1673,0.1718,0.1698,0.0945,0.0,-0.0953,-0.2574,-0.4139,0.0,-0.6265,-0.6935,-0.721,-0.7119,-0.6912,-0.6638,-0.6662,-0.6686,-0.6795,-0.7388,-0.8226,-0.9266,-1.065,-1.1731,-1.2565,-1.3491,-1.3931,-1.3979,-1.4208,0.0,-1.4298,-1.4298,-1.4298,-1.4298,-1.4298,-1.464,-1.5057,-1.4775,-1.4981,-1.5317,-1.4783,-1.4563,-1.4476,-1.4182,-1.4124,-1.4208,-1.4398,-1.4608,-1.4943,-1.565,-1.6312,-1.7009,-1.7829,-1.8411,-1.8851,-1.9222,-1.9627,-1.9902,-1.9902,-2.0255,-2.0605,-2.0605,-2.0546,-2.0243,-1.9424,-1.9219,-1.8906,-1.8125,-1.8008,-1.8008,-1.8008,-1.8008,-1.8008,-1.8008,-1.8008,-1.8008,-1.8008,-1.8008,-1.8076,-1.8236,-1.8573,-1.9075,-1.9835,-2.0592,-2.1368,-2.2123,-2.2616,-2.2939,-2.3078,-2.3078,-2.3108,-2.3108,-2.3108,-2.3108,0.4421,0.3853,0.3361,0.3227,0.3002,0.2759,0.2666,0.2575,0.2485,0.2356,0.2318,0.2316,0.2371,0.2276,0.2167,0.202,0.1874,0.1775,0.1602,0.1654,0.1699,0.1799,0.111,0.0336,-0.0561,-0.2128,-0.3638,-0.4814,-0.5828,-0.6573,-0.701,-0.6837,-0.6686,-0.6624,-0.6556,-0.6547,-0.6589,-0.6989,-0.7633,-0.8577,-0.9661,-1.0797,-1.2029,-1.2759,-1.3394,-1.3931,-1.4022,0.0,-1.4298,-1.4298,-1.4298,-1.4298,-1.4298,-1.4506,-1.4801,-1.4661,-1.4747,-1.4897,-1.4616,-1.4422,-1.4269,-1.4135,-1.4088,-1.413,-1.4201,-1.4328,-1.4538,-1.52,-1.5865,-1.6599,-1.7578,-1.8282,-1.8812,-1.9183,-1.9627,-1.9981,-2.0216,-2.045,-2.0605,-2.0605,-2.0605,-2.0331,-1.9434,-1.9287,-1.8994,-1.8135,-1.8008,-1.8008,-1.8008,-1.8008,-1.8008,-1.8008,-1.8008,-1.8008,-1.8008,-1.811,-1.8245,-1.8371,-1.8831,-1.9386,-2.0118,-2.088,-2.1557,-2.2197,-2.2665,-2.2939,-2.2987,-2.3078,-2.3108,-2.3108,-2.3108,-2.3108,0.3868,0.3438,0.3135,0.3121,0.2938,0.2732,0.2609,0.2525,0.2405,0.2301,0.2269,0.2277,0.2334,0.228,0.2171,0.2064,0.1922,0.1784,0.1671,0.1676,0.1726,0.1787,0.127,0.0558,-0.0336,-0.1793,-0.3187,-0.4345,-0.5517,0.0,-0.68,-0.6563,-0.6449,-0.653,-0.6435,-0.6387,-0.6387,-0.6642,-0.7141,-0.7839,-0.8689,-0.98,-1.1127,-1.1905,-1.2732,-1.3507,-1.3811,0.0,0.0,-1.419,-1.4214,-1.4208,-1.4153,-1.4284,-1.4515,-1.4452,-1.4469,-1.4466,-1.4449,-1.4282,-1.4088,-1.4088,-1.4088,-1.4088,-1.4088,-1.4088,-1.4215,-1.4831,-1.5526,-1.6345,-1.7367,-1.8152,-1.8812,-1.9311,-1.9696,-2.0098,-2.0527,-2.0605,-2.0605,-2.0605,-2.0605,-2.0331,-1.9434,-1.9287,-1.8994,-1.8135,-1.8008,-1.8008,-1.8008,-1.8008,-1.8008,-1.8008,-1.8008,-1.8008,-1.8008,-1.8178,-1.8371,-1.8549,-1.9088,-1.9737,-2.0463,-2.1198,-2.1788,-2.229,-2.2739,-2.2939,-2.2939,-2.3047,-2.3108,-2.3108,-2.3108,-2.3108,0.3264,0.3049,0.2904,0.2849,0.2788,0.2669,0.2546,0.2394,0.2296,0.223,0.2208,0.2224,0.2214,0.2275,0.2279,0.22,0.205,0.1949,0.1808,0.1665,0.1643,0.1701,0.1247,0.0551,-0.0336,-0.1793,-0.3171,-0.4216,-0.5464,0.0,-0.66,-0.6475,-0.6412,-0.6406,-0.6392,-0.6387,-0.6387,-0.6642,-0.6942,-0.7285,-0.823,-0.8935,-0.9565,-1.1091,-1.1952,-1.2347,-1.3437,0.0,0.0,-1.395,-1.3942,-1.3918,-1.3682,-1.3841,-1.4231,-1.3977,-1.4119,-1.4482,-1.4215,-1.4108,-1.4088,-1.4088,-1.4088,-1.4088,-1.4088,-1.4088,-1.4173,-1.4615,-1.5401,-1.6296,-1.7196,-1.8072,-1.8891,-1.9666,-2.0059,-2.0342,-2.0566,-2.0605,-2.0605,-2.0605,-2.0605,-2.0331,-1.9434,-1.9287,-1.8994,-1.8135,-1.8008,-1.8008,-1.8008,-1.8008,-1.8008,-1.8008,-1.8008,-1.8008,-1.8008,-1.8178,-1.8438,-1.8741,-1.9386,-2.0074,-2.0828,-2.1675,-2.2278,-2.2659,-2.2939,-2.3078,-2.3078,-2.3078,-2.3108,-2.3108,-2.3108,-2.3108,0.3002,0.2899,0.29,0.2824,0.277,0.2651,0.2492,0.2356,0.2272,0.221,0.2204,0.2207,0.2198,0.2259,0.2262,0.2218,0.2097,0.1956,0.1838,0.1689,0.1611,0.1671,0.1236,0.0603,-0.011,-0.1726,-0.3433,-0.5114,-0.567,0.0,-0.6462,-0.6406,-0.6385,-0.6387,-0.6387,-0.6387,-0.6387,-0.6489,-0.6653,-0.692,-0.7547,-0.8192,-0.8804,-1.0032,-1.1025,-1.1724,-1.2618,0.0,0.0,-1.3626,-1.367,-1.3664,-1.3556,-1.3681,-1.3957,-1.3849,-1.4013,-1.4242,-1.4128,-1.4088,-1.4088,-1.4088,-1.4088,-1.4088,-1.4088,-1.4088,-1.4215,-1.479,-1.5484,-1.6345,-1.7318,-1.8425,-1.9408,-1.999,-2.0225,-2.0342,-2.0566,-2.0605,-2.0605,-2.0605,-2.0605,-2.041,-1.9766,-1.9453,-1.9082,-1.8442,-1.8174,-1.8008,-1.8008,-1.811,-1.8178,-1.8178,-1.8076,-1.8042,-1.8178,-1.8337,-1.8617,-1.9075,-1.9649,-2.0269,-2.0871,-2.1612,-2.2185,-2.2525,-2.2818,-2.3017,-2.3108,-2.3108,-2.3108,-2.3108,-2.3108,-2.3108,0.2777,0.2807,0.2846,0.2767,0.2684,0.2623,0.2458,0.2339,0.2271,0.2202,0.2214,0.2194,0.2202,0.2272,0.2319,0.2299,0.2162,0.2066,0.1927,0.1764,0.1683,0.1705,0.1279,0.0761,0.0164,-0.1649,-0.3604,-0.5645,-0.5773,0.0,-0.6392,-0.6387,-0.6387,-0.6387,-0.6387,-0.6387,-0.6387,-0.6401,-0.6446,-0.6603,-0.696,-0.7432,-0.8019,-0.9095,-1.0071,-1.0938,0.0,0.0,0.0,-1.3203,-1.3309,-1.3393,-1.3308,-1.3422,-1.3684,-1.3684,-1.387,-1.4088,-1.4088,-1.4088,-1.4088,-1.4088,-1.4088,-1.4088,-1.4088,-1.4088,-1.425,-1.4922,-1.5816,-1.6796,-1.7821,-1.8865,-1.9794,-2.0186,-2.0342,-2.0411,-2.0566,-2.0605,-2.0605,-2.0605,-2.0605,-2.0468,-1.999,-1.9668,-1.9287,-1.8685,-1.8354,-1.8154,-1.8086,-1.8202,-1.8303,-1.8337,-1.8245,-1.8212,-1.8347,-1.8516,-1.8774,-1.9208,-1.9781,-2.0302,-2.0796,-2.1494,-2.2068,-2.2389,-2.2726,-2.2969,-2.3108,-2.3108,-2.3108,-2.3108,-2.3108,-2.3108,0.2587,0.2649,0.268,0.2619,0.2602,0.257,0.2447,0.2339,0.2281,0.2221,0.2209,0.2209,0.2209,0.2303,0.2439,0.25,0.2367,0.2281,0.2203,0.2026,0.1853,0.1703,0.1476,0.1072,0.0436,-0.1613,-0.3616,-0.5367,0.0,0.0,-0.6387,-0.6387,-0.6387,-0.6387,-0.6387,-0.6387,-0.6387,-0.6325,-0.632,-0.6314,-0.6491,-0.6728,-0.7041,-0.8321,-0.9186,0.0,0.0,0.0,0.0,-1.2696,-1.2907,-1.3103,-1.2819,-1.2973,-1.3398,-1.3398,-1.3701,-1.4088,-1.4088,-1.4088,-1.4088,-1.4088,-1.4088,-1.4088,-1.4088,-1.4088,-1.425,-1.4922,-1.6353,-1.7893,-1.8754,-1.9429,-1.9981,-2.0225,-2.045,-2.0605,-2.0605,-2.0605,-2.0605,-2.0605,-2.0605,-2.0468,-1.999,-1.9912,-1.9619,-1.8724,-1.8598,-1.8511,-1.8319,-1.8303,-1.8337,-1.8482,-1.8516,-1.8516,-1.8516,-1.8674,-1.8875,-1.9108,-1.9715,-2.0237,-2.0571,-2.1451,-2.2056,-2.2389,-2.2726,-2.2969,-2.3108,-2.3108,-2.3108,-2.3108,-2.3108,-2.3108,0.2534,0.2614,0.2677,0.2617,0.2601,0.257,0.2447,0.2339,0.2281,0.2222,0.2209,0.2209,0.2209,0.2304,0.244,0.25,0.2439,0.2408,0.2484,0.2192,0.1979,0.1962,0.1225,0.0218,-0.0998,0.0,-0.3614,-0.5367,0.0,0.0,-0.6387,-0.6387,-0.6387,-0.6387,-0.6387,-0.6399,-0.6323,-0.6287,-0.6184,-0.6018,-0.64,-0.6587,-0.6627,-0.766,0.0,0.0,0.0,0.0,0.0,-1.2218,-1.2579,-1.2616,-1.2698,-1.3009,-1.3398,-1.3398,-1.3701,-1.4088,-1.4088,-1.4088,-1.4088,-1.4088,-1.4088,-1.4088,-1.4088,-1.4088,-1.4334,-1.5484,-1.6804,-1.8112,-1.8984,-1.9548,-2.002,-2.0411,-2.0566,-2.0605,-2.0605,-2.0605,-2.0605,-2.0605,-2.0605,-2.0556,-2.0381,-2.0107,-1.9727,-1.917,-1.8828,-1.8521,-1.8329,-1.8371,-1.8516,-1.8684,-1.8841,-1.8841,-1.8717,-1.8774,-1.8908,-1.9208,-1.9572,-1.9922,-2.0237,-2.088,-2.1431,-2.1913,-2.2347,-2.2696,-2.2969,-2.3047,-2.3108,-2.3108,-2.3108,-2.3108,0.2401,0.25,0.2549,0.2511,0.2501,0.2486,0.2394,0.2322,0.2261,0.2246,0.2244,0.2244,0.2244,0.2356,0.2508,0.257,0.2586,0.2591,0.2606,0.231,0.2096,0.1981,0.1128,0.0055,0.0,-0.2226,-0.3402,0.0,0.0,0.0,-0.6239,-0.6337,-0.6368,-0.6374,-0.6361,-0.6325,-0.6317,-0.6179,-0.6053,-0.5904,-0.6267,-0.6424,-0.6432,-0.7187,0.0,0.0,0.0,0.0,0.0,-1.1542,-1.2063,-1.2406,-1.2534,-1.2918,-1.3398,-1.3398,-1.3701,-1.4088,-1.4088,-1.4088,-1.4088,-1.4088,-1.4088,-1.4088,-1.4088,-1.4299,-1.4664,-1.5692,-1.6878,-1.8072,-1.8944,-1.9548,-2.002,-2.0489,-2.0605,-2.0605,-2.0605,-2.0605,-2.0605,-2.0605,-2.0605,-2.0605,-2.0605,-2.038,-1.9961,-1.9375,-1.9053,-1.8742,-1.8417,-1.8448,-1.8617,-1.8875,-1.9042,-1.9031,-1.8908,-1.8908,-1.9008,-1.9208,-1.9473,-1.9704,-1.9889,-2.0635,-2.121,-2.1639,-2.2223,-2.2665,-2.3,-2.3047,-2.3108,-2.3108,-2.3108,-2.3108,0.0,0.2299,0.2305,0.2305,0.2308,0.2324,0.2371,0.2296,0.0,0.2287,0.2299,0.23,0.2304,0.2484,0.2621,0.2683,0.2798,0.2829,0.2653,0.243,0.2163,0.1747,0.1191,0.0386,-0.0838,-0.1845,-0.3029,0.0,0.0,0.0,-0.5992,-0.6232,-0.638,-0.6285,-0.627,-0.6257,-0.6289,-0.6015,-0.5899,-0.5888,-0.6048,-0.6213,-0.6432,-0.6874,0.0,0.0,0.0,0.0,0.0,-1.0766,-1.1499,-1.232,-1.2363,-1.279,-1.3398,-1.3392,-1.3701,-1.4088,-1.4088,-1.4088,-1.4088,-1.4088,-1.4088,-1.4088,-1.4088,-1.4545,-1.5166,-1.5575,-1.6673,-1.7893,-1.8754,-1.9429,-2.002,-2.0489,-2.0605,-2.0605,-2.0605,-2.0605,-2.0605,-2.0605,-2.0605,-2.0605,-2.0605,-2.0605,-2.0312,-1.9414,-1.9323,-1.9118,-1.8558,-1.8516,-1.8684,-1.9075,-1.9108,-1.9108,-1.9108,-1.9108,-1.9108,-1.9098,-1.9407,-1.9605,-1.9638,-2.0614,-2.1305,-2.1596,-2.2347,-2.286,-2.3108,-2.3108,-2.3108,-2.3108,-2.3108,-2.3108,0.2214,0.0,0.2362,0.2362,0.2397,0.2461,0.0,0.2328,0.2281,0.2296,0.2299,0.2312,0.2354,0.2511,0.2621,0.2683,0.2875,0.2965,0.2991,0.2667,0.2206,0.1489,0.0876,0.0056,-0.1101,-0.2155,0.0,0.0,0.0,-0.5737,-0.5992,-0.6207,-0.6336,-0.6294,-0.6124,-0.598,-0.5988,-0.5931,-0.5858,-0.5729,-0.6008,-0.6213,-0.6428,-0.6745,0.0,0.0,0.0,0.0,-0.9301,-1.0294,-1.0939,-1.1413,-1.2106,-1.2711,-1.3179,-1.3355,-1.3701,-1.4088,-1.4088,-1.4088,-1.4088,-1.4088,-1.4088,-1.4088,-1.4088,-1.4412,-1.4901,-1.5526,-1.6542,-1.7723,-1.8714,-1.9429,-2.002,-2.0489,-2.0605,-2.0605,-2.0605,-2.0605,-2.0605,-2.0605,-2.0605,-2.0605,-2.0605,-2.0605,-2.0312,-1.9414,-1.9416,-1.928,-1.8602,-1.864,-1.8808,-1.9075,-1.9108,-1.9108,-1.9108,-1.9108,-1.9142,-1.9252,-1.9318,-1.9561,-1.9977,-2.0474,-2.1051,-2.1671,-2.2439,-2.2939,-2.3108,-2.3108,-2.3108,-2.3108,-2.3108,-2.3108,0.2195,0.227,0.231,0.2336,0.2367,0.239,0.2383,0.2324,0.2283,0.2328,0.2316,0.2314,0.2435,0.256,0.2691,0.2758,0.2947,0.2935,0.2631,0.2348,0.1841,0.1,0.0377,-0.0436,0.0,0.0,0.0,0.0,0.0,-0.5667,-0.5773,-0.6108,-0.6244,-0.6096,-0.5958,-0.5912,-0.5888,-0.586,-0.5795,-0.5688,-0.5863,-0.6083,-0.6384,-0.6567,-0.6877,0.0,0.0,0.0,-0.8644,-0.9598,-1.0337,-1.0895,-1.1757,-1.2491,-1.3137,-1.3307,-1.3701,-1.4088,-1.4088,-1.4088,-1.4088,-1.4088,-1.4088,-1.4088,-1.4088,-1.425,-1.4573,-1.5242,-1.6221,-1.7318,-1.8385,-1.9231,-1.9912,-2.045,-2.0605,-2.0605,-2.0605,-2.0605,-2.0605,-2.0605,-2.0605,-2.0605,-2.0605,-2.0605,-2.0419,-1.9816,-1.9644,-1.9431,-1.901,-1.8873,-1.8875,-1.9065,-1.9108,-1.9108,-1.9108,-1.9108,-1.9175,-1.9274,-1.9384,-1.9638,-2.0063,-2.0603,-2.1273,-2.213,-2.2714,-2.3017,-2.3108,-2.3108,-2.3108,-2.3108,-2.3108,-2.3108,0.2197,0.2211,0.224,0.2308,0.2326,0.2338,0.2385,0.2324,0.2247,0.2364,0.2344,0.2364,0.2491,0.2629,0.2744,0.2895,0.2933,0.2762,0.2107,0.1691,0.1193,0.0363,-0.0264,0.0,-0.2122,0.0,0.0,0.0,0.0,-0.5544,-0.5494,-0.5961,-0.6093,-0.592,-0.589,-0.585,-0.5888,-0.5756,-0.5688,-0.5688,-0.5688,-0.5949,-0.6384,-0.6384,-0.665,0.0,0.0,0.0,-0.8157,-0.8859,-0.9689,-1.0549,-1.1327,-1.2192,-1.3052,-1.3307,-1.3701,-1.4088,-1.4088,-1.4088,-1.4088,-1.4088,-1.4088,-1.4088,-1.4088,-1.4088,-1.4215,-1.488,-1.5809,-1.6862,-1.7965,-1.8904,-1.9715,-2.0411,-2.0566,-2.0605,-2.0605,-2.0605,-2.0605,-2.0605,-2.0605,-2.0605,-2.0605,-2.0644,-2.0536,-2.0234,-1.9952,-1.9699,-1.9528,-1.9189,-1.898,-1.9075,-1.9108,-1.9108,-1.9108,-1.917,-1.9245,-1.9389,-1.9515,-1.9769,-2.0172,-2.0892,-2.1694,-2.2616,-2.2909,-2.3078,-2.3108,-2.3108,-2.3108,-2.3108,-2.3108,-2.3108,0.2169,0.224,0.2311,0.2456,0.2484,0.2486,0.2495,0.2406,0.2363,0.2379,0.2375,0.244,0.2549,0.2673,0.2828,0.2906,0.2637,0.2312,0.2062,0.1178,0.0363,-0.0208,0.0,-0.2012,0.0,0.0,0.0,0.0,0.0,-0.5347,-0.5494,-0.5694,-0.5834,-0.5917,-0.5785,-0.5718,-0.5726,-0.5702,-0.5688,-0.5688,-0.5688,-0.5949,-0.6384,-0.6384,-0.665,0.0,0.0,-0.7323,-0.768,-0.8328,-0.9069,-0.9859,-1.0939,-1.1929,-1.279,-1.3222,-1.3701,-1.4088,-1.4088,-1.4088,-1.4088,-1.4088,-1.4088,-1.4088,-1.4088,-1.4088,-1.4173,-1.4657,-1.5436,-1.6501,-1.7715,-1.8696,-1.9508,-2.0186,-2.0489,-2.0605,-2.0605,-2.0605,-2.0605,-2.0605,-2.0605,-2.0605,-2.0605,-2.0731,-2.0709,-2.0272,-2.0423,-2.0358,-1.9594,-1.9603,-1.9499,-1.915,-1.9108,-1.9108,-1.9108,-1.9461,-1.9757,-1.987,-1.9695,-1.9868,-2.0506,-2.1242,-2.1819,-2.2278,-2.2696,-2.2987,-2.3108,-2.3108,-2.3108,-2.3108,-2.3108,-2.3108,0.2131,0.2204,0.2327,0.2481,0.2535,0.2559,0.2559,0.2545,0.25,0.2563,0.2527,0.2536,0.2692,0.2778,0.2825,0.2796,0.2427,0.1948,0.1411,0.0406,-0.0511,0.0,0.0,-0.2834,0.0,0.0,0.0,0.0,0.0,0.0,-0.536,-0.5541,-0.567,-0.5802,-0.5726,-0.5688,-0.5688,-0.5688,-0.5688,-0.5688,-0.5688,-0.5908,-0.6257,-0.6343,-0.6609,-0.6922,0.0,-0.7187,-0.7323,-0.8065,-0.8763,-0.9501,-1.0674,-1.1714,-1.2619,-1.3307,-1.3779,-1.4088,-1.4088,-1.4088,-1.4088,-1.4088,-1.4088,-1.4088,-1.4088,-1.4088,-1.4166,-1.4573,-1.5269,-1.618,-1.735,-1.8327,-1.9143,-1.9902,-2.0264,-2.0459,-2.0566,-2.0605,-2.0605,-2.0605,-2.0605,-2.0644,-2.0731,-2.0829,-2.0914,-2.0913,-2.0822,-2.0675,-2.0411,-2.0205,-2.0038,-1.982,-1.9799,-1.9799,-1.9799,-1.9996,-2.0191,-2.0366,-2.0443,-2.0701,-2.1241,-2.1567,-2.1967,-2.2393,-2.2659,-2.2848,-2.2987,-2.3047,-2.3108,-2.3108,-2.3108,-2.3108,0.2088,0.2185,0.2305,0.2461,0.2545,0.2605,0.262,0.2644,0.2674,0.2707,0.267,0.2666,0.2817,0.2812,0.2778,0.2676,0.2092,0.1463,0.0707,-0.0403,-0.1412,-0.2118,-0.2973,0.0,0.0,0.0,0.0,0.0,0.0,0.0,-0.5251,-0.54,-0.5537,-0.5694,-0.5688,-0.5688,-0.5688,-0.5688,-0.5688,-0.5688,-0.5688,-0.5819,-0.6127,-0.6299,-0.6567,-0.6795,-0.701,-0.7095,-0.7139,-0.7848,-0.8544,-0.9235,-1.0376,-1.1542,-1.2662,-1.3434,-1.387,-1.4088,-1.4088,-1.4088,-1.4088,-1.4088,-1.4088,-1.4088,-1.4088,-1.4124,-1.4243,-1.4615,-1.5151,-1.5891,-1.696,-1.7853,-1.8696,-1.9539,-1.999,-2.0264,-2.0527,-2.0605,-2.0605,-2.0605,-2.0644,-2.0731,-2.0867,-2.0984,-2.1138,-2.1464,-2.1244,-2.1052,-2.1098,-2.0803,-2.0509,-2.0395,-2.0385,-2.0426,-2.054,-2.055,-2.0674,-2.0958,-2.109,-2.1272,-2.1499,-2.1599,-2.1835,-2.2227,-2.2397,-2.2574,-2.2787,-2.2896,-2.2957,-2.3017,-2.3017,-2.3017,0.2064,0.2155,0.2244,0.2359,0.2515,0.2616,0.2673,0.273,0.2773,0.2777,0.2777,0.2793,0.2892,0.2723,0.2595,0.245,0.1563,0.0707,0.0151,0.0,-0.2422,-0.2724,0.0,0.0,0.0,0.0,0.0,0.0,0.0,0.0,-0.5099,-0.5126,-0.5304,-0.5694,-0.5688,-0.5688,-0.5688,-0.5688,-0.5688,-0.5688,-0.5688,-0.5819,-0.6127,-0.6299,-0.6567,-0.6795,-0.701,-0.7095,-0.7139,-0.7676,-0.8328,-0.9021,-0.9985,-1.1456,-1.3094,-1.3519,-1.387,-1.4088,-1.4088,-1.4088,-1.4088,-1.4088,-1.4088,-1.4088,-1.4088,-1.4243,-1.444,-1.465,-1.5068,-1.5643,-1.6525,-1.7253,-1.8055,-1.9094,-1.9627,-2.0059,-2.0489,-2.0605,-2.0605,-2.0605,-2.0741,-2.0867,-2.0906,-2.1205,-2.1474,-2.1502,-2.1624,-2.1563,-2.1129,-2.1083,-2.086,-2.0436,-2.0385,-2.056,-2.1031,-2.1062,-2.1248,-2.1673,-2.1281,-2.0933,-2.0688,-2.0995,-2.1172,-2.1192,-2.1569,-2.2006,-2.2451,-2.2451,-2.2543,-2.2739,-2.2739,-2.2739,0.1721,0.1805,0.1913,0.195,0.2081,0.233,0.2645,0.2666,0.2669,0.2669,0.2694,0.2749,0.2973,0.2644,0.2255,0.1915,0.0998,0.005,-0.0656,-0.1966,-0.2973,-0.3277,0.0,0.0,0.0,0.0,0.0,0.0,0.0,0.0,0.0,-0.4972,-0.5188,-0.5508,-0.5644,-0.5688,-0.5688,-0.5688,-0.5688,-0.5688,-0.5688,-0.5733,-0.5863,-0.6213,-0.6476,-0.6567,-0.6918,-0.7095,-0.7139,-0.7499,-0.8025,-0.8807,-1.0328,-1.18,-1.3137,-1.3398,-1.3737,-1.4088,-1.4088,-1.4088,-1.4088,-1.4088,-1.4088,-1.4088,-1.4088,-1.4243,-1.444,-1.465,-1.495,-1.5409,-1.6278,-1.7009,-1.7749,-1.8696,-1.935,-1.9833,-2.0294,-2.0489,-2.0605,-2.0605,-2.078,-2.0945,-2.1061,-2.132,-2.154,-2.1655,-2.1769,-2.1745,-2.1569,-2.1549,-2.1476,-2.13,-2.128,-2.1352,-2.1528,-2.1549,-2.1621,-2.1797,-2.1599,-2.155,-2.1724,-2.1358,-2.1325,-2.1721,-2.1456,-2.1545,-2.1975,-2.2173,-2.2371,-2.2525,-2.2647,-2.272,0.1455,0.144,0.1485,0.1411,0.1509,0.1687,0.1969,0.229,0.2482,0.2496,0.2526,0.2528,0.2695,0.2267,0.1691,0.1127,0.0149,-0.0807,-0.1615,-0.2723,-0.3527,0.0,0.0,0.0,0.0,0.0,0.0,0.0,0.0,0.0,0.0,-0.4916,-0.5144,0.0,-0.5599,-0.5688,-0.5688,-0.5688,-0.5688,-0.5688,-0.5688,-0.5688,-0.5733,-0.6169,-0.6384,-0.6432,-0.6874,-0.7095,-0.7139,-0.737,-0.7984,-0.8899,-1.0414,-1.1757,-1.2924,-1.3179,-1.3652,-1.4088,-1.4088,-1.4088,-1.4088,-1.4088,-1.4088,-1.4088,-1.4088,-1.4286,-1.4524,-1.465,-1.4957,-1.5382,-1.6113,-1.673,-1.7424,-1.8336,-1.9063,-1.9636,-2.0186,-2.045,-2.0605,-2.0605,-2.0809,-2.1022,-2.1177,-2.1436,-2.1655,-2.1769,-2.1807,-2.1807,-2.1807,-2.1807,-2.1807,-2.1807,-2.1807,-2.1807,-2.1807,-2.1807,-2.1807,-2.1807,-2.1807,-2.1886,-2.2078,-2.1562,-2.1431,-2.1803,-2.1285,-2.1183,-2.158,-2.1777,-2.1956,-2.2099,-2.2328,-2.2463,0.1292,0.1133,0.0965,0.081,0.0732,0.068,0.0622,0.1483,0.2302,0.2296,0.2304,0.2207,0.1915,0.1424,0.084,0.01,-0.0907,-0.1916,-0.2674,-0.3479,0.0,0.0,0.0,0.0,0.0,0.0,0.0,0.0,0.0,0.0,0.0,-0.4879,0.0,0.0,-0.5597,-0.5688,-0.5688,-0.5688,-0.5688,-0.5688,-0.5688,-0.5688,-0.5733,-0.6169,-0.6384,-0.6432,-0.6874,-0.7095,-0.7139,-0.737,-0.8208,-0.9345,-1.0033,-1.116,-1.2448,-1.2924,-1.3525,-1.4088,-1.4088,-1.4088,-1.4088,-1.4088,-1.4088,-1.4088,-1.4088,-1.437,-1.4692,-1.4692,-1.5041,-1.5514,-1.5963,-1.6409,-1.6976,-1.8063,-1.8816,-1.946,-2.0147,-2.045,-2.0605,-2.0605,-2.0925,-2.1205,-2.1205,-2.154,-2.1807,-2.1807,-2.1807,-2.1807,-2.1807,-2.1807,-2.1807,-2.1807,-2.1807,-2.1807,-2.1807,-2.1807,-2.1807,-2.1807,-2.1807,-2.1676,-2.1429,-2.1408,-2.1333,-2.122,-2.0953,-2.0973,-2.1286,-2.1217,-2.1285,-2.142,-2.1757,-2.1999,0.0548,0.029,0.0,-0.0039,-0.0375,-0.0665,-0.0455,0.0328,0.0962,0.0945,0.0941,0.0932,0.1029,0.0442,-0.0197,-0.0839,-0.18,-0.2672,-0.3277,0.0,0.0,0.0,0.0,0.0,0.0,0.0,0.0,0.0,0.0,0.0,0.0,-0.4659,0.0,0.0,-0.5371,-0.5552,-0.5688,-0.5688,-0.5688,-0.5688,-0.5688,-0.5688,-0.5733,-0.6169,-0.6384,-0.6432,-0.6874,-0.7095,-0.7139,-0.737,-0.7984,-0.8811,-0.9685,-1.0809,-1.2015,-1.2796,-1.3398,-1.3864,-1.4046,-1.4088,-1.4088,-1.4088,-1.4088,-1.4088,-1.4088,-1.437,-1.4692,-1.4692,-1.5041,-1.5514,-1.5963,-1.6484,-1.7164,-1.8095,-1.8816,-1.946,-2.0147,-2.045,-2.0605,-2.0605,-2.0925,-2.1205,-2.1205,-2.154,-2.1807,-2.1807,-2.1807,-2.1807,-2.1807,-2.1807,-2.1807,-2.1807,-2.1807,-2.1807,-2.1807,-2.1807,-2.1807,-2.1807,-2.1807,-2.1821,-2.1901,-2.1586,-2.1444,-2.156,-2.1288,-2.1085,-2.094,-2.1295,-2.1438,-2.142,-2.1894,-2.2278,0.0036,-0.0339,-0.075,-0.1004,-0.1449,-0.1767,-0.1644,-0.0722,0.0098,0.0101,0.015,0.0149,0.0099,-0.0397,0.0,-0.1785,-0.2602,-0.332,-0.3793,0.0,0.0,0.0,0.0,0.0,0.0,0.0,0.0,0.0,0.0,0.0,0.0,0.0,0.0,0.0,-0.528,-0.5508,-0.5688,-0.5688,-0.5688,-0.5688,-0.5688,-0.5688,-0.5733,-0.6083,-0.6343,-0.6432,-0.6874,-0.7095,-0.7095,-0.7279,-0.7672,-0.8328,-0.9157,-1.0284,-1.1542,-1.2491,-1.3179,-1.3737,-1.3997,-1.4088,-1.4088,-1.4088,-1.4088,-1.4088,-1.4088,-1.437,-1.4692,-1.4692,-1.5041,-1.5514,-1.5963,-1.6484,-1.7123,-1.8055,-1.8865,-1.9587,-2.0186,-2.045,-2.0605,-2.0605,-2.0925,-2.1205,-2.1205,-2.154,-2.1807,-2.1807,-2.1807,-2.1807,-2.1807,-2.1807,-2.1807,-2.1807,-2.1807,-2.1807,-2.1807,-2.1807,-2.1807,-2.1807,-2.1807,-2.1835,-2.1997,-2.1726,-2.1607,-2.1755,-2.1566,-2.1274,-2.0894,-2.1319,-2.1423,-2.1293,-2.1831,-2.234,-0.0299,-0.0812,-0.1359,-0.2003,-0.2402,-0.2704,-0.2865,-0.1744,-0.0606,-0.0556,-0.0354,-0.0303,-0.0808,-0.1111,-0.1667,-0.2675,-0.3272,-0.3798,-0.4226,0.0,0.0,0.0,0.0,0.0,0.0,0.0,0.0,0.0,0.0,0.0,0.0,0.0,0.0,-0.4966,-0.5235,-0.5463,-0.5688,-0.5688,-0.5688,0.0,-0.5688,-0.5688,-0.5688,-0.5997,-0.6213,-0.6476,-0.6918,-0.7095,-0.7095,-0.7095,-0.7363,-0.7852,-0.8588,-0.9719,-1.1025,-1.2015,-1.2918,-1.3695,-1.3997,-1.4088,-1.4088,-1.4088,-1.4088,-1.4088,-1.4088,-1.437,-1.4692,-1.4692,-1.5041,-1.5514,-1.5963,-1.6409,-1.6976,-1.8014,-1.8953,-1.9715,-2.0225,-2.0459,-2.0605,-2.0605,-2.0925,-2.1205,-2.1205,-2.154,-2.1807,-2.1807,-2.1807,-2.1807,-2.1807,-2.1807,-2.1807,-2.1807,-2.1807,-2.1807,-2.1807,-2.1807,-2.1807,-2.1807,-2.1807,-2.1845,-2.1845,-2.1845,-2.1845,-2.1845,-2.175,-2.1513,-2.1066,-2.1282,-2.1304,-2.1123,-2.1663,-2.2266,-0.0713,-0.1466,-0.2212,-0.2573,-0.2933,-0.3331,-0.3674,-0.2967,-0.217,-0.1768,-0.1465,-0.1364,-0.1667,-0.1969,-0.2372,-0.3027,-0.3536,-0.3937,0.0,0.0,0.0,0.0,0.0,0.0,0.0,0.0,0.0,0.0,0.0,0.0,0.0,0.0,0.0,-0.4748,-0.4968,-0.5191,-0.5463,-0.5644,-0.5688,0.0,-0.5688,-0.5688,-0.5688,-0.5997,-0.6305,-0.6748,-0.701,-0.7095,-0.7095,-0.7095,-0.7275,-0.7635,-0.8328,-0.9244,-1.0289,-1.1585,-1.2577,-1.3307,-1.3913,-1.4088,-1.4088,-1.4088,-1.4088,-1.4088,-1.4088,-1.437,-1.4692,-1.4692,-1.5041,-1.5514,-1.5963,-1.6409,-1.6935,-1.7829,-1.8754,-1.9578,-2.0372,-2.0566,-2.0605,-2.0605,-2.0925,-2.1205,-2.1205,-2.154,-2.1807,-2.1807,-2.1807,-2.1807,-2.1807,-2.1807,-2.1807,-2.1807,-2.1807,-2.1807,-2.1807,-2.1807,-2.1807,-2.1807,-2.1959,-2.2025,-2.2025,-2.2025,-2.2025,-2.2025,-2.1971,-2.1754,-2.1385,-2.1407,-2.1369,-2.1356,-2.1894,-2.2402,-0.0675,-0.1464,-0.227,-0.3136,-0.3447,-0.366,-0.395,-0.3356,-0.2688,-0.2391,-0.2158,-0.2014,-0.2146,-0.234,-0.273,-0.3247,-0.3555,-0.3808,0.0,0.0,0.0,0.0,0.0,0.0,0.0,0.0,0.0,0.0,0.0,0.0,0.0,-0.43,-0.4433,-0.4705,-0.4792,-0.5013,-0.5416,-0.5508,-0.5599,-0.5688,-0.5688,-0.5688,-0.5688,-0.5997,-0.6305,-0.6612,-0.6833,-0.701,-0.7095,-0.7095,-0.7187,-0.7367,-0.8065,-0.8851,-0.9719,-1.1149,-1.2186,-1.3009,-1.3695,-1.3997,-1.4088,-1.4088,-1.4088,-1.4088,-1.4088,-1.437,-1.4692,-1.4692,-1.5041,-1.5465,-1.5831,-1.6237,-1.6763,-1.7538,-1.8465,-1.935,-1.9981,-2.0216,-2.0294,-2.0411,-2.077,-2.1079,-2.1167,-2.154,-2.1807,-2.1807,-2.1807,-2.1807,-2.1807,-2.1807,-2.1807,-2.1807,-2.1807,-2.1807,-2.1807,-2.1807,-2.1807,-2.1807,-2.1987,-2.2101,-2.2101,-2.2289,-2.2221,-2.1914,-2.1964,-2.1707,-2.1176,-2.133,-2.1402,-2.142,-2.1788,-2.2266,-0.0485,-0.1262,-0.223,-0.3602,-0.388,-0.3876,-0.3965,-0.3355,-0.2782,-0.2684,-0.2521,-0.2387,-0.2348,-0.2537,-0.2864,-0.3345,-0.3469,0.0,0.0,0.0,0.0,0.0,0.0,0.0,0.0,0.0,0.0,0.0,0.0,0.0,-0.43,-0.43,-0.4389,-0.4614,-0.4643,-0.4856,-0.5299,-0.5323,-0.5447,-0.5626,-0.5648,-0.5659,-0.5656,-0.5874,-0.6148,-0.6432,-0.6704,-0.6925,-0.7095,-0.7095,-0.7095,-0.7183,-0.7804,-0.85,-0.9323,-1.0669,-1.18,-1.2747,-1.3476,-1.387,-1.4088,-1.4088,-1.4088,-1.4088,-1.4088,-1.437,-1.465,-1.4692,-1.4999,-1.5382,-1.5658,-1.5982,-1.6427,-1.7074,-1.7934,-1.8754,-1.932,-1.9627,-1.9863,-2.0137,-2.0605,-2.1031,-2.1282,-2.1578,-2.1807,-2.1807,-2.1807,-2.1807,-2.1807,-2.1807,-2.1807,-2.1807,-2.1807,-2.1807,-2.1807,-2.1807,-2.1807,-2.1845,-2.2025,-2.2187,-2.2214,-2.259,-2.2513,-2.1882,-2.1941,-2.1642,-2.0929,-2.1174,-2.1355,-2.1388,-2.162,-2.1994,-0.0334,-0.1574,-0.295,-0.3769,-0.3985,-0.3968,-0.3871,-0.3547,-0.3157,-0.2725,-0.2398,-0.2305,-0.2536,-0.2581,-0.2723,-0.3098,-0.324,0.0,0.0,0.0,0.0,0.0,0.0,0.0,0.0,0.0,0.0,0.0,-0.43,0.0,-0.43,-0.43,-0.43,-0.4344,-0.4487,-0.4619,-0.4882,-0.5042,-0.5247,-0.5462,-0.5481,-0.5532,-0.5532,-0.5572,-0.5889,-0.6432,-0.6704,-0.6925,-0.7095,-0.7095,-0.7095,-0.7143,-0.7459,-0.8157,-0.9065,-1.0241,-1.1413,-1.2577,-1.3392,-1.387,-1.4088,-1.4088,-1.4088,-1.4088,-1.4088,-1.4243,-1.4482,-1.465,-1.4915,-1.5208,-1.5616,-1.5733,-1.594,-1.6435,-1.6763,-1.7343,-1.8545,-1.9103,-1.946,-1.9648,-2.0489,-2.1282,-2.1655,-2.1769,-2.1807,-2.1807,-2.1807,-2.1807,-2.1807,-2.1807,-2.1807,-2.1807,-2.1807,-2.1807,-2.1807,-2.1807,-2.1883,-2.2063,-2.2252,-2.244,-2.2628,-2.3001,-2.2992,-2.2496,-2.2042,-2.174,-2.1486,-2.1156,-2.112,-2.1388,-2.162,-2.1913,-0.0434,-0.1482,-0.2582,-0.3403,-0.3701,-0.3802,-0.3973,-0.3779,-0.3515,-0.3279,-0.3112,-0.2914,-0.2668,-0.2718,-0.2847,-0.2956,-0.3021,0.0,0.0,0.0,0.0,0.0,0.0,0.0,0.0,0.0,0.0,0.0,-0.43,-0.43,-0.43,-0.4255,-0.4228,-0.4228,-0.4226,-0.4348,-0.4558,-0.4764,-0.5035,-0.541,-0.5423,-0.5447,-0.5447,-0.5447,-0.5769,-0.6281,-0.6458,-0.672,-0.6984,-0.7061,-0.7095,-0.7139,-0.7415,-0.7984,-0.8851,-1.0028,-1.1154,-1.232,-1.3222,-1.3786,-1.4088,-1.4088,-1.4088,-1.4088,-1.4088,-1.4243,-1.444,-1.465,-1.4908,-1.5173,-1.5458,-1.5616,-1.5733,-1.594,-1.627,-1.6681,-1.7286,-1.8014,-1.8825,-1.9766,-2.0605,-2.132,-2.1731,-2.1807,-2.1807,-2.1807,-2.1807,-2.1807,-2.1807,-2.1807,-2.1807,-2.1807,-2.1807,-2.1807,-2.1807,-2.1807,-2.1883,-2.2111,-2.2289,-2.2478,-2.2703,-2.2964,-2.2967,-2.2601,-2.2162,-2.1879,-2.1641,-2.1153,-2.1019,-2.1273,-2.1463,-2.1714,-0.0489,-0.1229,-0.2019,-0.2857,-0.3312,-0.3627,-0.3966,-0.3866,-0.3695,-0.3668,-0.3626,-0.3469,-0.2932,-0.3029,-0.315,-0.3105,-0.3097,0.0,0.0,0.0,0.0,0.0,0.0,0.0,0.0,0.0,0.0,0.0,0.0,-0.4267,-0.4267,-0.4185,-0.4138,-0.4138,-0.4048,-0.4082,-0.4329,-0.4593,-0.491,-0.5281,-0.535,-0.5364,-0.5364,-0.5364,-0.5582,-0.6011,-0.6175,-0.6465,-0.685,-0.6997,-0.7065,-0.7139,-0.7323,-0.7896,-0.8723,-0.9767,-1.0933,-1.2143,-1.3009,-1.3659,-1.4088,-1.4088,-1.4088,-1.4088,-1.4088,-1.4201,-1.4363,-1.4608,-1.4824,-1.5048,-1.534,-1.5506,-1.5616,-1.5616,-1.594,-1.6312,-1.6722,-1.7538,-1.8585,-2.005,-2.0809,-2.132,-2.1731,-2.1807,-2.1807,-2.1807,-2.1807,-2.1807,-2.1807,-2.1807,-2.1807,-2.1807,-2.1807,-2.1807,-2.1807,-2.1807,-2.1921,-2.2138,-2.2327,-2.2515,-2.2777,-2.2964,-2.2985,-2.2789,-2.238,-2.2026,-2.1674,-2.1185,-2.1063,-2.119,-2.1336,-2.1588,-0.0303,-0.0859,-0.1489,-0.2198,-0.2892,-0.3428,-0.3499,-0.3664,-0.3771,-0.3623,-0.359,-0.3588,-0.3547,-0.3549,-0.3547,-0.3544,-0.3544,0.0,0.0,0.0,0.0,0.0,0.0,0.0,0.0,0.0,0.0,0.0,0.0,-0.4222,-0.4222,-0.4093,-0.4,-0.4,-0.3955,-0.3989,-0.4194,-0.4535,-0.4797,-0.5037,-0.5143,-0.5197,-0.5197,-0.5197,-0.5321,-0.554,-0.5868,-0.6243,-0.6622,-0.685,-0.6974,-0.7095,-0.7095,-0.7713,-0.8679,-0.9366,-1.0621,-1.21,-1.2881,-1.3532,-1.4088,-1.4088,-1.4088,-1.4088,-1.4088,-1.413,-1.4208,-1.4573,-1.4692,-1.4824,-1.5298,-1.5431,-1.5431,-1.5431,-1.5582,-1.6147,-1.7587,-1.8304,-1.9054,-2.0323,-2.0925,-2.132,-2.1731,-2.1807,-2.1807,-2.1807,-2.1807,-2.1807,-2.1807,-2.1807,-2.1807,-2.1807,-2.1807,-2.1807,-2.1807,-2.1807,-2.1959,-2.2365,-2.2402,-2.259,-2.2964,-2.3187,-2.3287,-2.3265,-2.2677,-2.2117,-2.1585,-2.1314,-2.119,-2.119,-2.1336,-2.1588,-0.0162,-0.0509,-0.1034,-0.174,-0.2303,-0.2763,-0.3101,-0.3453,-0.3766,-0.3807,-0.3911,-0.4016,-0.4022,-0.381,-0.3587,-0.3587,-0.3587,0.0,0.0,0.0,0.0,0.0,0.0,0.0,0.0,0.0,0.0,0.0,0.0,0.0,-0.4089,-0.3997,-0.3948,-0.3948,-0.3859,-0.3932,-0.4132,-0.4367,-0.4621,-0.4818,-0.4977,-0.5078,-0.5078,-0.5078,-0.5117,-0.5199,-0.5439,-0.5851,-0.6366,-0.6763,-0.6916,-0.697,-0.7061,-0.7625,-0.8416,-0.9104,-1.0279,-1.1666,-1.2534,-1.3264,-1.387,-1.4039,-1.4088,-1.4088,-1.4088,-1.4088,-1.4166,-1.4573,-1.4692,-1.4824,-1.5298,-1.5389,-1.5472,-1.5763,-1.5997,-1.6476,-1.7708,-1.8474,-1.9231,-2.0372,-2.0925,-2.132,-2.1731,-2.1807,-2.1807,-2.1807,-2.1807,-2.1807,-2.1807,-2.1807,-2.1807,-2.1807,-2.1807,-2.1807,-2.1807,-2.1807,-2.1921,-2.2176,-2.2327,-2.2515,-2.2815,-2.3001,-2.3113,-2.3113,-2.28,-2.25,-2.2094,-2.1506,-2.119,-2.1201,-2.1454,-2.1706,-0.0064,-0.0263,-0.0649,-0.1201,-0.1682,-0.2136,-0.2561,-0.3071,-0.3474,-0.3679,-0.3891,-0.4058,-0.42,-0.3972,-0.3824,-0.3849,-0.3855,0.0,0.0,0.0,0.0,0.0,0.0,0.0,0.0,0.0,0.0,0.0,0.0,0.0,-0.3996,-0.392,-0.3852,-0.3852,-0.3835,-0.3882,-0.4079,-0.4233,-0.4426,-0.4701,-0.482,-0.4937,-0.5018,-0.5018,-0.5018,-0.5018,-0.5207,-0.5589,-0.6133,-0.6529,-0.6753,-0.6896,-0.6991,-0.7493,-0.8285,-0.889,-0.9975,-1.1327,-1.2186,-1.296,-1.3652,-1.387,-1.4046,-1.4088,-1.4088,-1.4088,-1.4166,-1.4573,-1.4692,-1.4824,-1.5298,-1.5389,-1.5514,-1.6004,-1.6245,-1.6681,-1.7668,-1.8434,-1.9231,-2.0294,-2.0809,-2.1233,-2.1617,-2.1769,-2.1807,-2.1807,-2.1807,-2.1807,-2.1807,-2.1807,-2.1807,-2.1807,-2.1807,-2.1807,-2.1807,-2.1807,-2.1883,-2.2111,-2.2225,-2.2402,-2.259,-2.2777,-2.2889,-2.2889,-2.2822,-2.2618,-2.2286,-2.1725,-2.1362,-2.1201,-2.1454,-2.1718,0.0,0.0,0.0,-0.0521,-0.1015,-0.1562,-0.1903,-0.2463,-0.2999,-0.331,-0.3553,-0.3779,-0.3952,-0.4108,-0.4195,-0.4277,-0.4295,0.0,0.0,0.0,0.0,0.0,0.0,0.0,0.0,0.0,0.0,0.0,0.0,-0.3992,-0.399,-0.3861,-0.3802,-0.3802,-0.3802,-0.3882,-0.4079,-0.4079,-0.4314,-0.4701,-0.4701,-0.4818,-0.5018,-0.5018,-0.5018,-0.5018,-0.5207,-0.5508,-0.5907,-0.6114,-0.649,-0.6879,-0.6883,-0.7447,-0.8245,-0.8715,-0.9763,-1.1068,-1.1757,-1.2619,-1.344,-1.3652,-1.3864,-1.4088,-1.4088,-1.4088,-1.4166,-1.4573,-1.4692,-1.4824,-1.5298,-1.5389,-1.5514,-1.5963,-1.6237,-1.664,-1.7497,-1.8175,-1.8984,-2.0059,-2.0605,-2.1021,-2.1425,-2.1655,-2.1807,-2.1807,-2.1807,-2.1807,-2.1807,-2.1807,-2.1807,-2.1807,-2.1807,-2.1807,-2.1807,-2.1807,-2.1873,-2.2063,-2.2101,-2.2176,-2.2365,-2.259,-2.2703,-2.2703,-2.2761,-2.257,-2.2102,-2.1979,-2.1663,-2.119,-2.1336,-2.1588,0.0,0.0,0.0,0.0,0.0,0.0,0.0,-0.1927,-0.2694,-0.2997,-0.3471,-0.3874,-0.3982,-0.4014,-0.4081,-0.4063,-0.4216,0.0,0.0,0.0,0.0,0.0,0.0,0.0,0.0,0.0,0.0,0.0,-0.4102,-0.3964,-0.394,-0.3866,-0.3802,-0.3802,-0.3802,-0.3841,-0.3882,-0.404,-0.4233,-0.4501,-0.4621,-0.4818,-0.5018,-0.5018,-0.5018,-0.5018,-0.5054,-0.5308,-0.5698,-0.6075,-0.643,-0.6773,-0.6842,-0.7364,-0.8028,-0.8288,-0.9288,-1.0598,-1.1278,-1.2235,-1.3222,-1.361,-1.3864,-1.4088,-1.4088,-1.4088,-1.4166,-1.4573,-1.4692,-1.4824,-1.5298,-1.5389,-1.5465,-1.5748,-1.5997,-1.6327,-1.6853,-1.7383,-1.8144,-1.9529,-2.0167,-2.0644,-2.1205,-2.1464,-2.1617,-2.1769,-2.1807,-2.1807,-2.1807,-2.1807,-2.1807,-2.1807,-2.1807,-2.1807,-2.1807,-2.1807,-2.1807,-2.1883,-2.2025,-2.2101,-2.2176,-2.2515,-2.2703,-2.2703,-2.2981,-2.2939,-2.2462,-2.2083,-2.1663,-2.119,-2.1336,-2.1537,0.0,0.0,0.0,0.0,0.0,0.0,-0.0689,-0.1424,-0.2135,0.0,-0.2981,-0.3396,-0.3563,-0.371,-0.38,-0.38,-0.3988,0.0,0.0,0.0,0.0,0.0,0.0,0.0,0.0,-0.43,0.0,-0.4222,-0.4087,-0.3979,-0.3848,-0.3833,-0.3802,-0.3802,-0.3802,-0.3802,-0.3802,-0.3921,-0.4116,-0.4384,-0.4501,-0.474,-0.5018,-0.5018,-0.5018,-0.5018,-0.5018,-0.5171,-0.5485,-0.5801,-0.6194,-0.662,-0.6773,-0.714,-0.7716,-0.8042,-0.8986,-1.012,-1.0895,-1.1929,-1.3009,-1.344,-1.3828,-1.4088,-1.4088,-1.4088,-1.4166,-1.4489,-1.4741,-1.495,-1.5305,-1.5389,-1.5465,-1.5658,-1.5824,-1.6038,-1.6368,-1.6738,-1.7375,-1.8687,-1.945,-2.0059,-2.0557,-2.1079,-2.1436,-2.1655,-2.1731,-2.1807,-2.1807,-2.1807,-2.1807,-2.1807,-2.1807,-2.1807,-2.1807,-2.1807,-2.1807,-2.1807,-2.1921,-2.1949,-2.1949,-2.2289,-2.2478,-2.259,-2.2964,-2.3066,-2.2816,-2.2332,-2.1804,-2.119,-2.1273,-2.138,0.0,0.0,0.0,0.0034,-0.0101,0.0,-0.0438,-0.0929,-0.1506,0.0,-0.2289,-0.2657,-0.2913,-0.321,-0.3459,-0.3459,-0.3764,0.0,0.0,0.0,0.0,0.0,0.0,0.0,-0.4285,-0.4285,-0.4249,-0.4165,-0.4073,-0.3946,-0.3812,-0.3802,-0.3802,-0.3802,-0.3802,-0.3802,-0.3802,-0.3802,-0.3997,-0.4384,-0.4384,-0.4582,-0.4976,-0.4979,-0.5018,-0.5018,-0.5018,-0.5129,-0.5321,-0.5518,-0.5949,-0.6488,-0.6641,-0.6961,-0.7414,-0.8007,-0.8811,-0.982,-1.0722,-1.18,-1.2833,-1.3264,-1.3737,-1.4088,-1.4088,-1.4088,-1.4166,-1.4356,-1.4741,-1.5131,-1.5347,-1.5389,-1.5465,-1.5616,-1.565,-1.5741,-1.5963,-1.6203,-1.6591,-1.7602,-1.8527,-1.9292,-1.9786,-2.0557,-2.1205,-2.1464,-2.1655,-2.1807,-2.1807,-2.1807,-2.1807,-2.1807,-2.1807,-2.1807,-2.1807,-2.1807,-2.1807,-2.1807,-2.1807,-2.1807,-2.1807,-2.1987,-2.2176,-2.2365,-2.2777,-2.2981,-2.3042,-2.2615,-2.2013,-2.1282,-2.1282,-2.1247,0.0,0.0,0.0035,0.0209,0.0103,0.0,-0.0303,-0.0791,-0.1331,0.0,-0.211,-0.2511,-0.2731,-0.2936,-0.3141,-0.3254,-0.374,0.0,0.0,0.0,0.0,0.0,0.0,0.0,-0.4204,-0.4241,-0.4161,-0.4027,-0.3979,-0.3879,-0.3808,-0.3802,-0.3802,-0.3802,-0.3802,-0.3802,-0.3802,-0.3802,-0.3919,-0.4155,-0.4309,-0.454,-0.4779,-0.4937,-0.5018,-0.5018,-0.5018,-0.5129,-0.5321,-0.5518,-0.5874,-0.6291,-0.66,-0.7042,-0.7578,-0.8047,-0.903,-1.025,-1.0982,-1.2015,-1.3094,-1.3519,-1.387,-1.4088,-1.4088,-1.4088,-1.4166,-1.4531,-1.4866,-1.5131,-1.5347,-1.5389,-1.5431,-1.5465,-1.5465,-1.5465,-1.5506,-1.5707,-1.594,-1.6409,-1.7448,-1.8559,-1.952,-2.0245,-2.0886,-2.1425,-2.1655,-2.1807,-2.1807,-2.1807,-2.1807,-2.1807,-2.1807,-2.1807,-2.1807,-2.1807,-2.1807,-2.1807,-2.1807,-2.1807,-2.1807,-2.1987,-2.2101,-2.2138,-2.2553,-2.2735,-2.2708,-2.2511,-2.2195,-2.1745,-2.1745,-2.156,0.0,0.0,0.0036,0.0143,0.007,0.0,0.0,-0.0584,-0.0927,-0.1201,-0.1526,-0.182,-0.196,-0.2266,-0.2573,-0.2858,-0.3393,0.0,0.0,0.0,0.0,0.0,0.0,0.0,-0.4108,-0.4104,-0.4067,-0.3975,-0.3883,-0.3851,-0.3804,-0.3802,-0.3802,-0.3802,-0.3802,-0.3802,-0.3802,-0.3802,-0.3921,-0.4118,-0.4194,-0.4426,-0.4701,-0.4818,-0.4898,-0.5018,-0.5018,-0.5054,-0.5168,-0.5482,-0.5716,-0.5948,-0.6408,-0.6922,-0.7414,-0.792,-0.8948,-1.0207,-1.1025,-1.21,-1.3185,-1.3561,-1.3864,-1.4088,-1.4088,-1.4088,-1.4166,-1.4573,-1.4783,-1.4999,-1.5305,-1.5389,-1.5389,-1.5389,-1.5389,-1.5389,-1.5389,-1.5465,-1.5665,-1.6046,-1.6771,-1.7723,-1.8926,-1.9844,-2.0605,-2.1233,-2.1617,-2.1807,-2.1807,-2.1807,-2.1807,-2.1807,-2.1807,-2.1807,-2.1807,-2.1807,-2.1807,-2.1807,-2.1807,-2.1807,-2.1807,-2.1883,-2.1997,-2.2101,-2.2515,-2.2744,-2.2809,-2.2844,-2.2454,-2.1762,-2.1861,-2.1652,0.0,0.0,0.0,0.0,0.0,-0.007,0.0,0.0,0.0,-0.0706,-0.0875,0.0,0.0,0.0,0.0,0.0,0.0,0.0,0.0,0.0,0.0,0.0,0.0,0.0,0.0,-0.4024,-0.3993,-0.3879,-0.3845,-0.3802,-0.3802,-0.3802,-0.3802,-0.3802,-0.3802,-0.3802,-0.3802,-0.3802,-0.3882,-0.404,-0.4079,-0.4272,-0.4584,-0.4662,-0.4779,-0.4937,-0.4979,-0.5018,-0.5015,-0.5443,-0.5598,-0.5649,-0.6258,-0.6789,-0.7252,-0.7946,-0.9012,-1.0235,-1.1225,-1.2272,-1.3264,-1.3652,-1.3913,-1.4088,-1.4088,-1.4088,-1.4166,-1.4573,-1.4692,-1.4824,-1.5298,-1.5389,-1.5389,-1.5389,-1.5389,-1.5389,-1.5389,-1.5389,-1.5555,-1.6004,-1.6409,-1.7049,-1.8376,-1.945,-2.0323,-2.0964,-2.1425,-2.1693,-2.1731,-2.1731,-2.1769,-2.1807,-2.1807,-2.1807,-2.1807,-2.1807,-2.1807,-2.1807,-2.1807,-2.1807,-2.1807,-2.1807,-2.1883,-2.2101,-2.2402,-2.2703,-2.2927,-2.315,-2.2789,-2.1879,-2.1944,-2.1768,0.0,0.0,0.0,0.0,0.0,-0.007,-0.0245,0.0,-0.0371,-0.0506,0.0,0.0,0.0,0.0,0.0,0.0,0.0,0.0,0.0,0.0,0.0,0.0,0.0,0.0,0.0,0.0,-0.4027,-0.382,-0.3808,-0.3802,-0.3802,-0.3802,-0.3802,-0.3802,-0.3802,-0.3802,-0.3802,-0.3802,-0.3802,-0.3841,-0.3999,-0.4118,-0.4196,-0.4545,-0.4701,-0.474,-0.4937,-0.5018,-0.5015,-0.5443,-0.5598,-0.5649,-0.6258,-0.6842,-0.7492,-0.853,-0.9733,-1.101,-1.2153,-1.3003,-1.3695,-1.3955,-1.4088,-1.4088,-1.4088,-1.4088,-1.4166,-1.4573,-1.4692,-1.4824,-1.5298,-1.5389,-1.5389,-1.5389,-1.5389,-1.5389,-1.5389,-1.5389,-1.5555,-1.6004,-1.6286,-1.6837,-1.8135,-1.9085,-1.9883,-2.0566,-2.1002,-2.132,-2.1502,-2.154,-2.1617,-2.1769,-2.1807,-2.1807,-2.1807,-2.1807,-2.1807,-2.1807,-2.1807,-2.1807,-2.1807,-2.1807,-2.1883,-2.2101,-2.2138,-2.2365,-2.274,-2.2927,-2.2988,-2.2908,-2.2525,-2.215,0.0,0.0,0.0,0.0,0.0,0.0,-0.0108,0.0,-0.0135,0.0,0.0,0.0,0.0,0.0,0.0,0.0,-0.2542,0.0,0.0,0.0,0.0,0.0,0.0,0.0,0.0,0.0,0.0,0.0,0.0,-0.38,-0.3683,-0.3773,-0.3802,-0.3802,-0.3802,-0.3802,-0.3802,-0.3802,-0.3802,-0.3802,-0.3882,-0.3999,-0.4118,-0.4387,-0.4582,-0.4701,-0.4898,-0.5018,-0.5015,-0.5443,-0.5598,-0.5682,-0.6322,-0.6985,-0.7676,-0.8518,-0.9719,-1.1103,-1.2093,-1.29,-1.3522,-1.3944,-1.4088,-1.4088,-1.4088,-1.4088,-1.4166,-1.4573,-1.4692,-1.4824,-1.5298,-1.5389,-1.5389,-1.5389,-1.5389,-1.5389,-1.5389,-1.5389,-1.5506,-1.5831,-1.6079,-1.6484,-1.7253,-1.8336,-1.9332,-2.0098,-2.045,-2.076,-2.1108,-2.1146,-2.1223,-2.1425,-2.154,-2.1617,-2.1617,-2.1731,-2.1807,-2.1807,-2.1807,-2.1807,-2.1807,-2.1807,-2.1845,-2.1921,-2.2025,-2.2252,-2.2515,-2.274,-2.3003,-2.3388,-2.2999,-2.248,0.0,0.0,0.0,0.0,0.0,0.0,0.0,0.0,0.0,0.0,0.0,0.0,0.0,0.0,-0.0908,-0.1446,0.0,-0.2725,0.0,0.0,0.0,0.0,0.0,0.0,0.0,0.0,0.0,0.0,0.0,0.0,-0.3778,-0.3831,-0.3882,-0.3882,-0.3841,-0.3802,-0.3802,-0.3802,-0.3802,-0.3802,-0.3802,-0.3921,-0.4118,-0.4309,-0.4501,-0.4701,-0.4898,-0.5018,-0.5015,-0.5443,-0.5598,-0.5676,-0.6405,-0.713,-0.7903,-0.8707,-0.982,-1.1175,-1.2198,-1.2988,-1.3594,-1.3973,-1.4088,-1.4088,-1.4088,-1.4088,-1.4166,-1.4531,-1.465,-1.4783,-1.5215,-1.5347,-1.5389,-1.5389,-1.5389,-1.5389,-1.5389,-1.5389,-1.5465,-1.5658,-1.5865,-1.6121,-1.6566,-1.761,-1.8656,-1.9292,-1.9657,-2.001,-2.0401,-2.0557,-2.0722,-2.1012,-2.1233,-2.1387,-2.1502,-2.1617,-2.1731,-2.1807,-2.1807,-2.1807,-2.1807,-2.1807,-2.1807,-2.1807,-2.1949,-2.2138,-2.2402,-2.2553,-2.2964,-2.3582,-2.3208,-2.2763,0.0,0.0,0.0,0.0,0.0,0.0,0.0,0.0,0.0,0.0,0.0,0.0,0.0,-0.0274,-0.0672,-0.121,-0.1913,0.0,0.0,0.0,0.0,0.0,0.0,0.0,0.0,0.0,0.0,0.0,0.0,0.0,-0.4197,-0.4142,-0.4079,-0.4079,-0.3921,-0.3802,-0.3802,-0.3802,-0.3802,-0.3802,-0.3802,-0.3921,-0.4118,-0.4309,-0.4501,-0.4701,-0.4898,-0.5018,-0.5015,-0.5443,-0.5598,-0.5676,-0.6556,-0.7361,-0.823,-0.9277,-1.0378,-1.1483,-1.2828,-1.362,-1.4075,-1.4082,-1.4088,-1.4088,-1.4088,-1.4088,-1.4124,-1.4363,-1.4566,-1.4776,-1.5041,-1.5257,-1.5389,-1.5389,-1.5389,-1.5389,-1.5389,-1.5389,-1.5465,-1.5658,-1.5692,-1.5858,-1.6312,-1.7131,-1.7813,-1.8037,-1.8625,-1.9112,-1.9301,-1.9696,-2.0098,-2.0566,-2.0789,-2.1069,-2.1474,-2.1512,-2.1578,-2.1807,-2.1807,-2.1807,-2.1807,-2.1807,-2.1807,-2.1807,-2.1807,-2.1987,-2.2402,-2.2402,-2.2815,-2.3582,-2.3064,-2.2996,0.0,0.0,0.0,0.0,0.0,0.0,0.0,0.0,0.0,0.0,0.0,0.0,0.0,-0.0211,-0.0483,-0.0898,-0.144,-0.2018,0.0,0.0,0.0,0.0,0.0,0.0,0.0,0.0,0.0,0.0,-0.4109,0.0,0.0,-0.4157,-0.4128,-0.4116,-0.404,-0.3921,-0.3802,-0.3802,-0.3802,-0.3802,-0.3921,-0.404,-0.4118,-0.4426,-0.4621,-0.4701,-0.4898,-0.5018,-0.5015,-0.5443,-0.5598,-0.5676,-0.6556,-0.7322,-0.8055,-0.9186,-1.0285,-1.1361,-1.2745,-1.3466,-1.3828,-1.4021,-1.4088,-1.4088,-1.4088,-1.4088,-1.4124,-1.4356,-1.4524,-1.4776,-1.5048,-1.5257,-1.5389,-1.5389,-1.5389,-1.5389,-1.5389,-1.5389,-1.5431,-1.5506,-1.5499,-1.5541,-1.5707,-1.6105,-1.6673,-1.7497,-1.7789,-1.8112,-1.8585,-1.8895,-1.9262,-1.9696,-2.0216,-2.0683,-2.1069,-2.1464,-2.1731,-2.1807,-2.1807,-2.1807,-2.1807,-2.1807,-2.1807,-2.1807,-2.1807,-2.1997,-2.2402,-2.2402,-2.2815,-2.3593,-2.3425,-2.3358,0.0,0.0,0.0,0.0,0.0,0.0,0.0,0.0,0.0,0.0,0.0,0.0,0.0,-0.0108,-0.0319,-0.0631,-0.1054,-0.1655,0.0,-0.3208,0.0,0.0,0.0,-0.43,0.0,0.0,-0.4233,-0.4131,-0.4238,0.0,0.0,0.0,-0.4301,-0.4253,-0.4139,-0.404,-0.3921,-0.3921,-0.3921,-0.3921,-0.4116,-0.4233,-0.4311,-0.4584,-0.474,-0.4818,-0.4937,-0.5018,-0.5015,-0.5365,-0.5521,-0.5676,-0.6405,-0.7096,-0.7859,-0.9145,-1.0451,-1.1746,-1.2837,-1.336,-1.3653,-1.3988,-1.4088,-1.4088,-1.4088,-1.4088,-1.4124,-1.4243,-1.4447,-1.465,-1.4908,-1.5131,-1.5305,-1.5389,-1.5389,-1.5389,-1.5389,-1.5389,-1.5389,-1.5389,-1.5389,-1.5389,-1.5389,-1.5506,-1.5865,-1.6689,-1.6984,-1.7302,-1.77,-1.8144,-1.8625,-1.9024,-1.9666,-2.0303,-2.0954,-2.1492,-2.1807,-2.1807,-2.1807,-2.1807,-2.1807,-2.1807,-2.1807,-2.1807,-2.1807,-2.1997,-2.2402,-2.2402,-2.2777,-2.3482,-2.3556,-2.3582]}]]